[[{"header":{"parameterUnit":"m.s-1","parameterCategory":1,"la1":30.6,"la2":28.766,"lo1":-90.7593,"lo2":-88.6598,"dy":0.0162,"dx":0.0183,"nx":116,"ny":114,"refTime":"2023-09-30T06:00:00:Z","depth":0,"parameterNumber":2,"parameterNumberName":"U-component_of_WINDS"},"data":[0.0,0.0,0.0,0.0,0.0,0.0,0.0,0.0,0.0,0.0,0.0,0.0,0.0,0.0,0.0,0.0,0.0,0.0,0.0,0.0,0.0,0.0,0.0,0.0,0.0,0.0,0.0,0.0,0.0,0.0,0.0,0.0,0.0,0.0,0.0,0.0,0.0,0.0,0.0,0.0,0.0,0.0,0.0,0.0,0.0,0.0,0.0,0.0,0.0,0.0,0.0,0.0,0.0,0.0,0.0,0.0,0.0,0.0,0.0,0.0,0.0,0.0,0.0,0.0,0.0,0.0,0.0,0.0,0.0,0.0,0.0,0.0,0.0,0.0,0.0,0.0,0.0,0.0,0.0,0.0,0.0,0.0,0.0,0.0,0.0,0.0,0.0,0.0,0.0,0.0,0.0,0.0,0.0,0.0,0.0,0.0,0.0,0.0,0.0,0.0,0.0,0.0,0.0,0.0,0.0,0.0,0.0,0.0,0.0,0.0,0.0,0.0,0.0,0.0,0.0,0.0,0.0,0.0,0.0,0.0,0.0,0.0,0.0,0.0,0.0,0.0,0.0,0.0,0.0,0.0,0.0,0.0,0.0,0.0,0.0,0.0,0.0,0.0,0.0,0.0,0.0,0.0,0.0,0.0,0.0,0.0,0.0,0.0,0.0,0.0,0.0,0.0,0.0,0.0,0.0,0.0,0.0,0.0,0.0,0.0,0.0,0.0,0.0,0.0,0.0,0.0,0.0,0.0,0.0,0.0,0.0,0.0,0.0,0.0,0.0,0.0,0.0,0.0,0.0,0.0,0.0,0.0,0.0,0.0,0.0,0.0,0.0,0.0,0.0,0.0,0.0,0.0,0.0,0.0,0.0,0.0,0.0,0.0,0.0,0.0,0.0,0.0,0.0,0.0,0.0,0.0,0.0,0.0,0.0,0.0,0.0,0.0,0.0,0.0,0.0,0.0,0.0,0.0,0.0,0.0,0.0,0.0,0.0,0.0,0.0,0.0,0.0,0.0,0.0,0.0,0.0,0.0,0.0,0.0,0.0,0.0,0.0,0.0,0.0,0.0,0.0,0.0,0.0,0.0,0.0,0.0,0.0,0.0,0.0,0.0,0.0,0.0,0.0,0.0,0.0,0.0,0.0,0.0,0.0,0.0,0.0,0.0,0.0,0.0,0.0,0.0,0.0,0.0,0.0,0.0,0.0,0.0,0.0,0.0,0.0,0.0,0.0,0.0,0.0,0.0,0.0,0.0,0.0,0.0,0.0,0.0,0.0,0.0,0.0,0.0,0.0,0.0,0.0,0.0,0.0,0.0,0.0,0.0,0.0,0.0,0.0,0.0,0.0,0.0,0.0,0.0,0.0,0.0,0.0,0.0,0.0,0.0,0.0,0.0,0.0,0.0,0.0,0.0,0.0,0.0,0.0,0.0,0.0,0.0,0.0,0.0,0.0,0.0,0.0,0.0,0.0,0.0,0.0,0.0,0.0,0.0,0.0,0.0,0.0,0.0,0.0,0.0,0.0,0.0,0.0,0.0,0.0,0.0,0.0,0.0,0.0,0.0,0.0,0.0,0.0,0.0,0.0,0.0,0.0,0.0,0.0,0.0,0.0,0.0,0.0,0.0,0.0,0.0,0.0,0.0,0.0,0.0,0.0,0.0,0.0,0.0,0.0,0.0,0.0,0.0,0.0,0.0,0.0,0.0,0.0,0.0,0.0,0.0,0.0,0.0,0.0,0.0,0.0,0.0,0.0,0.0,0.0,0.0,0.0,0.0,0.0,0.0,0.0,0.0,0.0,0.0,0.0,0.0,0.0,0.0,0.0,0.0,0.0,0.0,0.0,0.0,0.0,0.0,0.0,0.0,0.0,0.0,0.0,0.0,0.0,0.0,0.0,0.0,0.0,0.0,0.0,0.0,0.0,0.0,0.0,0.0,0.0,0.0,0.0,0.0,0.0,0.0,0.0,0.0,0.0,0.0,0.0,0.0,0.0,0.0,0.0,0.0,0.0,0.0,0.0,0.0,0.0,0.0,0.0,0.0,0.0,0.0,0.0,0.0,0.0,0.0,0.0,0.0,0.0,0.0,0.0,0.0,0.0,0.0,0.0,0.0,0.0,0.0,0.0,0.0,0.0,0.0,0.0,0.0,0.0,0.0,0.0,0.0,0.0,0.0,0.0,0.0,0.0,0.0,0.0,0.0,0.0,0.0,0.0,0.0,0.0,0.0,0.0,0.0,0.0,0.0,0.0,0.0,0.0,0.0,0.0,0.0,0.0,0.0,0.0,0.0,0.0,0.0,0.0,0.0,0.0,0.0,0.0,0.0,0.0,0.0,0.0,0.0,0.0,0.0,0.0,0.0,0.0,0.0,0.0,0.0,0.0,0.0,0.0,0.0,0.0,0.0,0.0,0.0,0.0,0.0,0.0,0.0,0.0,0.0,0.0,0.0,0.0,0.0,0.0,0.0,0.0,0.0,0.0,0.0,0.0,0.0,0.0,0.0,0.0,0.0,0.0,0.0,0.0,0.0,0.0,0.0,0.0,0.0,0.0,0.0,0.0,0.0,0.0,0.0,0.0,0.0,0.0,0.0,0.0,0.0,0.0,0.0,0.0,0.0,0.0,0.0,0.0,0.0,0.0,0.0,0.0,0.0,0.0,0.0,0.0,0.0,0.0,0.0,0.0,0.0,0.0,0.0,0.0,0.0,0.0,0.0,0.0,0.0,0.0,0.0,0.0,0.0,0.0,0.0,0.0,0.0,0.0,0.0,0.0,0.0,0.0,0.0,0.0,0.0,0.0,0.0,0.0,0.0,0.0,0.0,0.0,0.0,0.0,0.0,0.0,0.0,0.0,0.0,0.0,0.0,0.0,0.0,0.0,0.0,0.0,0.0,0.0,0.0,0.0,0.0,0.0,0.0,0.0,0.0,0.0,0.0,0.0,0.0,0.0,0.0,0.0,0.0,0.0,0.0,0.0,0.0,0.0,0.0,0.0,0.0,0.0,0.0,0.0,0.0,0.0,0.0,0.0,0.0,0.0,0.0,0.0,0.0,0.0,0.0,0.0,0.0,0.0,0.0,0.0,0.0,0.0,0.0,0.0,0.0,0.0,0.0,0.0,0.0,0.0,0.0,0.0,0.0,0.0,0.0,0.0,0.0,0.0,0.0,0.0,0.0,0.0,0.0,0.0,0.0,0.0,0.0,0.0,0.0,0.0,0.0,0.0,0.0,0.0,0.0,0.0,0.0,0.0,0.0,0.0,0.0,0.0,0.0,0.0,0.0,0.0,0.0,0.0,0.0,0.0,0.0,0.0,0.0,0.0,0.0,0.0,0.0,0.0,0.0,0.0,0.0,0.0,0.0,0.0,0.0,0.0,0.0,0.0,0.0,0.0,0.0,0.0,0.0,0.0,0.0,0.0,0.0,0.0,0.0,0.0,0.0,0.0,0.0,0.0,0.0,0.0,0.0,0.0,0.0,0.0,0.0,0.0,0.0,0.0,0.0,0.0,0.0,0.0,0.0,0.0,0.0,0.0,0.0,0.0,0.0,0.0,0.0,0.0,0.0,0.0,0.0,0.0,0.0,0.0,0.0,0.0,0.0,0.0,0.0,0.0,0.0,0.0,0.0,0.0,0.0,0.0,0.0,0.0,0.0,0.0,0.0,0.0,0.0,0.0,0.0,0.0,0.0,0.0,0.0,0.0,0.0,0.0,0.0,0.0,0.0,0.0,0.0,0.0,0.0,0.0,0.0,0.0,0.0,0.0,0.0,0.0,0.0,0.0,0.0,0.0,0.0,0.0,0.0,0.0,0.0,0.0,0.0,0.0,0.0,0.0,0.0,0.0,0.0,0.0,0.0,0.0,0.0,0.0,0.0,0.0,0.0,0.0,0.0,0.0,0.0,0.0,0.0,0.0,0.0,0.0,0.0,0.0,0.0,0.0,0.0,0.0,0.0,0.0,0.0,0.0,0.0,0.0,0.0,0.0,0.0,0.0,0.0,0.0,0.0,0.0,0.0,0.0,0.0,0.0,0.0,0.0,0.0,0.0,0.0,0.0,0.0,0.0,0.0,0.0,0.0,0.0,0.0,0.0,0.0,0.0,0.0,0.0,0.0,0.0,0.0,0.0,0.0,0.0,0.0,0.0,0.0,0.0,0.0,0.0,0.0,0.0,0.0,0.0,0.0,0.0,0.0,0.0,0.0,0.0,0.0,0.0,0.0,0.0,0.0,0.0,0.0,0.0,0.0,0.0,0.0,0.0,0.0,0.0,0.0,0.0,0.0,0.0,0.0,0.0,0.0,0.0,0.0,0.0,0.0,0.0,0.0,0.0,0.0,0.0,0.0,0.0,0.0,0.0,0.0,0.0,0.0,0.0,0.0,0.0,0.0,0.0,0.0,0.0,0.0,0.0,0.0,0.0,0.0,0.0,0.0,0.0,0.0,0.0,0.0,0.0,0.0,0.0,0.0,0.0,0.0,0.0,0.0,0.0,0.0,0.0,0.0,0.0,0.0,0.0,0.0,0.0,0.0,0.0,0.0,0.0,0.0,0.0,0.0,0.0,0.0,0.0,0.0,0.0,0.0,0.0,0.0,0.0,0.0,0.0,0.0,0.0,0.0,0.0,0.0,0.0,0.0,0.0,0.0,0.0,0.0,0.0,0.0,0.0,0.0,0.0,0.0,0.0,0.0,0.0,0.0,0.0,0.0,0.0,0.0,0.0,0.0,0.0,0.0,0.0,0.0,0.0,0.0,0.0,0.0,0.0,0.0,0.0,0.0,0.0,0.0,0.0,0.0,0.0,0.0,0.0,0.0,0.0,0.0,0.0,0.0,0.0,0.0,0.0,0.0,0.0,0.0,0.0,0.0,0.0,0.0,0.0,0.0,0.0,0.0,0.0,0.0,0.0,0.0,0.0,0.0,0.0,0.0,0.0,0.0,0.0,0.0,0.0,0.0,0.0,0.0,0.0,0.0,0.0,0.0,0.0,0.0,0.0,0.0,0.0,0.0,0.0,0.0,0.0,0.0,0.0,0.0,0.0,0.0,0.0,0.0,0.0,0.0,0.0,0.0,0.0,0.0,0.0,0.0,0.0,0.0,0.0,0.0,0.0,0.0,0.0,0.0,0.0,0.0,0.0,0.0,0.0,0.0,0.0,0.0,0.0,0.0,0.0,0.0,0.0,0.0,0.0,0.0,0.0,0.0,0.0,0.0,0.0,0.0,0.0,0.0,0.0,0.0,0.0,0.0,0.0,0.0,0.0,0.0,0.0,0.0,0.0,0.0,0.0,0.0,0.0,0.0,0.0,0.0,0.0,0.0,0.0,0.0,0.0,0.0,0.0,0.0,0.0,0.0,0.0,0.0,0.0,0.0,0.0,0.0,0.0,0.0,0.0,0.0,0.0,0.0,0.0,0.0,0.0,0.0,0.0,0.0,0.0,0.0,0.0,0.0,0.0,0.0,0.0,0.0,0.0,0.0,0.0,0.0,0.0,0.0,0.0,0.0,0.0,0.0,0.0,0.0,0.0,0.0,0.0,0.0,0.0,0.0,0.0,0.0,0.0,0.0,0.0,0.0,0.0,0.0,0.0,0.0,0.0,0.0,0.0,0.0,0.0,0.0,0.0,0.0,0.0,0.0,0.0,0.0,0.0,0.0,0.0,0.0,0.0,0.0,0.0,0.0,0.0,0.0,0.0,0.0,0.0,0.0,0.0,0.0,0.0,0.0,0.0,0.0,0.0,0.0,0.0,0.0,0.0,0.0,0.0,0.0,0.0,0.0,0.0,0.0,0.0,0.0,0.0,0.0,0.0,0.0,0.0,0.0,0.0,0.0,0.0,0.0,0.0,0.0,0.0,0.0,0.0,0.0,0.0,0.0,0.0,0.0,0.0,0.0,0.0,0.0,0.0,0.0,0.0,0.0,0.0,0.0,0.0,0.0,0.0,0.0,0.0,0.0,0.0,0.0,0.0,0.0,0.0,0.0,0.0,0.0,0.0,0.0,0.0,0.0,0.0,0.0,0.0,0.0,0.0,0.0,0.0,0.0,0.0,0.0,0.0,0.0,0.0,0.0,0.0,0.0,0.0,0.0,0.0,0.0,0.0,0.0,0.0,0.0,1.7729,0.0,0.0,0.0,0.0,0.0,0.0,0.0,0.0,0.0,0.0,0.0,0.0,0.0,0.0,0.0,0.0,0.0,0.0,0.0,0.0,0.0,0.0,0.0,0.0,0.0,0.0,0.0,0.0,0.0,0.0,0.0,0.0,0.0,0.0,0.0,0.0,0.0,0.0,1.6046,1.6059,1.5979,1.5808,1.5808,1.5888,1.6046,0.0,0.0,0.0,0.0,0.0,0.0,0.0,0.0,0.0,0.0,0.0,0.0,0.0,0.0,0.0,0.0,0.0,0.0,0.0,0.0,0.0,0.0,0.0,0.0,0.0,0.0,0.0,0.0,0.0,0.0,0.0,0.0,0.0,0.0,0.0,0.0,0.0,0.0,0.0,0.0,0.0,0.0,0.0,0.0,0.0,0.0,0.0,0.0,0.0,0.0,0.0,0.0,0.0,0.0,0.0,0.0,0.0,0.0,0.0,0.0,0.0,0.0,0.0,0.0,0.0,0.0,0.0,0.0,0.0,0.0,0.0,1.8156,0.0,0.0,0.0,0.0,0.0,0.0,0.0,0.0,0.0,0.0,0.0,0.0,0.0,0.0,0.0,0.0,0.0,0.0,0.0,0.0,0.0,0.0,0.0,1.5808,1.5808,1.5808,1.5808,1.5808,0.0,0.0,0.0,0.0,0.0,0.0,1.5888,1.5888,1.6019,1.6297,1.5955,1.5835,1.5888,1.5888,1.6032,1.631,1.6473,0.0,0.0,0.0,0.0,0.0,0.0,0.0,0.0,0.0,0.0,0.0,0.0,0.0,0.0,0.0,0.0,0.0,0.0,0.0,0.0,0.0,0.0,0.0,0.0,0.0,0.0,0.0,0.0,0.0,0.0,0.0,0.0,0.0,0.0,0.0,0.0,0.0,0.0,0.0,0.0,0.0,0.0,0.0,0.0,0.0,0.0,0.0,0.0,0.0,0.0,0.0,0.0,0.0,0.0,0.0,0.0,0.0,0.0,0.0,0.0,0.0,0.0,0.0,1.9629,1.9722,1.988,1.988,1.9773,1.9602,1.9025,1.8597,1.8303,1.9011,0.0,0.0,0.0,0.0,0.0,0.0,0.0,0.0,0.0,0.0,0.0,0.0,0.0,0.0,0.0,0.0,0.0,0.0,0.0,1.5808,1.5808,1.5808,1.5808,1.5808,1.5808,1.5808,1.5808,0.0,0.0,0.0,0.0,0.0,1.623,1.6244,1.6257,1.6297,1.5955,1.5941,1.6244,1.6244,1.6257,1.6284,1.6021,1.6086,1.6351,0.0,0.0,0.0,0.0,0.0,0.0,0.0,0.0,0.0,0.0,0.0,0.0,0.0,0.0,0.0,0.0,0.0,0.0,0.0,0.0,0.0,0.0,0.0,0.0,0.0,0.0,0.0,0.0,0.0,0.0,0.0,0.0,0.0,0.0,0.0,0.0,0.0,0.0,0.0,0.0,0.0,1.7055,1.7279,0.0,0.0,0.0,0.0,0.0,0.0,0.0,0.0,0.0,0.0,0.0,0.0,0.0,1.9733,1.9917,2.0281,2.0498,2.0539,2.0539,2.0388,2.0144,2.0144,2.0294,2.0512,2.0147,0.0,1.9214,1.9038,0.0,0.0,0.0,0.0,0.0,0.0,0.0,0.0,0.0,0.0,0.0,0.0,0.0,0.0,0.0,0.0,0.0,0.0,0.0,0.0,0.0,1.5808,1.5808,1.5808,1.5979,1.6072,1.6072,1.6072,0.0,0.0,1.6166,1.6219,1.6513,1.6377,1.6297,1.6297,1.6498,1.6578,1.6513,1.6513,1.6458,1.6284,1.6163,1.6246,1.6513,1.6513,0.0,0.0,0.0,0.0,0.0,0.0,0.0,0.0,0.0,0.0,0.0,0.0,0.0,0.0,0.0,0.0,0.0,0.0,0.0,0.0,0.0,0.0,0.0,0.0,0.0,0.0,0.0,0.0,0.0,0.0,0.0,0.0,0.0,0.0,0.0,0.0,0.0,0.0,0.0,1.7943,1.8277,1.8116,1.8652,1.8865,0.0,0.0,0.0,0.0,0.0,0.0,0.0,0.0,0.0,2.0401,2.0815,2.1015,2.1007,2.143,2.1657,2.1657,2.1863,2.1877,2.171,2.171,2.181,2.1917,2.159,2.1229,2.0806,1.9987,1.9639,1.9626,0.0,0.0,0.0,0.0,1.9853,1.984,0.0,0.0,0.0,0.0,0.0,0.0,0.0,0.0,0.0,0.0,0.0,0.0,1.5808,1.5875,1.5915,1.5915,1.6163,1.6324,1.6404,1.6337,1.6431,1.6687,1.65,1.6538,1.6807,1.6698,1.6632,1.6632,1.7073,1.714,1.682,1.682,1.6685,1.6404,1.6404,1.6484,1.6593,1.6593,1.6792,1.706,0.0,0.0,0.0,0.0,0.0,0.0,0.0,0.0,0.0,0.0,0.0,0.0,0.0,0.0,0.0,0.0,0.0,0.0,0.0,0.0,0.0,0.0,0.0,0.0,0.0,0.0,0.0,0.0,0.0,0.0,0.0,0.0,0.0,0.0,0.0,0.0,0.0,1.8517,1.8931,1.8637,1.9319,1.9639,0.0,0.0,0.0,0.0,0.0,0.0,2.1221,2.159,2.1924,2.2251,2.2626,2.2666,2.2372,2.2846,2.306,2.2958,2.3207,2.3313,2.3313,2.3313,2.3308,2.3228,2.2899,2.2605,2.2231,2.0975,2.0304,2.016,2.0344,2.0424,2.0424,2.0424,2.0424,2.041,0.0,0.0,0.0,0.0,0.0,0.0,0.0,0.0,0.0,0.0,0.0,1.5808,1.5808,1.6086,1.627,1.627,1.6284,1.6417,1.666,1.6444,1.6431,1.6687,1.6687,1.6846,1.7166,1.7408,1.7541,1.7541,1.7568,1.7434,1.7179,1.7179,1.6993,1.6687,1.6687,1.654,1.6324,1.6324,1.6484,1.6727,1.6727,0.0,0.0,0.0,0.0,0.0,0.0,0.0,0.0,0.0,0.0,0.0,0.0,0.0,0.0,0.0,0.0,0.0,0.0,0.0,0.0,0.0,0.0,0.0,0.0,0.0,0.0,0.0,0.0,0.0,0.0,0.0,0.0,0.0,0.0,0.0,0.0,0.0,0.0,1.8916,2.016,0.0,0.0,0.0,0.0,2.1002,2.1537,2.2158,2.276,2.3348,2.3803,2.4062,2.4623,2.4783,2.4452,2.4796,2.481,2.4492,2.4506,2.4506,2.4506,2.4506,2.4396,2.4115,2.387,2.3541,2.3105,2.167,2.1056,2.1042,2.1056,2.1069,2.1069,2.1069,2.1069,2.1029,0.0,0.0,0.0,0.0,0.0,0.0,0.0,0.0,1.5808,1.5808,1.5808,1.5875,1.6099,1.623,1.6377,1.654,1.6553,1.6593,1.67,1.6607,1.6712,1.7006,1.702,1.7153,1.7448,1.7716,1.7862,1.7849,1.8076,1.8143,1.8036,1.8036,1.7849,1.7529,1.7355,1.714,1.6871,1.6658,1.6607,1.67,1.67,1.6994,0.0,0.0,0.0,0.0,0.0,0.0,0.0,0.0,0.0,0.0,0.0,0.0,0.0,0.0,0.0,0.0,0.0,0.0,0.0,0.0,0.0,0.0,0.0,0.0,0.0,0.0,0.0,0.0,0.0,0.0,0.0,0.0,0.0,0.0,0.0,0.0,0.0,2.1091,2.2151,0.0,2.2392,2.2666,2.2899,2.3086,2.346,2.3955,2.4529,2.4994,2.5342,2.5598,2.5812,2.5879,2.5758,2.5865,2.5772,2.5491,2.5491,2.5491,2.5478,2.5291,2.5251,2.5342,2.486,2.4556,2.4396,2.3674,2.2926,2.2265,2.2265,2.2265,2.2265,2.2265,2.2265,2.2251,0.0,0.0,0.0,0.0,0.0,0.0,0.0,1.5808,1.5808,1.5808,1.5888,1.6086,1.6417,1.6538,1.6712,1.6981,1.682,1.6794,1.6981,1.682,1.6887,1.7326,1.7421,1.7622,1.7916,1.8277,1.8477,1.8463,1.8784,1.8838,1.8637,1.8637,1.8477,1.8156,1.7983,1.7809,1.7608,1.7395,1.7074,1.67,1.67,1.7061,1.7502,0.0,0.0,0.0,0.0,0.0,0.0,0.0,0.0,0.0,0.0,0.0,0.0,0.0,0.0,0.0,0.0,0.0,0.0,0.0,0.0,0.0,0.0,0.0,0.0,0.0,0.0,0.0,0.0,0.0,0.0,0.0,0.0,0.0,0.0,0.0,2.2258,2.2939,2.3808,2.4352,2.4258,2.4512,2.473,2.493,2.5304,2.5732,2.6226,2.644,2.672,2.7015,2.7028,2.6934,2.6827,2.6827,2.668,2.6439,2.6439,2.6439,2.6426,2.6199,2.6159,2.6265,2.5838,2.5611,2.5504,2.5304,2.477,2.4044,2.3621,2.346,2.346,2.346,2.346,2.346,0.0,0.0,0.0,0.0,0.0,0.0,1.5808,1.5808,1.5808,1.5808,1.6099,1.6417,1.6687,1.702,1.7314,1.7608,1.7061,1.6967,1.7568,1.7034,1.6981,1.7608,1.7876,1.8183,1.8517,1.912,1.9415,1.9428,1.9666,1.9519,1.893,1.893,1.8783,1.8544,1.8531,1.8531,1.8531,1.8517,1.7849,1.678,1.6754,1.7088,1.7622,0.0,0.0,0.0,0.0,0.0,0.0,0.0,0.0,0.0,0.0,0.0,0.0,0.0,0.0,0.0,0.0,0.0,0.0,0.0,0.0,0.0,0.0,0.0,0.0,0.0,0.0,0.0,0.0,0.0,0.0,0.0,0.0,0.0,2.2071,2.3121,2.3991,2.4275,2.5077,2.5504,2.5262,2.5985,2.6493,2.6493,2.7055,2.7496,2.7736,2.7749,2.7869,2.8205,2.8219,2.8072,2.7736,2.7736,2.7575,2.7336,2.7322,2.7322,2.7322,2.7309,2.7108,2.6854,2.68,2.668,2.6413,2.6413,2.6413,2.6306,2.5093,2.4653,2.4653,2.4639,2.4639,2.4639,0.0,0.0,0.0,0.0,0.0,0.0,1.5808,1.5808,1.5808,1.5808,1.6273,1.67,1.702,1.7488,1.7916,1.821,1.7528,1.7207,1.7582,1.7034,1.7168,1.8196,1.8317,1.8704,1.9426,1.9599,1.9786,2.0,1.9867,1.9826,1.9837,1.9623,1.9626,1.9717,1.9533,1.9439,1.9426,1.9241,1.896,1.8612,1.7916,1.7742,1.7862,0.0,0.0,0.0,0.0,0.0,0.0,0.0,0.0,0.0,0.0,0.0,0.0,0.0,0.0,0.0,0.0,0.0,0.0,0.0,0.0,0.0,0.0,0.0,0.0,0.0,0.0,0.0,0.0,0.0,0.0,0.0,0.0,2.4155,2.3905,2.4743,2.5743,2.6627,2.7335,2.7816,2.7936,2.8364,2.8631,2.8631,2.8778,2.8911,2.8991,2.8791,2.8668,2.8791,2.8791,2.8751,2.8628,2.8457,2.8203,2.7938,2.7724,2.7575,2.7575,2.7403,2.7376,2.7442,2.7228,2.7135,2.7068,2.7068,2.7068,2.6974,2.6011,2.5718,2.5879,2.5678,2.5636,2.5558,0.0,0.0,0.0,0.0,0.0,0.0,1.5808,1.5808,1.5848,1.6005,1.6526,1.7073,1.7488,1.7809,1.8089,1.8263,1.7622,1.7273,1.7421,1.7461,1.7822,1.8637,1.8905,1.9332,1.993,2.0107,2.0254,2.0414,2.0254,2.0187,2.0197,2.0024,2.0037,2.0197,2.0024,1.9987,1.9973,1.98,1.9733,1.9679,1.9143,1.8863,1.8716,1.8478,1.8517,1.877,1.889,1.8996,1.9132,1.9252,0.0,0.0,0.0,0.0,0.0,0.0,0.0,0.0,0.0,0.0,0.0,0.0,0.0,0.0,0.0,0.0,0.0,0.0,0.0,0.0,0.0,0.0,0.0,0.0,2.5157,2.6199,2.672,2.6974,2.7455,2.8497,2.8938,2.9272,2.9566,2.9753,2.9891,2.9891,2.9891,2.9838,2.9673,2.9499,2.9362,2.9362,2.9285,2.9219,2.9219,2.8938,2.8698,2.8511,2.8217,2.8083,2.807,2.7817,2.7764,2.7924,2.775,2.767,2.767,2.767,2.767,0.0,0.0,0.0,0.0,0.0,2.6546,2.6519,0.0,0.0,0.0,0.0,0.0,0.0,1.5808,1.5808,1.5915,1.6257,1.6832,1.7421,1.7916,1.8022,1.8076,1.8089,1.7569,1.7286,1.734,1.8103,1.8704,1.9023,1.9573,2.0,2.029,2.0588,2.0753,2.0753,2.0726,2.0575,2.0344,2.0317,2.0344,2.0397,2.0397,2.0397,2.0397,2.0397,2.0397,2.0397,2.0397,2.0144,1.9773,1.9548,1.9589,1.9786,2.001,1.984,1.9535,1.972,0.0,0.0,0.0,0.0,0.0,0.0,0.0,0.0,0.0,0.0,0.0,0.0,0.0,0.0,0.0,0.0,0.0,0.0,0.0,0.0,0.0,0.0,0.0,0.0,2.7229,2.8272,2.9887,2.9472,2.9259,2.994,3.0047,3.0154,3.0426,3.052,3.0533,3.0507,3.0507,3.0341,3.0074,0.0,0.0,0.0,0.0,2.9579,2.9579,2.9259,2.9041,2.9041,2.8791,2.8657,2.8644,2.8379,2.8232,2.8232,2.8205,2.8179,2.8179,2.8179,2.8179,2.8138,2.7617,2.7389,2.7362,2.7362,2.7362,2.7349,0.0,0.0,0.0,0.0,0.0,0.0,1.5808,1.5808,1.5915,1.6257,1.702,1.7568,1.7675,1.8103,1.8504,1.8703,1.7983,1.7729,1.8224,1.8611,1.9156,1.9917,2.0064,2.037,2.0891,2.1002,2.1029,2.1029,2.082,2.0927,2.1328,2.1056,2.1189,2.1643,2.1643,2.1643,2.1643,2.1643,2.1643,2.1643,2.1643,2.0909,1.9786,1.9733,1.9599,1.9481,1.9548,1.976,2.001,1.9867,2.004,2.0294,2.0024,1.9783,0.0,0.0,0.0,0.0,0.0,0.0,0.0,0.0,0.0,0.0,0.0,0.0,0.0,0.0,0.0,0.0,0.0,0.0,0.0,2.7643,2.9142,3.0394,3.1223,3.1383,3.1223,3.0688,3.0835,3.0902,3.0728,3.1142,3.1363,3.1076,3.1062,3.1036,3.0922,3.0755,3.0621,3.0621,3.0386,3.0239,3.0239,2.9659,2.9392,2.9392,0.0,0.0,2.8908,2.8644,2.8524,2.8497,2.8299,2.8179,2.8179,2.8179,2.8179,2.8179,2.8058,2.7871,2.7615,2.7615,2.7615,2.7589,0.0,0.0,0.0,0.0,0.0,0.0,1.5808,1.5808,1.5968,1.6433,1.7033,1.7501,1.7782,1.7943,1.809,1.8237,1.7849,1.7996,1.8893,1.9332,1.9943,2.0855,2.1029,2.1243,2.1537,2.155,2.155,2.155,2.1435,2.1515,2.1796,2.1764,2.1924,2.2205,2.2385,2.2452,2.2452,2.2452,2.2452,2.2452,2.2452,2.2024,2.1328,2.1002,2.0739,2.0512,2.0659,2.0668,2.0668,2.0681,2.0712,2.0686,2.0508,2.0254,2.001,0.0,0.0,0.0,0.0,0.0,0.0,0.0,0.0,0.0,0.0,0.0,0.0,0.0,0.0,2.4823,0.0,0.0,2.8364,2.9744,3.0694,3.1483,3.2072,3.2286,3.2206,3.1764,3.1797,3.1824,3.1724,3.1979,3.2099,3.1891,3.1891,3.1891,3.1891,3.161,3.145,3.145,3.1022,3.0795,3.0795,3.0354,3.014,3.014,2.9847,2.97,2.9686,2.9245,2.9045,2.9018,2.8564,2.8419,2.8406,2.8245,2.8179,2.8179,2.8179,2.8098,2.7965,2.7965,2.7965,2.7938,0.0,0.0,0.0,0.0,0.0,0.0,0.0,1.5808,1.5995,1.6553,1.6953,1.7354,1.7796,1.7702,1.7608,1.7608,1.7822,1.8411,1.9495,2.0134,2.0828,2.1636,2.1997,2.2131,2.1991,2.2044,2.2071,2.2071,2.2071,2.2124,2.2245,2.2485,2.2632,2.2699,2.3027,2.3161,2.3161,2.3215,2.3241,2.3241,2.3241,2.3241,2.3188,2.2686,2.2251,2.1863,2.2004,2.1724,2.1323,2.1582,2.1355,2.0967,2.1002,2.0855,2.061,2.0557,2.0797,0.0,0.0,0.0,0.0,0.0,0.0,0.0,0.0,2.292,2.35,2.5186,2.6039,2.6987,2.8711,2.9322,3.0114,3.1644,3.1979,3.2219,3.2701,3.2768,3.2768,3.2768,3.2714,3.2661,3.2607,3.2648,3.2661,3.2594,3.2541,3.2541,3.2594,3.2211,3.2051,3.2104,3.153,3.1176,3.1176,3.0942,3.0795,3.0795,3.06,3.0493,3.0467,2.9945,2.9619,2.9539,2.8951,2.8657,2.8591,2.8433,2.8326,2.8272,2.8272,2.8272,2.8272,2.8205,2.8179,2.8179,0.0,0.0,0.0,0.0,0.0,0.0,0.0,0.0,1.5928,1.631,1.6832,1.7233,1.7274,1.7474,1.7608,1.7608,1.8585,1.9468,2.0064,2.0967,2.1596,2.1957,2.2505,2.2559,2.1991,2.2231,2.2378,2.2378,2.2378,2.2611,2.3145,2.3172,2.3367,2.3669,2.3928,2.4048,2.4075,2.4292,2.4399,2.4399,2.4399,2.4399,2.4399,2.4332,2.3661,2.2719,2.2458,2.2164,2.1897,2.1924,2.1897,2.1884,2.2138,2.2171,2.2124,2.1871,2.147,2.1042,2.0722,2.0882,2.1456,2.2712,2.3052,2.3808,0.0,2.6881,2.7148,2.8631,2.9406,3.0012,3.0461,3.1209,3.1904,3.242,3.2879,3.324,3.3307,3.332,3.332,3.332,3.3093,3.2875,3.2621,3.2835,3.2875,3.2607,3.2305,3.2265,3.2581,3.2072,3.1837,3.2091,3.153,3.1176,3.1176,3.0942,3.0795,3.0795,3.0755,3.0742,3.0728,3.0453,3.0114,2.9833,2.9202,2.8801,2.8631,2.8801,2.8791,2.8551,2.8551,2.8551,2.8524,2.8286,2.8179,2.8179,0.0,0.0,0.0,0.0,0.0,0.0,0.0,0.0,1.5915,1.6257,1.6511,1.6817,1.7166,1.7434,1.7541,1.7367,1.8451,1.9506,2.0428,2.1309,2.2198,2.3027,2.3295,2.3308,2.3067,2.314,2.3207,2.3207,2.3207,2.342,2.3848,2.3972,2.4249,2.4579,2.4836,2.5064,2.5237,2.5358,2.5504,2.5651,2.5651,2.5558,2.5384,2.5211,2.4516,2.3581,2.3113,2.2645,0.0,2.2044,2.1991,2.2031,2.2325,2.2298,2.2151,2.2017,2.1937,2.1964,2.2398,2.2686,2.314,2.4102,2.4983,2.6026,2.7643,2.8136,2.8764,3.0467,3.1223,3.1824,3.2478,3.3026,3.3427,0.0,3.3788,3.3881,3.3708,3.3694,3.3494,3.2973,3.3093,3.3187,3.3066,3.316,3.3187,3.3053,3.2933,3.2919,3.304,3.2701,3.246,3.2407,3.2166,3.1904,3.1744,3.1784,3.1858,3.1858,3.1637,3.1557,3.1543,3.1076,3.0608,3.0154,2.9726,2.9379,2.9112,2.9015,2.8921,2.8815,2.8815,2.8815,2.8761,2.8366,2.8179,2.8179,0.0,0.0,0.0,0.0,0.0,0.0,0.0,0.0,0.0,0.0,1.6244,1.6524,1.7139,1.7434,1.7528,1.734,1.8277,1.9359,2.0374,2.1483,2.2525,2.3509,2.395,2.4098,2.3888,2.4084,2.4165,2.4165,2.4165,2.4329,2.469,2.4903,2.5157,2.5451,2.5745,2.5999,2.6238,2.6319,2.6479,2.6627,2.6547,2.6333,2.6065,2.5571,2.485,2.4008,2.342,2.2752,2.2138,2.1844,2.175,2.179,2.2084,2.2151,2.2111,2.2111,2.2258,2.2579,2.3348,2.3968,2.4649,2.5516,2.6827,2.8112,2.8861,2.9526,3.0421,3.1851,3.2612,3.3177,3.3881,3.4175,3.4322,3.4322,3.4322,3.4215,3.3921,3.3814,3.3454,3.2688,3.2839,3.308,3.316,3.332,3.3414,3.3414,3.3334,3.3334,3.3414,3.3066,3.2848,3.2714,3.2634,3.2487,3.2225,3.2487,3.2594,3.2594,3.2332,3.2225,3.2211,3.161,3.1076,3.0581,3.0287,2.994,2.9593,2.9459,2.9312,2.9108,2.9028,2.9001,2.8921,2.8406,2.8232,2.8299,0.0,0.0,0.0,0.0,0.0,0.0,0.0,0.0,0.0,0.0,0.0,1.6524,1.7139,1.7434,1.7608,1.7595,1.8397,1.9156,1.9786,2.1443,2.2552,2.2907,2.4312,2.477,2.4209,2.4743,2.5074,2.5074,2.5074,2.5369,2.5944,2.5957,2.6105,2.636,2.6653,2.6787,2.6814,2.7108,2.7269,2.7255,2.6921,2.664,2.6279,2.5424,2.4579,2.3736,2.3134,2.2345,2.1569,2.1229,2.1136,2.1189,2.1515,2.1997,2.2405,2.2405,2.2371,2.2485,2.284,2.3991,2.5436,2.6881,2.8353,2.9713,3.0875,3.181,3.2661,3.3227,3.3841,3.4269,3.4295,3.4309,3.4322,3.4322,3.4322,3.4215,3.3921,3.3614,3.32,3.2661,3.2353,3.2251,0.0,3.308,3.3414,3.3414,3.3146,3.312,3.34,3.2915,3.2728,3.2959,3.2741,3.2594,3.2581,3.2594,3.2594,3.2594,3.2581,3.2581,3.2567,3.1979,3.149,3.1183,3.0889,3.0434,2.9927,3.0253,3.0025,2.9446,2.9152,2.9001,2.8921,2.8406,2.8379,2.8551,0.0,0.0,0.0,0.0,0.0,0.0,0.0,0.0,0.0,0.0,0.0,0.0,0.0,0.0,0.0,0.0,1.8223,1.8971,1.9746,2.1269,2.2352,2.288,2.4325,2.4983,2.4783,2.517,2.5558,2.5945,2.5797,2.5959,2.6533,2.6533,2.6694,2.7015,2.7068,2.7228,2.7415,2.7509,2.771,2.7831,2.7094,2.676,2.6533,2.5264,2.4115,2.3094,0.0,2.1582,2.0953,2.0628,2.049,2.0544,2.0913,2.1243,2.167,2.2211,2.2846,2.3629,2.49,2.6293,2.7776,2.9245,3.0614,3.1764,3.2492,3.3213,3.3774,3.3975,3.3708,3.3427,3.3427,3.3427,3.3494,3.3681,3.4215,3.4509,3.4215,3.4082,3.3507,3.2179,3.2385,0.0,0.0,0.0,0.0,3.3387,3.332,3.3307,3.3414,3.3227,3.308,3.2986,3.3066,3.3026,3.2888,3.3026,3.312,3.312,3.2969,3.2674,3.2251,3.2051,3.1797,3.1503,3.1209,3.0862,3.0488,3.044,3.0127,2.9766,2.9659,2.9619,2.9553,2.8951,2.8804,2.8775,0.0,0.0,0.0,0.0,0.0,0.0,0.0,0.0,0.0,0.0,0.0,0.0,0.0,0.0,0.0,0.0,0.0,1.8611,1.9292,2.0508,2.147,2.2091,2.3335,2.4022,2.4128,2.4409,2.481,2.5291,2.5355,2.5625,2.6199,2.652,2.6827,2.7108,2.7255,2.7416,2.7535,2.7428,2.7375,2.7322,2.64,2.5813,2.5386,2.4048,2.2926,0.0,2.1234,2.0712,2.0321,2.0027,1.992,1.9973,2.0267,2.0922,2.1724,2.2498,2.3674,2.5088,2.664,2.8177,2.9713,3.1076,3.2273,3.3196,3.3627,3.4042,3.4255,3.4042,3.3454,3.2879,3.2572,3.2554,3.2572,3.2759,3.3504,3.3986,3.3855,3.3841,3.3374,3.2179,3.2433,3.2412,0.0,0.0,0.0,3.3213,3.336,3.3414,3.3414,3.3414,3.332,3.3146,3.332,3.332,3.3133,3.332,3.3414,3.3414,3.312,3.2732,3.2251,3.2144,3.1944,3.1711,3.1463,3.1223,3.0929,3.0742,3.0434,3.006,2.9953,2.9847,2.97,2.9175,2.8935,2.8775,0.0,0.0,0.0,0.0,0.0,0.0,0.0,0.0,0.0,0.0,0.0,0.0,0.0,0.0,0.0,0.0,0.0,0.0,1.845,1.9292,2.0027,2.0619,2.1515,2.2098,2.2331,2.2672,2.2979,2.3265,2.3861,2.4422,2.5048,2.5852,2.64,2.668,2.6961,2.7122,2.7108,2.6787,2.6346,2.5784,2.4877,2.3986,2.3118,2.201,2.1221,2.0628,2.0054,1.984,1.9773,1.9535,1.9495,1.9602,1.988,2.1149,2.2625,2.3313,2.4943,2.6854,2.8045,2.965,3.1223,3.2407,3.3343,3.4002,3.4269,3.4309,3.4122,3.348,3.3053,3.2532,3.1698,0.0,3.1617,3.1671,3.2233,3.2768,3.3026,3.3066,3.2995,0.0,0.0,0.0,0.0,0.0,0.0,3.3049,0.0,3.3414,3.3414,3.3414,3.3414,3.3414,3.3414,3.3414,3.3414,3.3414,3.3414,3.3414,3.3133,3.2902,3.2607,3.2265,3.1971,3.1738,3.1724,3.1503,3.1176,3.1209,3.0862,3.0373,3.0034,2.974,2.9446,2.9108,2.8815,2.8564,0.0,0.0,0.0,0.0,0.0,0.0,0.0,0.0,0.0,0.0,0.0,0.0,0.0,0.0,0.0,0.0,0.0,0.0,1.8116,1.8985,1.9575,1.9722,2.0993,2.1729,2.181,2.2091,2.2492,2.3014,2.3161,2.3407,2.3781,2.4235,2.4512,2.4556,2.466,2.47,2.47,2.4619,2.4342,2.3941,2.3225,2.2812,2.2552,2.159,2.1122,2.0949,2.0619,2.0307,2.0077,2.001,2.0735,2.1737,2.2225,2.3145,2.4319,2.5825,2.7415,2.9005,3.044,3.1904,3.3227,3.3734,3.4202,3.4496,3.4349,3.4148,3.3694,3.2652,3.133,3.0145,2.9249,2.9637,3.0261,3.0915,3.2438,0.0,3.4293,3.436,0.0,3.328,0.0,3.328,3.2906,3.3066,0.0,0.0,3.3507,3.3414,3.3414,3.3414,3.3414,3.3414,3.3414,3.3414,3.3414,3.3414,3.3414,3.3414,3.3334,3.3146,3.2915,3.2607,3.2326,3.1984,3.1805,3.1503,3.1162,3.0996,3.0688,3.0373,3.0034,2.974,2.9446,2.9108,2.8815,2.8564,0.0,0.0,0.0,0.0,0.0,0.0,0.0,0.0,0.0,0.0,0.0,0.0,0.0,0.0,0.0,0.0,0.0,0.0,0.0,1.8143,1.8545,1.8771,1.9573,2.011,2.0244,2.0494,2.0802,2.1136,2.1523,2.1804,2.1944,2.2539,2.2827,2.284,2.296,2.3027,2.3014,2.288,2.2586,0.0,0.0,2.1309,2.1029,2.0535,2.0428,2.0508,2.0347,2.0762,2.1483,2.2138,2.2785,2.3465,2.4102,2.5213,2.6653,2.803,2.9566,3.1136,3.2367,3.3627,3.4656,3.4696,3.483,3.471,3.3761,3.332,3.2625,3.0915,2.9673,2.862,2.7603,2.8323,2.9299,2.9927,3.1757,0.0,3.4068,3.4295,3.4242,0.0,3.3975,0.0,3.3601,3.3708,3.3881,0.0,3.3788,3.3668,3.3801,3.3694,3.3614,3.3614,3.348,3.3414,3.3414,3.3414,3.3414,3.3414,3.328,3.3133,3.2973,3.2728,3.2433,3.2091,0.0,3.169,3.1396,3.1102,3.0808,3.0574,3.0221,2.994,2.9633,2.9339,2.9045,2.8751,0.0,0.0,0.0,0.0,0.0,0.0,0.0,0.0,0.0,0.0,0.0,0.0,0.0,0.0,0.0,0.0,0.0,0.0,0.0,0.0,1.7461,1.7929,1.7956,1.8076,1.8357,1.8611,1.8703,1.8663,1.9463,1.985,1.9863,2.0708,2.1141,2.1194,2.1435,2.1555,2.151,2.1288,2.0886,2.0391,2.0117,1.976,1.9348,0.0,1.9599,1.9867,1.9987,2.1229,2.3094,2.474,2.5211,2.5253,2.5999,2.7562,2.9312,3.0234,3.161,3.3076,3.3881,3.4857,3.5511,3.5311,3.5164,3.4629,3.2929,3.2131,3.1169,2.8898,2.8138,2.751,2.6413,2.7402,2.8551,2.9028,3.0808,3.2478,3.3547,3.3948,3.4215,3.4456,3.4496,3.4482,3.4442,3.4402,3.4389,3.4429,3.4162,3.4095,3.4309,3.4082,3.3921,3.3881,3.3614,3.3454,3.3414,3.3414,3.3414,3.3414,3.316,3.304,3.3026,3.2781,3.2487,3.2158,3.2118,3.1931,3.165,3.1343,3.1049,3.0768,3.052,3.0154,2.9833,2.9579,2.9272,2.8908,0.0,0.0,0.0,0.0,0.0,0.0,0.0,0.0,0.0,0.0,1.6433,1.6444,0.0,0.0,0.0,0.0,0.0,0.0,0.0,0.0,0.0,1.7662,1.7662,1.7689,1.7742,1.7782,1.7729,1.7488,1.7876,1.805,1.805,1.8436,1.8756,1.9053,1.9107,1.9105,1.9092,1.908,1.9,1.8891,1.9078,1.9063,1.9052,1.9546,0.0,0.0,2.102,2.179,2.2873,2.5331,2.6947,2.815,2.9459,3.0795,3.2139,3.3227,3.3948,3.4458,3.5151,3.5471,3.5565,3.5511,3.5004,3.4068,3.2532,3.1209,2.9766,2.7924,2.668,2.5838,2.5384,2.6306,2.7709,2.9472,3.1076,3.2839,3.4898,3.5297,3.5351,0.0,3.5351,3.5311,3.507,3.483,0.0,0.0,3.4776,3.4523,3.4336,3.4269,3.4135,3.3895,3.3828,3.3681,3.3414,3.3414,3.3414,3.3414,3.336,3.3334,3.332,3.304,3.2795,3.25,3.2211,0.0,3.165,3.1343,3.1049,3.0768,3.052,3.0079,2.9553,2.9499,2.9138,2.8671,0.0,0.0,0.0,0.0,0.0,0.0,0.0,1.6262,1.6475,1.7088,1.7181,1.7074,1.674,1.6567,1.642,0.0,0.0,0.0,0.0,0.0,0.0,1.7367,1.7381,1.7448,1.7608,1.7742,1.7675,1.7394,0.0,1.7742,1.7608,1.7729,1.7876,1.8023,1.8023,1.8023,1.8023,1.8196,1.8236,1.8276,1.8716,1.8983,1.9199,1.9639,0.0,0.0,2.2542,2.4023,2.5504,2.7894,3.0638,3.288,3.2017,3.3609,3.5676,3.4839,3.4977,3.5498,3.5778,3.6086,3.6152,3.5685,3.4857,3.3507,3.1249,2.9713,2.8217,2.6293,2.5413,2.4933,2.4676,2.5825,2.7255,2.8551,3.0007,3.1837,3.4362,3.4576,3.4817,3.5752,3.5859,3.5738,3.5444,3.5297,3.5204,3.5191,3.507,3.4923,3.479,3.4629,3.4349,3.3895,3.3881,3.3734,3.3414,3.3414,3.3414,3.3414,3.3414,3.3414,3.3414,3.3267,3.3053,3.2808,3.2514,3.2171,3.1851,3.1249,3.0915,3.0755,3.0301,2.9953,2.9686,2.9539,2.9299,2.9045,0.0,0.0,0.0,0.0,0.0,0.0,0.0,1.6807,1.7061,1.7769,1.7942,1.7729,1.6981,1.6658,1.6337,0.0,0.0,0.0,0.0,0.0,0.0,0.0,0.0,0.0,1.7515,0.0,0.0,1.7421,1.7702,0.0,0.0,0.0,0.0,0.0,1.7608,1.7608,1.7635,1.7876,1.8049,0.0,0.0,1.9199,1.9522,0.0,0.0,0.0,0.0,2.5119,2.6881,2.9045,3.2396,3.526,3.2715,3.5034,3.8126,3.5472,3.5338,3.6086,3.6153,3.6473,3.658,3.5765,3.4603,3.2879,3.0114,2.8457,2.6961,2.4999,2.4546,2.4452,2.4329,2.5478,2.672,2.7562,2.8791,3.0608,3.34,3.3681,3.4215,3.5872,3.6126,0.0,3.5658,3.5578,0.0,3.5217,3.5191,3.5191,3.5191,3.4976,3.4574,3.4002,3.3921,3.3734,3.3414,3.3414,3.3414,3.3414,3.3414,3.3414,3.3414,3.3414,3.3213,3.2929,3.2688,3.2393,3.1957,3.1263,3.0942,3.0835,3.0314,3.006,2.998,2.9686,2.9539,2.9446,0.0,0.0,0.0,0.0,0.0,0.0,0.0,1.7166,1.7541,1.8651,1.8329,1.7876,1.7542,1.7274,1.6872,0.0,0.0,0.0,0.0,0.0,0.0,0.0,0.0,0.0,0.0,0.0,0.0,1.678,1.7113,0.0,0.0,0.0,0.0,0.0,0.0,1.7608,1.7622,1.7889,0.0,0.0,0.0,0.0,0.0,0.0,0.0,0.0,0.0,2.2525,2.3262,2.5647,2.8545,3.0956,3.0056,3.3596,3.7599,3.5055,3.5177,3.6126,3.6393,3.6313,3.6072,3.5712,3.4135,3.2152,2.9967,2.815,2.6427,2.4906,2.4422,2.4315,2.4519,2.4943,2.5772,2.7428,2.827,2.9833,3.3013,3.3908,3.4696,3.5925,0.0,0.0,3.5685,3.5578,3.5511,3.5217,3.5191,3.5191,3.5191,3.4976,3.4616,3.4295,3.4028,3.3734,3.3414,3.3414,3.3414,3.3414,3.3414,3.3414,3.3414,3.3414,3.3106,3.2634,3.2607,3.2273,0.0,3.1671,3.1436,3.1156,3.0835,3.0555,3.0333,2.998,2.9713,2.9446,0.0,0.0,0.0,0.0,0.0,0.0,1.7072,1.702,1.7368,1.8716,1.8689,1.8503,1.8397,1.7956,1.7221,1.6099,0.0,0.0,0.0,0.0,0.0,0.0,0.0,0.0,0.0,0.0,1.7287,1.6993,1.7287,0.0,0.0,0.0,0.0,0.0,0.0,1.7689,1.7849,1.817,0.0,0.0,0.0,0.0,0.0,0.0,0.0,0.0,0.0,0.0,2.5319,2.6999,2.9441,3.1441,2.9164,3.1232,3.4312,3.3276,3.4068,3.5378,3.5845,3.6393,3.662,3.5618,3.3948,3.2005,2.9726,2.7709,2.5985,2.4826,2.4409,2.4235,2.4356,2.4623,2.5211,2.6493,2.6707,2.7816,3.0875,3.137,3.2305,3.4736,3.5271,3.5631,0.0,0.0,3.5698,3.5231,3.5191,3.5191,3.5191,3.4976,3.4762,3.4589,3.4135,3.3828,3.3694,3.3507,3.3414,3.3414,3.3414,3.3414,3.3414,3.3414,3.3187,3.2848,3.2674,3.2353,0.0,3.1543,3.133,3.1183,3.0715,3.0507,3.0373,3.002,2.9847,2.9726,0.0,0.0,0.0,0.0,0.0,1.6126,1.7072,1.7073,1.7408,1.8637,1.877,1.873,1.8649,1.8009,1.7208,1.6155,1.5901,0.0,0.0,0.0,0.0,0.0,0.0,0.0,0.0,0.0,1.7341,1.7326,1.7595,1.7769,0.0,0.0,1.7809,1.7716,0.0,0.0,0.0,0.0,0.0,0.0,0.0,0.0,0.0,0.0,0.0,0.0,0.0,0.0,0.0,0.0,0.0,2.9535,2.735,2.8236,3.0227,3.0963,3.2639,3.4311,3.495,3.5965,3.658,3.5364,3.3668,3.1791,2.9646,2.7575,2.5877,2.4943,2.4529,2.4329,2.4329,2.4532,2.497,2.5636,2.5732,2.6653,2.9179,2.9579,3.0621,3.3347,3.3921,3.4523,3.5618,3.5778,3.5672,3.5351,3.5244,3.5191,3.5191,3.4843,3.4629,3.4629,3.4148,3.3841,3.3748,3.3521,3.3414,3.3414,3.3414,3.3414,3.3414,3.3414,3.32,3.2888,3.2688,3.242,0.0,3.1557,3.141,3.1423,3.0849,3.0667,3.0568,3.0194,3.0047,3.002,0.0,0.0,0.0,0.0,0.0,0.0,1.7072,1.7421,1.7822,1.841,1.849,1.8384,1.8063,1.7235,1.6714,1.67,1.6142,0.0,0.0,0.0,0.0,0.0,0.0,0.0,0.0,0.0,1.6994,1.7608,1.7862,1.8169,1.8477,1.8477,1.8303,1.7995,0.0,0.0,0.0,0.0,0.0,0.0,0.0,0.0,2.1109,0.0,0.0,0.0,0.0,0.0,0.0,0.0,0.0,0.0,0.0,2.466,2.5677,2.8254,3.0929,3.3133,3.3734,3.4763,3.5445,3.4858,3.32,3.1336,2.982,2.7869,2.6132,2.5264,2.4836,2.4599,2.4599,2.4877,2.5115,2.5128,2.5812,2.6907,2.8404,2.9366,3.0461,3.1944,3.2433,3.2969,3.3828,3.4696,3.5324,3.5605,3.5364,0.0,3.5191,3.4643,3.4322,3.4322,3.4042,3.3734,3.3414,3.3414,3.3414,3.3414,3.3414,3.3414,3.3414,3.3414,3.3093,3.2594,3.2594,3.242,0.0,3.1831,3.1837,3.2038,3.145,3.1176,3.1142,3.0568,3.04,3.0319,0.0,0.0,0.0,0.0,0.0,0.0,0.0,1.646,1.6673,1.7501,1.7421,1.7382,1.7689,1.7114,1.678,1.702,1.6498,0.0,0.0,0.0,0.0,0.0,0.0,0.0,0.0,0.0,1.7421,1.7608,1.8263,1.8597,1.849,1.8691,1.8624,1.8343,1.8343,1.8436,0.0,0.0,0.0,0.0,0.0,2.0855,2.1109,0.0,0.0,0.0,0.0,0.0,0.0,0.0,0.0,0.0,0.0,0.0,0.0,2.5919,2.8497,3.0969,3.137,3.2527,3.3187,3.1797,3.0808,2.974,2.8043,2.6854,2.5877,2.4957,2.4666,2.4599,2.4599,2.4679,2.5037,2.5838,2.6078,2.6573,2.7802,2.8925,3.0234,3.1904,3.3961,3.5204,3.5084,3.5324,3.5444,3.5338,3.5244,3.511,3.4962,3.491,3.483,3.4629,3.3935,3.3614,3.3734,3.3521,3.3414,3.3414,3.3414,3.3414,3.3414,3.3414,3.3093,3.2594,3.2594,3.2313,3.1797,3.1751,3.1764,3.177,3.137,3.1102,3.069,2.8616,2.8787,2.9795,0.0,0.0,0.0,0.0,0.0,0.0,0.0,1.6046,1.6192,1.6779,1.6685,1.6792,1.7381,1.6926,1.6725,1.7166,1.6871,0.0,0.0,0.0,0.0,0.0,0.0,0.0,1.6993,1.7154,1.7528,1.809,1.8758,1.9118,1.9158,1.9452,1.9305,1.8853,1.8853,1.8865,0.0,0.0,0.0,0.0,2.0722,2.0949,2.1109,0.0,0.0,0.0,0.0,0.0,0.0,0.0,0.0,0.0,0.0,0.0,0.0,0.0,2.6253,2.8163,2.9276,3.0641,3.1483,3.0221,2.9619,2.8938,2.7482,2.6533,2.577,2.497,2.4679,2.4599,2.4599,2.4693,2.5037,2.5772,2.6065,2.6533,2.7549,2.8818,3.0301,3.2064,3.4189,3.5418,3.5164,3.5431,3.5551,3.5378,3.5257,3.5124,3.4937,3.4883,3.4776,3.4603,3.4042,3.3801,3.3881,3.3574,3.3414,3.3414,3.3414,3.3414,3.3414,3.3414,3.316,3.2755,3.2755,3.2487,0.0,3.1877,3.1837,3.1797,3.1503,3.0653,2.9449,2.755,2.7079,2.7278,0.0,0.0,0.0,0.0,0.0,0.0,0.0,1.6059,1.627,1.627,1.627,1.6471,1.7045,1.6618,1.6524,1.7125,0.0,0.0,0.0,0.0,0.0,0.0,0.0,0.0,1.6727,1.678,1.7476,1.889,1.9265,1.9706,2.021,2.0535,2.0244,1.9428,1.9428,1.9267,0.0,0.0,0.0,0.0,2.0989,2.1109,0.0,0.0,0.0,0.0,0.0,0.0,0.0,0.0,0.0,0.0,0.0,0.0,0.0,0.0,0.0,0.0,0.0,2.8941,2.9972,2.9593,2.9108,2.8521,2.7682,2.6693,0.0,2.5157,2.4823,2.4613,2.4653,2.489,2.5077,2.5195,2.5852,2.6694,2.7549,2.9058,3.0728,3.2541,3.348,3.4095,3.4322,3.511,3.5538,3.5511,3.5324,3.5151,3.511,3.4603,3.4309,3.4295,3.4282,3.4148,3.3855,3.3561,3.3414,3.3414,3.3414,3.3414,3.3414,3.3414,3.3154,0.0,3.2897,3.2737,3.2235,3.1943,3.192,3.199,3.1376,2.9756,2.7686,2.6852,2.5133,2.3451,0.0,0.0,0.0,0.0,0.0,0.0,0.0,0.0,0.0,0.0,1.5915,1.5968,1.6102,1.6219,1.6444,0.0,0.0,0.0,0.0,0.0,0.0,0.0,0.0,0.0,1.7085,1.7462,1.8089,1.889,1.9637,2.0064,2.021,2.0535,2.0321,1.9693,1.9693,1.9653,0.0,0.0,0.0,0.0,2.0989,2.1109,0.0,0.0,0.0,0.0,2.1502,2.181,0.0,0.0,0.0,0.0,0.0,0.0,0.0,0.0,2.3545,2.3808,2.4619,0.0,2.648,2.5732,2.5945,2.6172,0.0,2.5317,2.5184,2.4823,2.4653,2.4733,2.5186,2.4997,2.5037,2.5932,2.6253,2.6613,2.7322,2.9806,3.2251,3.4079,3.4817,3.507,3.4696,3.5044,3.5204,3.4977,3.491,3.467,3.4215,3.4269,3.4215,3.4002,3.3988,3.3841,3.3521,3.3454,3.3414,3.3414,3.3414,3.3414,3.3414,3.3414,3.2129,2.9968,3.1884,3.1331,2.9055,2.8898,3.0013,3.1376,2.7299,2.6441,2.6917,2.2791,2.1971,2.292,0.0,0.0,0.0,0.0,0.0,0.0,0.0,0.0,0.0,0.0,0.0,0.0,0.0,0.0,0.0,0.0,0.0,0.0,0.0,0.0,0.0,0.0,0.0,1.6645,1.6966,1.7528,1.8263,1.9132,1.9837,2.0344,2.061,2.0967,2.0726,1.9987,1.9853,1.988,0.0,0.0,0.0,2.0895,2.1042,0.0,0.0,0.0,0.0,0.0,2.1328,2.1649,0.0,2.2164,2.2512,2.2893,0.0,0.0,0.0,0.0,2.3113,2.3153,2.3348,2.4315,2.5197,2.473,2.5064,2.5398,2.4943,2.4756,2.4596,2.4302,2.4342,2.4543,2.485,2.4877,2.513,2.6078,2.6573,2.7416,2.9102,3.0915,3.2812,3.4736,3.5244,3.5364,3.5177,3.5311,3.5271,3.4977,3.4895,3.4681,3.4309,3.4175,3.4055,3.3895,3.3748,3.3654,3.3627,3.348,3.3414,3.3414,3.3414,3.3414,3.3414,3.3414,3.1843,2.9247,3.1847,3.1131,2.8211,2.8179,2.8874,2.9529,2.548,2.3896,2.3609,2.0616,1.9504,1.9613,0.0,0.0,0.0,0.0,0.0,0.0,0.0,0.0,0.0,0.0,0.0,0.0,0.0,0.0,0.0,0.0,0.0,0.0,0.0,0.0,0.0,0.0,1.6672,1.6794,1.6834,1.7422,1.8291,1.9401,1.9987,2.0544,2.1122,2.1489,2.1181,2.0264,2.0094,2.005,0.0,0.0,0.0,2.1109,2.1109,0.0,0.0,0.0,0.0,0.0,0.0,0.0,0.0,2.1957,2.2345,2.2827,2.2773,0.0,0.0,0.0,0.0,0.0,2.2987,2.4017,2.4983,2.485,2.5104,2.5291,2.4957,2.4502,2.4075,2.391,2.4035,2.4275,2.4489,2.4877,2.5384,2.6145,2.7001,2.8593,3.151,3.2078,3.2959,3.4897,3.5177,3.5271,3.5471,3.5498,3.5378,3.5084,3.479,3.4668,3.4614,3.4082,3.3814,3.3814,3.3547,3.3534,3.3814,3.3132,3.2799,3.2799,3.2799,3.2799,3.2799,3.2799,3.1265,2.88,0.0,0.0,2.7174,2.7304,2.7327,2.6902,2.388,2.1588,1.9928,1.9179,1.7487,1.5925,0.0,0.0,0.0,0.0,0.0,0.0,0.0,0.0,0.0,0.0,0.0,0.0,0.0,0.0,0.0,0.0,0.0,0.0,0.0,0.0,0.0,1.7085,1.7112,1.722,1.7474,1.8036,1.8719,1.9401,2.0231,2.0775,2.1122,2.167,2.1489,2.0615,2.0815,2.0624,2.0237,0.0,0.0,2.1109,2.1109,0.0,0.0,0.0,0.0,0.0,0.0,0.0,0.0,2.1649,2.2004,2.2445,2.2191,0.0,0.0,0.0,0.0,0.0,2.3388,2.4155,2.4492,2.3745,2.4159,2.4599,2.4088,2.3937,2.3888,2.4102,2.4168,2.4583,2.5825,2.5718,2.5879,2.7215,2.819,2.97,3.2398,3.2862,3.3334,3.4721,3.5044,3.5124,3.491,3.4897,3.4776,3.4482,3.4189,3.3908,3.3627,3.3534,3.348,3.348,3.344,3.3427,3.348,3.1126,2.9939,2.9939,2.9939,2.9939,2.9939,2.9939,2.8444,2.5809,0.0,2.4247,2.162,2.143,2.2573,2.4026,1.9158,1.8426,1.9691,1.7132,1.5925,1.5925,0.0,0.0,0.0,0.0,0.0,0.0,0.0,0.0,0.0,0.0,0.0,0.0,0.0,0.0,0.0,0.0,0.0,0.0,0.0,0.0,1.8036,1.813,1.8103,1.797,1.7622,1.8518,1.9361,2.011,2.0833,2.1489,2.2091,2.1877,2.1489,2.0909,2.0882,2.0722,2.0508,2.0922,2.1109,2.1109,0.0,0.0,0.0,0.0,0.0,0.0,0.0,0.0,0.0,0.0,2.197,2.2331,2.2071,0.0,0.0,0.0,0.0,0.0,2.2846,2.3594,2.4115,2.3861,2.4583,2.5197,2.4646,2.4356,2.4329,2.4609,2.4796,2.5211,2.6213,2.6734,2.7563,2.9312,3.0087,3.1049,3.2746,3.2973,3.336,3.4402,3.479,3.4977,3.499,3.4909,3.4762,3.4576,3.4135,3.3828,3.3681,3.3507,3.3414,3.3414,3.3414,3.3414,3.3414,3.0647,3.004,3.1517,3.1517,3.1517,3.1466,2.9989,2.7782,2.5194,0.0,2.3099,2.0368,2.0249,2.0852,2.1392,1.7593,1.6814,1.7711,1.6265,1.5703,1.5953,0.0,0.0,0.0,0.0,0.0,0.0,0.0,0.0,0.0,0.0,0.0,0.0,0.0,0.0,0.0,0.0,0.0,0.0,0.0,1.8062,1.8356,1.8876,1.9023,1.8838,1.8223,1.9105,2.003,2.0913,2.1502,2.2238,2.3094,2.2278,2.1689,2.1309,2.1047,2.0833,2.0726,2.0989,2.1109,2.1122,0.0,0.0,0.0,0.0,0.0,0.0,0.0,0.0,0.0,0.0,0.0,0.0,0.0,0.0,0.0,2.201,2.1917,2.2037,2.2579,2.3247,2.3897,2.4209,2.493,2.5556,2.5411,2.5104,2.4959,2.5571,2.5865,2.6186,2.6707,2.7857,2.9262,3.0942,3.1704,3.2398,3.333,3.34,3.3681,3.4429,3.4723,3.4923,3.5084,3.483,3.4681,3.4614,3.4068,3.3774,3.3774,3.3547,3.3414,3.3414,3.3414,3.3414,3.3414,3.0647,3.0343,3.2435,3.2435,3.2396,3.2231,2.9528,2.7101,2.4941,2.3555,2.1617,1.9418,1.9392,1.928,1.8904,1.6864,1.6062,1.6058,1.5859,1.571,1.5815,0.0,0.0,0.0,0.0,0.0,0.0,0.0,0.0,0.0,0.0,0.0,0.0,0.0,0.0,0.0,0.0,0.0,0.0,0.0,1.8276,1.8597,1.8876,1.9452,1.9826,2.001,2.0104,2.0601,2.1561,2.2071,2.2819,2.3723,2.3094,2.2492,2.1911,2.1649,2.1221,2.0726,2.0989,2.1109,2.1136,2.1435,0.0,0.0,0.0,0.0,0.0,0.0,0.0,0.0,0.0,0.0,0.0,0.0,0.0,2.1997,2.1703,2.1622,2.193,2.3335,2.375,2.3901,2.4426,2.4462,2.4676,2.5999,2.5852,2.5838,2.7228,2.7522,2.7642,2.8005,2.9262,3.0467,3.1116,3.235,3.3627,3.4561,3.4695,3.4815,3.5097,3.5151,3.507,3.4869,3.4523,3.4242,3.3975,3.3641,3.344,3.344,3.3427,3.3414,3.3414,3.3414,3.3414,3.3414,3.0647,2.942,2.9572,2.9572,2.9442,2.9143,2.6519,2.5042,2.4277,1.9144,1.6781,1.6616,1.6457,1.6388,1.6374,1.6182,1.5995,1.5901,1.571,1.5512,1.5404,0.0,0.0,0.0,0.0,0.0,0.0,0.0,0.0,0.0,0.0,0.0,0.0,0.0,0.0,0.0,0.0,0.0,0.0,0.0,1.8424,1.8784,1.9439,1.9853,2.017,2.0508,2.0869,2.1577,2.2659,2.3385,2.3794,2.379,2.2953,2.2271,2.1743,2.1435,2.1288,2.1248,2.1136,2.1216,2.1422,2.1542,2.1408,0.0,0.0,0.0,0.0,0.0,0.0,0.0,0.0,2.1435,2.1555,2.1336,2.1636,2.1957,2.1676,2.1582,2.1743,2.2492,2.3241,2.395,2.4452,2.497,2.5531,2.6453,2.7068,2.7749,2.8845,2.9366,2.9659,2.9766,3.0748,3.1637,3.2225,3.3414,3.4442,3.4963,3.503,3.5004,3.4937,3.4923,3.4817,3.4509,3.4229,3.4002,3.3895,3.3587,3.3414,3.3414,3.3414,3.3414,3.3414,3.3414,3.3414,3.3414,3.0647,2.9319,2.9268,2.7474,2.7442,2.8869,2.4326,2.2205,2.188,1.7963,1.6307,1.63,1.6144,1.6083,1.6083,1.6083,1.6049,1.603,1.5825,1.5737,1.5649,0.0,0.0,0.0,0.0,0.0,0.0,0.0,0.0,0.0,0.0,0.0,0.0,0.0,0.0,0.0,0.0,0.0,0.0,1.8437,1.849,1.8878,1.976,1.9987,2.0321,2.0833,2.1422,2.2231,2.3292,2.4266,2.4382,2.3621,2.2993,2.2445,2.1984,2.1563,2.1496,2.1703,2.1376,2.1341,2.1462,2.1649,2.1542,0.0,0.0,0.0,0.0,0.0,0.0,0.0,0.0,2.1355,2.1422,2.1315,2.159,2.1957,2.1676,2.1783,2.2037,2.2238,2.3041,2.395,2.4452,2.5438,2.648,2.7442,2.8364,2.9406,3.0742,3.0969,3.0955,3.1049,3.149,3.2078,3.2853,3.4039,3.4882,3.503,3.5057,3.495,3.4656,3.4629,3.4509,3.4215,3.4002,3.3841,3.3748,3.3534,3.3414,3.3414,3.3414,3.3414,3.3414,3.3414,3.3414,3.3414,2.9825,2.8444,2.9268,2.5367,2.4971,2.7481,2.2684,2.0468,2.025,1.7465,1.6239,1.6232,1.6123,1.6083,1.6083,1.6083,1.6083,1.6056,1.5859,1.5833,1.5744,0.0,0.0,0.0,0.0,0.0,0.0,0.0,0.0,0.0,0.0,0.0,0.0,0.0,0.0,0.0,0.0,0.0,0.0,1.8437,1.849,1.8878,1.9746,1.98,2.0214,2.1082,2.1683,2.2432,2.3292,2.4489,2.4462,2.3278,2.3278,2.3153,2.2853,2.2278,2.1991,2.1964,2.1703,2.1422,2.1162,2.175,2.185,2.1622,0.0,0.0,0.0,0.0,0.0,0.0,0.0,2.1381,2.1162,2.1489,2.1796,2.197,2.1676,2.2211,2.2893,2.2893,2.3335,2.395,2.4466,2.5706,2.7308,2.9098,2.9726,3.0595,3.2933,3.2251,3.133,3.1671,3.1436,3.1623,3.2786,3.4026,3.4802,3.4815,3.4815,3.4643,3.4349,3.4322,3.4202,3.3857,3.3881,3.3697,3.339,3.3364,3.3364,3.3414,3.3364,3.3314,3.3364,3.33,3.33,3.33,2.7862,2.6536,2.9155,2.3194,2.1789,2.4387,2.1641,2.0264,1.9831,1.7204,1.6083,1.6083,1.6083,1.6083,1.6083,1.6083,1.6083,1.6042,1.5695,1.5587,1.5546,0.0,0.0,0.0,0.0,0.0,0.0,0.0,0.0,0.0,0.0,0.0,0.0,0.0,0.0,0.0,0.0,0.0,0.0,1.8464,1.849,1.8691,1.913,1.9743,2.0104,2.0187,2.1376,2.2525,2.3634,2.4031,2.3661,2.2652,2.2652,2.2418,2.1984,2.2191,2.2178,2.1964,2.1703,2.1529,2.1489,2.1863,2.185,2.1636,0.0,0.0,0.0,0.0,0.0,0.0,0.0,0.0,0.0,2.1489,2.2191,2.2792,2.2071,2.2485,2.3046,2.2418,2.3027,2.4044,2.4997,2.668,2.8591,3.0568,3.0929,3.1396,3.3347,3.3066,3.2425,3.2353,3.2433,3.2505,3.2701,3.3557,3.4215,3.4429,3.4456,3.4349,3.4055,3.4015,3.317,3.0857,3.068,3.0643,3.0495,2.8749,2.9307,3.32,2.9712,2.8546,3.0445,2.8564,2.7504,2.7504,2.3799,2.2365,2.3115,1.9317,1.9025,2.172,2.0604,1.9058,1.7204,1.6424,1.6083,1.6083,1.6083,1.6083,1.6069,1.601,1.5969,1.5935,1.5588,1.5479,1.5452,0.0,0.0,0.0,0.0,0.0,0.0,0.0,0.0,0.0,0.0,1.7608,1.7769,0.0,0.0,0.0,0.0,0.0,0.0,0.0,1.849,1.8677,1.9078,1.969,2.0147,2.0321,2.1523,2.2392,2.292,2.3402,2.3126,2.2258,2.2739,2.2766,2.2492,2.3046,2.2972,2.2498,2.2238,2.1903,2.1622,2.2024,2.2058,2.1937,0.0,0.0,0.0,0.0,0.0,0.0,0.0,0.0,0.0,2.1355,2.1951,2.2565,2.2245,2.2619,2.3153,2.3241,2.3777,2.4727,2.6333,2.7856,2.9526,3.1738,3.2505,3.3146,3.4336,3.3921,3.336,3.3464,3.3143,3.2955,3.325,3.3614,3.3948,3.4122,3.4148,3.4028,3.3734,3.3694,3.2958,3.1126,2.9939,2.9319,2.9319,2.6751,2.6649,2.9977,2.7006,2.5942,2.7536,2.5915,2.4982,2.4941,2.2044,2.0587,2.0578,1.8718,1.8242,1.8874,1.86,1.7593,1.6083,1.6083,1.6049,1.5995,1.6056,1.6049,1.603,1.5942,1.5867,1.5737,1.5499,1.5411,1.5391,0.0,0.0,0.0,0.0,0.0,0.0,0.0,0.0,0.0,0.0,1.7608,1.7702,0.0,0.0,0.0,0.0,0.0,0.0,0.0,1.8531,1.8784,1.9374,1.972,2.0321,2.1176,2.1951,2.2071,2.1542,2.2645,2.2766,2.201,2.3201,2.3763,2.379,2.4315,2.4052,2.3225,2.2934,2.2305,2.1596,2.2111,2.2338,2.2338,2.2331,0.0,0.0,0.0,0.0,0.0,0.0,0.0,0.0,2.1216,2.1462,2.181,2.2298,2.2712,2.3322,2.474,2.5181,2.5772,2.8136,2.9312,3.0461,3.2679,3.4229,3.5257,3.5471,3.471,3.4148,3.4629,3.3664,3.3089,3.4068,3.4015,3.3841,3.3841,3.3841,3.3734,3.344,3.32,3.2949,3.2686,3.018,2.8546,2.8523,2.6003,2.4661,2.5154,2.4693,2.444,2.4598,2.4325,2.4165,2.4008,2.1475,2.0158,2.0158,1.9925,1.8563,1.6246,1.638,1.6325,1.6083,1.6083,1.5995,1.5915,1.6051,1.6017,1.5881,1.5867,1.5737,1.5553,1.5445,1.5391,1.5371,0.0,0.0,0.0,0.0,0.0,0.0,0.0,0.0,0.0,0.0,0.0,0.0,0.0,0.0,0.0,0.0,0.0,0.0,0.0,1.8796,1.8998,1.9388,2.0307,2.1136,2.1777,2.1796,2.1596,2.1203,2.1924,2.2091,2.1703,2.2859,2.342,2.3434,2.3794,2.3581,2.2947,2.2184,2.1622,2.1229,2.1622,2.177,2.1796,2.2024,2.193,0.0,0.0,0.0,0.0,0.0,0.0,0.0,2.1991,2.2338,2.2639,2.276,2.3348,2.4088,2.49,2.5585,2.668,2.9045,3.1303,3.3253,3.4442,3.4963,3.5084,3.4683,3.4763,3.4817,3.4482,3.4148,3.3868,3.3641,3.3547,3.3507,3.3507,3.3507,3.3494,3.3414,3.1517,2.9319,2.7159,2.4495,2.2833,2.2728,2.012,2.0405,2.4639,2.0756,1.9331,2.1498,1.9367,1.8179,1.8149,1.7347,1.6919,1.6919,1.6671,1.6307,1.584,1.812,1.8031,1.6083,1.6083,1.5995,1.5901,1.5935,1.5818,1.5676,1.5554,1.5486,1.5438,1.5289,1.5228,1.5228,0.0,0.0,0.0,0.0,0.0,0.0,0.0,0.0,0.0,0.0,0.0,0.0,0.0,0.0,0.0,0.0,0.0,0.0,0.0,0.0,1.9156,1.976,2.0775,2.1403,2.1563,2.1596,2.1435,2.1109,2.1416,2.1596,2.1609,2.2766,2.3407,2.3554,2.3995,2.3688,2.2853,2.2251,2.171,2.1381,2.1676,2.1796,2.181,2.1957,2.1836,2.1569,2.1422,0.0,0.0,0.0,0.0,0.0,0.0,0.0,2.2586,2.3161,2.3669,2.4302,2.5784,2.6707,2.7871,3.0341,3.2438,3.4002,3.4469,3.467,3.4683,3.4376,3.467,3.4897,3.4589,3.4295,3.4015,3.3694,3.3507,3.3414,3.3414,3.2284,3.1466,3.1466,2.9003,2.6751,2.5317,2.27,2.1027,2.0884,1.8277,1.7902,2.0696,1.8076,1.7145,1.852,1.702,1.6164,1.609,1.5866,1.575,1.575,1.5627,1.5593,1.5642,1.7191,1.7123,1.5764,1.5839,1.5784,1.5649,1.5716,1.5662,1.552,1.5445,1.5364,1.5289,1.5215,1.514,1.5092,0.0,0.0,0.0,0.0,0.0,0.0,0.0,0.0,0.0,0.0,0.0,0.0,0.0,0.0,0.0,0.0,0.0,0.0,0.0,0.0,0.0,2.0237,2.1141,2.1489,2.1269,2.1435,2.1395,2.1109,2.1056,2.1269,2.1756,2.2766,2.3407,2.375,2.4142,2.3754,2.28,2.2365,2.1911,2.1529,2.177,2.183,2.183,2.183,2.1716,2.1475,2.1203,2.1149,2.1229,2.1555,0.0,0.0,0.0,0.0,2.2251,2.3388,2.3763,2.4272,2.6426,2.7777,2.9169,3.1637,3.308,3.3895,3.3948,3.4148,3.4322,3.4322,3.4458,3.4618,3.4616,3.4215,3.3868,3.3814,3.3587,3.3414,3.3414,3.1013,2.926,2.926,2.64,2.4429,2.4429,2.193,2.0264,2.0135,1.7939,1.6554,1.6456,1.6442,1.6381,1.6239,1.611,1.6017,1.5867,1.5669,1.5539,1.5512,1.5485,1.5492,1.5512,1.5512,1.552,1.5459,1.5539,1.5506,1.5418,1.5499,1.5506,1.5371,1.5343,1.5269,1.5181,1.5153,1.5086,1.5071,0.0,0.0,0.0,0.0,0.0,0.0,0.0,0.0,0.0,0.0,1.7608,0.0,0.0,0.0,0.0,0.0,0.0,0.0,1.8836,0.0,0.0,2.0632,2.1248,2.1689,2.1871,2.1403,2.1149,2.1109,2.0855,2.1269,2.2311,2.276,2.3086,2.3345,2.3193,2.2873,2.2432,2.1617,2.1243,2.1176,2.1216,2.1229,2.1229,2.1229,2.1203,2.1162,2.1122,2.1269,2.1569,2.1863,2.1957,0.0,0.0,0.0,2.2164,2.3113,2.3567,2.4098,2.5384,2.7856,3.056,3.2447,3.3374,3.3948,3.4202,3.4295,3.4322,3.4322,3.4349,3.4309,3.4055,3.3935,3.3801,3.3521,3.344,3.3414,3.3414,3.0952,2.9128,2.9128,2.4437,2.1212,2.1212,1.8747,1.7079,1.6931,1.657,1.63,1.6151,1.6137,1.6069,1.5969,1.5942,1.5811,1.5621,1.5513,1.5371,1.5242,1.512,1.5126,1.5242,1.5242,1.5377,1.556,1.558,1.5506,1.5411,1.5432,1.535,1.5201,1.5079,1.5092,1.5167,1.5091,1.5112,1.516,0.0,0.0,0.0,0.0,0.0,0.0,0.0,0.0,0.0,0.0,0.0,1.7769,0.0,0.0,0.0,1.7796,1.8156,1.8543,1.8876,1.9599,2.012,2.0414,2.0842,2.1234,2.1483,2.1082,2.0949,2.1109,2.0815,2.1456,2.2892,2.306,2.346,2.3999,2.3407,2.2953,2.2592,2.155,2.1109,2.1109,2.1109,2.1109,2.1109,2.1109,2.1109,2.1109,2.1109,0.0,2.1376,2.1863,2.1991,2.2117,2.2706,0.0,0.0,0.0,2.3647,2.4516,2.6854,2.8778,3.0568,3.2492,3.3173,3.3454,3.3748,3.3814,3.3814,3.3814,3.3814,3.3828,3.3881,3.3748,3.3521,3.3213,3.3173,3.3106,3.2946,2.9226,2.6493,2.6493,2.164,1.8279,1.8279,1.7225,1.6429,1.6198,1.6259,1.6171,1.5852,1.5913,1.5886,1.5737,1.5649,1.5574,1.5513,1.5282,1.5086,1.493,1.4869,1.4875,1.4936,1.4936,1.5099,1.5384,1.5384,1.5343,1.5282,1.5282,1.5194,1.5112,1.5126,1.5025,1.495,1.5052,1.5025,1.4957,0.0,0.0,0.0,0.0,0.0,0.0,0.0,0.0,0.0,0.0,0.0,0.0,0.0,0.0,0.0,0.0,1.7889,1.8263,1.885,1.9479,1.9893,2.0077,2.0481,2.0748,2.0882,2.0748,2.0806,2.1002,2.0806,2.1657,2.3519,2.3519,2.4182,2.5251,2.4119,2.3367,2.284,2.1844,2.1483,2.1523,2.1229,2.1109,2.1109,2.1109,2.1109,2.1109,2.1109,0.0,0.0,0.0,0.0,2.1997,2.2519,2.2719,0.0,0.0,0.0,2.4489,2.7321,2.8588,2.9619,3.169,3.2478,3.2853,3.3213,3.336,3.3414,3.3414,3.3414,3.348,3.3721,3.3507,3.3027,3.2157,3.1954,3.1627,3.0758,2.6485,2.3459,2.3459,1.9285,1.6395,1.6354,1.632,1.6205,1.5988,1.6035,1.5954,1.5607,1.5744,1.573,1.5539,1.5432,1.5337,1.5303,1.5004,1.4814,1.4694,1.4654,1.466,1.4694,1.4694,1.4862,1.5072,1.5072,1.5072,1.5072,1.5072,1.5004,1.4916,1.4984,1.4923,1.4814,1.4957,1.4923,1.4782,0.0,0.0,0.0,0.0,0.0,0.0,0.0,0.0,0.0,0.0,0.0,0.0,1.7969,1.7982,1.7982,1.7969,1.7982,1.8263,1.885,1.9479,1.9813,1.9826,2.0405,0.0,2.025,2.0535,2.0712,2.0726,2.0712,2.1871,2.4155,2.4155,2.5224,2.7095,2.5331,2.3928,2.288,2.2498,2.2512,2.2706,2.1563,2.1109,2.1109,2.1109,0.0,0.0,0.0,0.0,0.0,0.0,0.0,0.0,0.0,0.0,2.2445,0.0,0.0,0.0,2.5197,2.6333,2.7441,2.9553,3.1116,3.2305,3.2866,3.3213,3.3414,3.3414,3.3414,3.3414,3.3427,3.32,3.2181,2.9693,2.9079,2.8061,2.5535,2.2525,2.0632,2.0632,1.7968,1.6049,1.5949,1.5764,1.5627,1.5614,1.5485,1.5513,1.5587,1.56,1.5533,1.5425,1.5276,1.5126,1.5044,1.4685,1.4559,1.4694,1.459,1.4597,1.4694,1.4694,1.4701,1.4714,1.4714,1.4714,1.4714,1.4714,1.4714,1.4694,1.4597,1.4713,1.4969,1.4645,1.4719,1.4943,0.0,0.0,0.0,0.0,0.0,0.0,0.0,0.0,0.0,0.0,0.0,0.0,0.0,1.7995,1.7995,1.7995,1.8356,1.8676,1.8876,1.9292,1.9599,1.9786,2.0187,2.0428,2.0521,2.0646,2.0762,2.0949,2.0762,2.1622,2.3388,2.3741,2.4422,2.5277,2.4636,2.4222,2.3888,2.2271,2.175,0.0,0.0,0.0,0.0,0.0,0.0,0.0,0.0,0.0,0.0,0.0,0.0,0.0,0.0,0.0,0.0,2.2191,2.2485,2.3201,2.4532,2.5598,2.676,2.8788,3.0181,3.1142,3.1717,3.2372,3.2848,3.2612,3.2866,3.308,3.2942,3.1558,3.0131,2.9006,2.7082,2.5386,2.4358,2.1781,2.0051,2.0112,1.7681,1.5962,1.5908,1.5635,1.5452,1.535,1.5296,1.5248,1.5215,1.5208,1.5187,1.5133,1.4977,1.4828,1.4679,1.4563,1.4496,1.4455,1.4401,1.4407,1.4462,1.4462,1.4462,1.4462,1.4462,1.4518,1.4694,1.4694,1.4633,1.4597,1.4593,1.4611,1.455,1.4631,1.4681,1.4828,0.0,0.0,0.0,0.0,0.0,0.0,0.0,0.0,0.0,0.0,0.0,0.0,0.0,0.0,1.8276,1.8183,1.8609,1.889,1.889,1.9199,1.9481,1.9639,1.9997,2.025,2.0418,2.0605,2.0806,2.0962,2.0806,2.1462,2.2907,2.3308,2.3817,2.4329,2.3928,2.4142,2.4676,2.2972,0.0,2.2412,0.0,0.0,2.1563,0.0,0.0,0.0,0.0,0.0,0.0,0.0,0.0,0.0,0.0,0.0,0.0,0.0,0.0,2.2913,2.3794,2.469,2.5865,2.7936,2.8885,2.9704,3.0929,3.153,3.1938,3.2185,3.2478,3.2692,3.2741,2.9799,2.7376,2.7169,2.4636,2.2286,2.126,1.9554,1.8414,1.8524,1.6901,1.5744,1.5683,1.5404,1.5201,1.5045,1.4984,1.4936,1.4896,1.4943,1.495,1.4896,1.4746,1.459,1.4441,1.4441,1.4394,1.4299,1.4299,1.4299,1.4299,1.4299,1.4299,1.4299,1.4299,1.4414,1.459,1.459,1.4529,1.4448,1.455,1.4502,1.4387,1.4536,1.4613,1.4701,0.0,0.0,0.0,0.0,0.0,0.0,0.0,0.0,0.0,1.8022,0.0,0.0,0.0,0.0,0.0,1.8544,1.8784,1.8916,1.8916,1.9212,1.9401,1.9401,1.992,2.0064,1.9813,2.0388,2.0726,2.0726,2.0726,2.1448,2.284,2.2867,2.346,2.4479,2.3429,2.3723,2.501,0.0,2.4359,2.4008,0.0,2.1957,2.2451,0.0,0.0,0.0,2.3305,2.3153,0.0,0.0,0.0,0.0,0.0,0.0,0.0,0.0,0.0,0.0,0.0,0.0,0.0,2.6707,2.7242,2.7938,3.0488,3.0662,3.0675,3.2096,3.2128,3.2115,3.2701,2.8005,2.4005,2.4082,2.159,1.8729,1.5994,1.5587,1.558,1.5587,1.558,1.5506,1.5208,1.5052,1.4903,1.4701,1.459,1.457,1.4681,1.4875,1.4889,1.4687,1.4539,1.4441,1.4299,1.4299,1.4299,1.4299,1.4299,1.4299,1.4299,1.4299,1.4299,1.4299,1.4299,1.4299,1.4299,1.4299,1.4299,1.4299,1.4299,1.4387,1.4489,1.4353,1.4482,1.4667,0.0,0.0,0.0,0.0,0.0,0.0,1.8784,1.8557,1.8423,0.0,0.0,0.0,1.889,1.9118,1.9241,1.916,1.9386,1.9466,1.9265,1.9348,1.9401,1.9401,1.992,2.017,2.0077,2.0681,2.0989,2.0989,2.0989,2.1203,2.1603,2.2031,2.2512,2.3012,2.3367,2.3621,2.3741,2.2579,0.0,2.3174,2.2037,2.2331,0.0,0.0,0.0,0.0,0.0,2.3861,2.4075,0.0,2.3701,2.3794,0.0,0.0,0.0,0.0,0.0,0.0,2.2205,0.0,0.0,0.0,0.0,0.0,2.7455,2.7936,2.8001,2.7451,2.7521,2.7899,2.8588,2.4649,2.1742,2.3101,1.9526,1.6364,1.5677,1.5445,1.5391,1.5566,1.5445,1.5276,1.5194,1.495,1.474,0.0,1.4441,1.4421,1.457,1.4618,1.457,1.4428,1.438,1.434,1.4299,1.4299,1.4299,1.4299,1.4299,1.4299,1.4299,1.4299,1.4299,1.4299,1.4299,1.4299,1.4299,1.4299,1.4299,1.4299,1.4299,1.4326,1.4353,1.4312,1.4414,1.4539,0.0,0.0,0.0,0.0,0.0,1.9397,1.9276,1.9252,1.9239,0.0,0.0,0.0,1.9437,1.9733,1.9896,1.9733,1.9773,1.9733,1.9589,1.9468,1.9401,1.9401,1.9813,2.0077,2.0197,2.053,2.0869,2.1109,2.0989,2.0989,2.1122,2.1456,2.171,2.1897,2.2418,2.2565,2.2352,2.147,0.0,0.0,2.2479,0.0,0.0,2.3955,2.4369,0.0,0.0,0.0,2.5386,2.4649,2.4449,0.0,0.0,0.0,0.0,0.0,0.0,0.0,0.0,0.0,0.0,0.0,0.0,0.0,2.66,2.6867,2.6821,2.7009,2.7174,2.7508,2.8315,2.5208,2.295,2.4141,2.0862,1.7523,1.5628,1.5208,1.5133,1.5201,1.5106,1.497,1.4909,1.4746,1.4539,1.4434,1.4346,1.436,1.4502,1.4455,1.4414,1.4387,1.4333,1.4299,1.4299,1.4299,1.4299,1.4299,1.4299,1.4299,1.4299,1.4299,1.4299,1.4299,1.4299,1.4299,1.4299,1.4299,1.4299,1.4299,1.4299,1.4299,1.4299,1.4299,1.4428,1.4611,0.0,0.0,2.0224,2.029,2.0304,2.021,1.9987,2.013,2.021,0.0,2.0144,2.0317,2.0384,2.0601,2.0615,2.0317,2.0067,1.9867,1.98,1.9589,1.9428,1.9401,1.9679,1.9973,2.0197,2.0264,2.0557,2.1109,2.0855,2.0855,2.1109,2.1109,2.1109,2.1109,2.1109,2.1109,2.1109,0.0,0.0,2.288,2.3153,2.3839,0.0,0.0,2.6306,2.6867,2.6867,2.6854,2.668,2.5066,2.4095,0.0,0.0,0.0,0.0,0.0,2.2044,0.0,0.0,0.0,0.0,0.0,0.0,0.0,2.676,2.6507,2.6387,2.8248,2.8412,2.8517,2.9488,2.7243,2.5393,2.5823,2.3722,2.0516,1.6012,1.5412,1.5211,1.4753,1.4681,1.4613,1.4523,1.4509,1.4455,1.4312,1.4299,1.4353,1.4482,1.4367,1.436,1.4482,1.4367,1.4299,1.4299,1.4299,1.4299,1.4299,1.4299,1.4299,1.4299,1.4299,1.4299,1.4299,1.4299,1.4299,1.4299,1.4299,1.4299,1.4299,1.4299,1.4299,1.4299,1.4299,1.4468,1.4626,0.0,2.0361,2.0357,2.0824,2.0904,2.0922,2.0855,2.0895,2.0922,2.0855,2.0895,2.1122,2.159,2.1269,2.1002,2.0949,2.0668,2.0338,1.9826,1.9746,1.9642,1.9401,1.9867,2.0144,2.0197,2.0664,2.0989,2.1109,2.1056,2.1056,2.1109,2.1109,2.1109,2.1109,2.1109,2.1109,2.1136,2.1617,0.0,2.2539,2.2867,0.0,2.573,2.5625,2.6253,2.7175,2.7175,2.7335,2.7195,0.0,2.3176,2.1972,0.0,0.0,0.0,0.0,0.0,0.0,0.0,0.0,0.0,0.0,0.0,0.0,2.4636,2.4716,2.4578,2.3526,2.3376,2.376,2.4753,2.3303,2.2336,2.3588,2.2653,2.0888,1.8263,1.7791,1.6976,1.4922,1.4586,1.4543,1.4516,1.4509,1.4455,1.4312,1.4299,1.4312,1.434,1.4319,1.4312,1.434,1.4312,1.4299,1.4299,1.4299,1.4299,1.4299,1.4299,1.4299,1.4299,1.4299,1.4299,1.4299,1.4299,1.4299,1.4299,1.4299,1.4299,1.4299,1.4299,1.4299,1.4299,1.4299,1.434,1.4401,2.0672,2.0668,2.0815,2.1256,2.1456,2.155,2.155,2.167,2.1764,2.1764,2.1884,2.1991,2.1991,2.1724,2.1483,2.1368,2.0967,2.0579,0.0,1.996,1.9733,1.9615,1.9867,2.016,2.0441,2.0748,2.1042,2.1368,2.1189,2.1109,2.1109,2.1109,2.0949,2.065,2.0975,2.0949,2.0677,2.1296,2.1804,2.2298,2.3327,0.0,2.6024,2.6319,2.6974,2.775,2.775,2.6976,2.5533,2.2658,2.2168,0.0,0.0,2.2791,2.4636,0.0,2.3656,2.3937,0.0,0.0,0.0,2.4596,0.0,0.0,0.0,2.4409,2.4159,2.3945,2.3612,2.3623,2.4612,2.3851,2.3487,2.4798,2.4717,2.3808,2.1897,1.9641,1.729,1.4896,1.4496,1.4407,1.4407,1.4407,1.4373,1.4306,1.4299,1.4299,1.4299,1.4299,1.4299,1.4299,1.4299,1.4299,1.4299,1.4299,1.4299,1.4299,1.4299,1.4299,1.4299,1.4299,1.4299,1.4299,1.4299,1.4299,1.4299,1.4299,1.4299,1.4299,1.4299,1.4299,1.4299,1.4299,1.4346,1.4407,2.0793,2.0949,2.1203,2.1529,2.1877,2.2071,2.2071,2.2311,2.2485,2.2432,2.2726,2.2786,2.2251,0.0,0.0,0.0,2.1261,2.086,0.0,0.0,0.0,1.98,1.9907,2.016,2.0575,2.0726,2.102,2.1502,2.1229,2.1109,2.1109,2.1109,2.0824,2.0384,2.0842,2.0855,2.0557,2.0949,2.1617,2.2539,0.0,2.4983,2.5757,2.6693,2.7416,2.7909,2.7606,2.5579,2.2549,1.9907,0.0,2.2897,2.115,2.3414,0.0,0.0,0.0,0.0,0.0,0.0,0.0,0.0,0.0,2.4489,0.0,0.0,0.0,2.5275,2.493,2.469,2.5449,2.5235,2.5157,2.5932,2.6547,2.6283,2.4324,2.1052,1.8078,1.5949,1.5661,1.5477,1.5036,1.4509,1.4238,1.4292,1.4245,1.4238,1.4299,1.4299,1.4299,1.4299,1.4299,1.4299,1.4299,1.4299,1.4299,1.4299,1.4299,1.4299,1.4299,1.4299,1.4299,1.4299,1.4299,1.4299,1.4299,1.4299,1.4299,1.4299,1.4299,1.4299,1.4299,1.4299,1.4373,1.4455,2.1056,2.1082,2.1203,2.1529,2.2004,2.2331,2.2331,2.2619,2.2746,2.2458,2.2913,2.314,0.0,0.0,0.0,0.0,0.0,0.0,2.2164,0.0,0.0,1.9826,2.0294,2.0481,2.0264,2.0788,2.1096,2.1162,2.1122,2.1109,2.1109,2.1109,2.1069,2.1002,2.0815,2.1154,2.175,2.1309,2.2205,0.0,2.4168,2.4315,0.0,2.5703,2.6506,2.6783,2.5553,2.2288,1.8417,0.0,1.925,2.1041,0.0,2.3055,2.6386,0.0,0.0,0.0,0.0,0.0,0.0,0.0,2.5812,0.0,0.0,0.0,2.4332,2.3719,0.0,2.3937,2.4031,0.0,0.0,2.3455,2.4663,2.4778,2.2163,2.1907,2.1505,2.0239,2.0259,1.9619,1.7588,1.5248,1.3964,1.4278,1.4004,1.3971,1.4285,1.4299,1.4299,1.4299,1.4299,1.4299,1.4299,1.4299,1.4299,1.4299,1.4299,1.4299,1.4299,1.4299,1.4299,1.4299,1.4299,1.4299,1.4299,1.4299,1.4299,1.4299,1.4299,1.4299,1.4299,1.4299,1.4312,1.4319,2.1109,2.1109,2.1203,2.1529,2.1783,2.201,2.2138,2.2859,2.3322,2.2993,2.3572,0.0,0.0,0.0,0.0,0.0,0.0,2.2338,0.0,0.0,0.0,0.0,0.0,0.0,2.1002,2.1069,2.1189,2.1395,2.1189,2.1109,2.1109,2.1109,2.1015,2.0855,2.0909,2.1136,2.1483,2.1577,2.2124,0.0,0.0,0.0,0.0,2.5758,2.5932,2.4792,2.1756,1.938,1.7371,0.0,1.6806,0.0,0.0,0.0,0.0,0.0,0.0,0.0,0.0,0.0,0.0,0.0,0.0,0.0,2.4062,0.0,2.3359,0.0,0.0,0.0,0.0,0.0,0.0,0.0,2.4048,2.4332,2.319,2.3606,2.3107,2.07,1.999,1.8935,1.7053,1.6249,1.5298,1.3991,1.3822,1.3856,1.3984,1.4204,1.4299,1.4299,1.4299,1.4299,1.4299,1.4299,1.4299,1.4299,1.4299,1.4299,1.4299,1.4299,1.4299,1.4299,1.4299,1.4299,1.4299,1.4299,1.4299,1.4299,1.4299,1.4299,1.4299,1.4299,1.4299,1.4299,2.1109,0.0,0.0,2.1422,2.1529,2.1716,2.2044,2.2846,2.338,0.0,0.0,0.0,2.4586,2.4412,0.0,0.0,2.4088,2.3327,0.0,0.0,2.1323,0.0,0.0,0.0,0.0,0.0,2.1296,2.1462,2.1216,2.1149,2.1229,2.1149,2.1042,2.0967,2.1216,2.1483,2.175,0.0,2.2686,2.3247,2.391,2.4142,2.4269,2.5283,2.492,2.3278,1.9158,1.757,1.6981,1.4428,1.5315,0.0,1.9186,0.0,0.0,0.0,0.0,0.0,2.602,0.0,0.0,0.0,0.0,0.0,0.0,0.0,0.0,0.0,0.0,0.0,0.0,0.0,0.0,0.0,0.0,2.3834,2.3834,2.4128,2.363,2.157,2.0424,1.9394,1.8402,1.7533,1.635,1.4623,1.3944,1.3626,1.3788,1.4011,1.4211,1.4299,1.4299,1.4299,1.4299,1.4299,1.4299,1.4299,1.4299,1.4299,1.4299,1.4299,1.4299,1.4299,1.4299,1.4299,1.4299,1.4299,1.4299,1.4299,1.4299,1.4299,1.4299,1.4299,1.4299,1.4299,2.1109,2.1109,0.0,0.0,2.1395,2.1783,2.2311,0.0,0.0,0.0,0.0,0.0,0.0,0.0,0.0,0.0,0.0,2.4289,2.4492,0.0,2.1871,0.0,0.0,2.1301,0.0,0.0,2.1435,2.1122,2.1109,2.1256,2.1569,2.1243,2.1256,2.1569,2.1863,2.2445,2.3225,2.3238,2.4436,2.6172,2.5358,2.5545,2.6069,0.0,2.3093,2.2899,1.8787,0.0,0.0,1.4772,1.5602,0.0,0.0,0.0,0.0,0.0,0.0,0.0,0.0,0.0,0.0,2.565,0.0,0.0,0.0,0.0,2.3647,0.0,0.0,0.0,0.0,0.0,0.0,0.0,0.0,0.0,0.0,0.0,2.299,2.4322,2.3463,0.0,0.0,1.9245,1.6513,1.6784,1.4438,1.3241,1.3768,1.3808,1.395,1.4292,1.4299,1.4299,1.4299,1.4299,1.4299,1.4299,1.4299,1.4299,1.4299,1.4299,1.4299,1.4299,1.4299,1.4299,1.4299,1.4299,1.4299,1.4299,1.4299,1.4299,1.4299,1.4299,1.4299,1.4299,0.0,0.0,0.0,0.0,0.0,0.0,0.0,2.2732,0.0,0.0,0.0,0.0,0.0,2.6787,2.6867,0.0,0.0,2.5651,2.497,2.4088,0.0,0.0,0.0,2.2452,0.0,0.0,0.0,0.0,2.1203,2.1256,2.1582,2.1256,2.1363,2.1877,2.197,2.2412,0.0,0.0,0.0,0.0,0.0,2.1463,2.2148,0.0,2.1024,2.0548,1.6472,1.4918,0.0,1.4246,1.4513,1.5367,1.7235,1.8235,1.9355,2.2503,2.4054,0.0,0.0,0.0,2.7871,2.6547,0.0,0.0,0.0,0.0,0.0,0.0,0.0,0.0,0.0,0.0,0.0,0.0,0.0,0.0,0.0,0.0,2.2278,2.3327,0.0,0.0,0.0,1.9151,1.7344,1.4343,1.3286,1.3571,1.5285,1.5845,1.6089,1.6035,1.6392,1.5858,1.4299,1.4299,1.4299,1.4299,1.4299,1.4299,1.4299,1.4299,1.4299,1.4299,1.4299,1.4299,1.4299,1.4299,1.4299,1.4299,1.4299,1.4299,1.4299,1.4299,1.4299,1.4299,2.1756,0.0,0.0,0.0,0.0,0.0,0.0,0.0,0.0,0.0,2.5959,0.0,2.8045,0.0,2.7789,0.0,2.7482,2.66,2.5317,2.4983,0.0,2.4075,2.3688,0.0,0.0,0.0,0.0,0.0,2.1724,2.1777,2.189,2.1456,2.1555,2.2004,2.2325,2.2672,2.2961,2.1982,2.1537,0.0,0.0,1.9594,0.0,0.0,1.9332,1.9436,0.0,1.4077,1.4587,1.4143,1.3926,1.4271,1.695,1.7722,1.8372,2.2246,2.4012,2.5008,2.6504,2.7538,0.0,2.6921,2.6106,0.0,2.4168,0.0,0.0,0.0,0.0,0.0,0.0,0.0,0.0,0.0,0.0,0.0,0.0,2.1609,0.0,0.0,0.0,0.0,0.0,1.9367,1.775,1.399,1.294,1.3223,1.485,1.5569,1.5866,1.5813,1.6285,1.5814,1.4299,1.4299,1.4299,1.4299,1.4299,1.4299,1.4299,1.4299,1.4299,1.4299,1.4299,1.4299,1.4299,1.4299,1.4299,1.4299,1.4299,1.4299,1.4299,1.4299,1.4299,1.4299,0.0,0.0,0.0,0.0,2.185,0.0,0.0,0.0,2.4826,0.0,2.636,2.7241,2.8152,2.7978,2.7989,2.8551,2.8056,0.0,2.5718,2.5879,0.0,0.0,2.4449,2.4292,2.3439,0.0,0.0,0.0,0.0,2.2746,2.2411,2.189,2.1756,2.2031,2.2926,2.3278,2.3245,2.2846,2.2712,2.2619,2.0723,1.9832,1.9359,1.7229,1.7836,1.9211,1.4923,1.4698,1.6172,1.4401,1.3874,1.4443,1.6985,1.7886,1.8374,2.0531,2.2854,2.4717,2.468,2.6373,2.7911,2.68,0.0,0.0,0.0,0.0,2.5453,0.0,0.0,0.0,0.0,0.0,0.0,0.0,0.0,0.0,0.0,0.0,0.0,0.0,0.0,0.0,0.0,1.9621,1.7568,1.546,1.3304,1.2312,0.0,1.3301,1.3721,1.4095,1.4472,1.4601,1.4476,1.4476,1.4431,1.4299,1.4299,1.4299,1.4299,1.4299,1.4299,1.4299,1.4299,1.4299,1.4299,1.4299,1.4299,1.4299,1.4299,1.4299,1.4299,1.4299,1.4299,1.4299,2.2044,2.2405,2.2712,0.0,2.2265,2.2338,0.0,0.0,0.0,0.0,2.7589,2.8404,2.9115,2.8871,2.8671,2.8604,2.8299,0.0,0.0,0.0,0.0,2.6426,2.6092,2.5732,2.5329,2.4783,0.0,2.3634,0.0,2.2726,2.3038,2.2258,2.1943,2.2031,2.2926,2.3193,2.2969,2.2322,2.0476,1.7813,1.6125,1.5363,1.5177,0.0,1.4747,1.5097,1.3867,1.3769,1.4163,1.3782,1.4889,1.6534,1.7312,1.8858,2.0779,2.3092,2.4206,2.5063,2.6795,2.7733,2.8112,2.7804,2.7201,2.656,0.0,0.0,0.0,0.0,0.0,0.0,0.0,0.0,0.0,0.0,0.0,0.0,0.0,0.0,0.0,1.9301,0.0,1.7921,1.6582,1.6099,1.4992,1.2919,1.2138,1.2581,1.4546,1.536,1.6536,1.8126,1.9,1.8627,1.694,1.6896,1.6034,1.4299,1.4299,1.4299,1.4299,1.4299,1.4299,1.4299,1.4299,1.4299,1.4299,1.4299,1.4299,1.4299,1.4299,1.4299,1.4299,1.4299,1.4299,1.4299,2.2605,0.0,0.0,2.3536,0.0,0.0,2.466,2.4997,0.0,2.7122,2.8043,0.0,2.8928,2.8978,2.8935,2.8804,2.8433,0.0,2.7535,0.0,0.0,2.7322,2.7068,2.676,2.6346,2.5598,0.0,2.4359,0.0,2.3113,2.3278,2.2539,2.2111,2.2031,2.2926,2.3233,2.298,2.134,1.8996,1.6195,1.4297,1.3539,0.0,1.3532,1.3532,1.3519,1.3431,1.3403,1.359,1.4649,1.5971,1.7517,1.9736,2.1301,2.2851,2.5483,2.6106,2.6339,2.7801,2.7448,2.6927,2.7926,2.6263,2.4518,2.5132,2.4576,2.3446,0.0,0.0,0.0,0.0,0.0,0.0,0.0,0.0,0.0,0.0,0.0,0.0,0.0,1.6029,1.4917,1.3262,1.3905,1.3618,1.166,1.1592,1.2518,1.4617,1.5017,1.6023,1.7854,1.8077,1.7553,1.629,1.6323,1.5668,1.4299,1.4299,1.4299,1.4299,1.4299,1.4299,1.4299,1.4299,1.4299,1.4299,1.4299,1.4299,1.4299,1.4299,1.4299,1.4299,1.4299,1.4299,1.4299,2.3359,0.0,0.0,0.0,0.0,0.0,0.0,2.6372,0.0,2.7443,0.0,2.8738,2.8353,2.8724,2.8961,2.8881,0.0,2.7965,2.7456,2.7898,2.7965,2.7443,2.7615,2.7482,2.6894,2.6319,0.0,0.0,0.0,2.3541,2.3278,2.2672,2.2231,2.205,2.2886,2.316,2.2791,1.9994,1.7894,1.6293,1.4141,1.3302,1.3403,1.3424,1.3417,1.3403,1.3403,1.3403,1.3707,1.5737,1.6668,1.7653,2.1946,2.3306,2.3926,2.6461,2.7035,2.6851,2.7178,2.575,2.4729,2.6787,2.4197,2.1592,2.3101,2.1892,2.0251,1.9854,1.9307,1.8962,0.0,0.0,0.0,0.0,0.0,0.0,0.0,0.0,0.0,0.0,0.0,0.0,1.1379,1.258,1.2976,1.1683,1.1557,1.2286,0.0,0.0,1.4006,1.5647,1.5053,1.4706,1.4762,1.4867,1.474,1.4326,1.4306,1.4299,1.4299,1.4299,1.4299,1.4299,1.4299,1.4299,1.4299,1.4299,1.4299,1.4299,1.4299,1.4299,1.4299,1.4299,1.4299,1.4299,0.0,0.0,0.0,0.0,0.0,2.7322,2.803,2.835,2.8508,2.8668,2.9713,3.002,2.8948,2.8935,2.8845,2.8379,2.8245,0.0,0.0,0.0,0.0,2.8031,2.8085,2.7831,2.7242,2.6412,2.5758,0.0,0.0,0.0,2.3278,2.2458,2.2064,2.2017,2.2693,2.2357,2.1114,1.7913,0.0,1.5785,1.4174,1.3492,1.3417,1.3497,1.3512,1.3403,1.3403,1.3403,1.3445,1.388,1.5373,1.7226,1.8079,1.9734,2.1421,2.1924,2.2039,2.2061,2.2202,2.1959,2.1757,2.2299,2.1825,2.1287,2.1592,2.1257,2.0308,1.8374,1.7717,1.6821,1.4652,0.0,0.0,0.0,0.0,0.0,0.0,0.0,0.0,0.0,0.0,1.16,0.0,1.1573,1.2326,1.3581,1.2172,0.0,0.0,0.0,1.3662,0.0,1.6593,1.6974,0.0,0.0,1.6302,1.4475,1.4353,1.4299,1.4299,1.4299,1.4299,1.4299,1.4299,1.4299,1.4299,1.4299,1.4299,1.4299,1.4299,1.4299,1.4299,1.4299,1.4299,1.4299,0.0,0.0,0.0,0.0,0.0,0.0,0.0,2.9927,3.0074,2.9121,2.9362,2.9379,2.8657,2.8815,2.8881,2.8631,2.8366,2.8179,2.8179,2.8179,2.8179,2.8179,2.8179,0.0,2.7495,2.6519,2.54,2.4146,0.0,0.0,2.1732,2.1068,2.1137,2.1777,2.1358,2.0621,1.954,0.0,0.0,1.5855,1.4093,1.3397,1.341,1.3485,1.3464,1.3403,1.3403,1.3403,1.3576,1.4803,1.593,1.7097,1.8505,1.9576,2.0394,2.0712,2.0691,2.0588,2.0923,2.0076,1.9396,2.0839,1.9328,1.7862,1.9122,1.839,1.7072,1.584,1.5412,1.4773,1.3135,1.3096,0.0,0.0,0.0,0.0,0.0,0.0,0.0,0.0,0.0,0.0,0.0,0.0,0.0,0.0,0.0,0.0,0.0,0.0,1.484,0.0,0.0,0.0,1.6112,0.0,1.5498,1.4401,1.4333,1.4299,1.4299,1.4299,1.4299,1.4299,1.4299,1.4299,1.4299,1.4299,1.4299,1.4299,1.4299,1.4299,1.4299,1.4299,1.4299,1.4299,0.0,2.6867,0.0,0.0,2.8818,0.0,3.0034,3.0942,3.1049,2.9562,2.9219,2.8885,2.8433,2.8751,2.8948,2.8858,2.846,2.8179,2.8179,2.8179,2.8179,2.8179,2.7714,2.7317,2.6976,2.5468,2.3761,0.0,0.0,0.0,0.0,1.929,1.9529,2.0459,1.9168,0.0,0.0,0.0,1.5126,1.5377,1.387,1.3295,1.3403,1.3403,1.3403,1.3403,1.3437,1.3431,1.3673,1.5599,1.6103,1.6303,1.8449,1.8817,1.8601,1.9135,1.9055,1.8938,1.9344,1.803,1.7085,1.9223,1.6922,1.4667,1.6609,1.5489,1.3987,1.3822,1.366,1.3369,1.2794,1.2617,0.0,0.0,0.0,0.0,0.0,0.0,0.0,0.0,0.0,0.0,1.1145,0.0,0.0,0.0,0.0,0.0,1.5798,0.0,0.0,0.0,0.0,1.5821,1.4292,0.0,1.4428,1.4346,1.4312,1.4299,1.4299,1.4299,1.4299,1.4299,1.4299,1.4299,1.4299,1.4299,1.4299,1.4299,1.4299,1.4299,1.4299,1.4299,1.4299,1.4299,0.0,0.0,0.0,0.0,0.0,0.0,3.0702,3.1022,3.1116,3.0688,3.0608,3.0167,2.9028,2.8961,2.8818,2.8312,2.8219,2.8179,2.8179,2.8179,2.8179,2.8179,2.6151,2.4871,2.4555,2.1739,1.9868,0.0,0.0,0.0,0.0,0.0,0.0,0.0,0.0,0.0,0.0,1.3555,1.3109,1.3304,1.335,1.339,1.3403,1.3403,1.3403,1.3417,1.3559,1.3519,1.3486,1.3934,1.3922,1.3756,1.4133,1.4153,1.4046,1.4224,1.416,1.4103,1.4408,1.4315,1.4256,1.4826,1.4594,1.4323,1.4557,1.4199,1.3815,1.3802,1.362,1.3281,1.2774,1.3044,1.3078,0.0,0.0,0.0,0.0,0.0,0.0,0.0,0.0,0.0,0.0,1.1029,0.0,0.0,1.1002,0.0,0.0,0.0,0.0,1.3255,1.5575,1.6034,1.4343,1.4312,1.438,1.4489,1.436,1.4299,1.4299,1.4299,1.4299,1.4299,1.4299,1.4299,1.4299,1.4299,1.4299,1.4299,1.4299,1.4299,1.4299,1.4299,1.4299,1.4299,0.0,0.0,0.0,0.0,0.0,0.0,0.0,3.141,3.133,3.0849,3.0635,3.0221,2.9392,2.9108,2.8828,2.8457,2.8286,2.8179,2.8179,2.6885,2.6109,2.6109,2.3855,2.245,2.2182,2.0693,1.9069,0.0,0.0,0.0,0.0,0.0,0.0,0.0,0.0,1.3886,1.3237,1.2755,1.2786,1.3152,1.3417,1.3539,1.3539,1.3539,1.3485,1.341,1.3471,1.3451,1.3431,1.3599,1.3573,1.3444,1.3639,1.3612,1.3566,1.3673,1.3666,1.3709,1.3926,1.3869,1.3869,1.4224,1.4231,1.419,1.4278,1.4136,1.3953,1.3815,1.3607,1.3349,1.3166,1.3132,1.3125,0.0,0.0,0.0,0.0,0.0,0.0,0.0,0.0,0.0,0.0,0.0,0.0,0.0,0.0,0.0,0.0,0.0,0.0,1.4399,0.0,1.5581,1.42,1.4251,1.4326,1.4387,1.4326,1.4299,1.4299,1.4299,1.4299,1.4299,1.4299,1.4299,1.4299,1.4299,1.4299,1.4299,1.4299,1.4299,1.4299,1.4299,1.4299,1.4299,3.0694,0.0,3.0595,0.0,3.1383,3.1022,3.0855,3.066,3.0054,2.8722,2.8393,2.8319,2.8417,2.8183,2.7926,2.7689,2.7371,2.7177,2.7268,2.5677,2.438,2.3695,2.1437,0.0,1.9928,1.8898,1.7424,1.5504,1.5082,0.0,0.0,0.0,0.0,0.0,1.3668,1.3267,1.2494,1.2637,1.2908,1.3302,1.3471,1.3545,1.3585,1.3585,1.3587,1.3539,1.358,1.3539,1.3492,1.3599,1.3518,1.3458,1.3804,1.3777,1.3626,1.3808,1.3835,1.3829,1.4027,1.3994,1.3973,1.4238,1.4217,1.4163,1.4278,1.4183,1.4027,1.3829,1.3607,1.3417,1.3458,1.3302,1.3247,1.3519,0.0,0.0,0.0,0.0,0.0,0.0,1.1327,1.0934,1.0683,1.0697,0.0,0.0,0.0,0.0,0.0,0.0,0.0,0.0,0.0,0.0,1.4112,1.4224,1.4299,1.4299,1.4299,1.4299,1.4299,1.4299,1.4299,1.4299,1.4299,1.4299,1.4299,1.4299,1.4299,1.4299,1.4299,1.4299,1.4299,1.4299,1.4299,1.4299,3.1537,3.1877,3.2345,3.3227,3.2906,3.1725,2.9135,2.8255,2.6768,2.3689,2.3297,2.3929,2.5655,2.5707,2.5598,2.5466,2.4984,2.4839,2.513,2.4875,2.3652,0.0,0.0,1.7842,1.7842,1.5431,1.393,1.3438,0.0,0.0,1.491,0.0,1.4253,1.2718,1.2914,1.2989,1.3003,1.3146,1.3254,1.3397,1.3403,1.3492,1.3585,1.3585,1.3673,1.3815,1.4007,1.3878,1.3605,1.3747,1.3599,1.3478,1.3969,1.3865,1.3688,1.398,1.396,1.3829,1.4027,1.4112,1.4153,1.4265,1.4299,1.4299,1.4299,1.4183,1.4027,1.3829,1.3607,1.3444,1.3558,1.3578,1.3531,1.3424,0.0,0.0,0.0,0.0,0.0,0.0,1.1484,1.1151,1.0555,1.0629,0.0,0.0,0.0,0.0,0.0,0.0,0.0,1.261,1.5358,0.0,1.4112,1.4224,1.4299,1.4299,1.4299,1.4299,1.4299,1.4299,1.4299,1.4299,1.4299,1.4299,1.4299,1.4299,1.4299,1.4299,1.4299,1.4299,1.4299,1.4299,1.4299,1.4299,2.8874,2.8043,2.6985,2.7151,2.7077,2.6577,2.5582,2.5237,2.4682,2.3358,2.3297,2.2757,2.1275,2.2378,2.3125,0.0,2.2636,2.2488,0.0,2.0951,1.9662,1.8932,1.6641,1.5425,1.5425,1.4536,1.3953,1.366,0.0,0.0,0.0,1.5449,1.592,1.5319,1.7168,1.8039,1.8096,1.6526,1.5953,1.5903,1.4217,1.3545,1.3599,1.3693,1.3632,1.3573,1.3824,1.3747,1.3605,1.3747,1.3673,1.36,1.3838,1.3808,1.3788,1.4136,1.419,1.4163,1.4211,1.4231,1.4238,1.4285,1.4299,1.4299,1.4299,1.4183,1.4027,1.3829,1.3727,1.3673,1.372,1.3734,1.3714,1.3666,1.3736,0.0,0.0,0.0,0.0,0.0,1.1151,1.0819,1.0521,1.0691,0.0,0.0,0.0,0.0,0.0,0.0,0.0,0.0,1.3938,0.0,1.4112,1.4224,1.4299,1.4299,1.4299,1.4299,1.4299,1.4299,1.4299,1.4299,1.4299,1.4299,1.4299,1.4299,1.4299,1.4299,1.4299,1.4299,1.4299,1.4299,1.4299,1.4299,2.6601,2.574,2.475,2.4658,2.4496,2.3988,2.2813,2.2514,2.1955,2.0613,2.0539,1.9836,1.7868,1.882,0.0,2.0569,2.032,2.0185,2.0261,1.8734,1.7413,1.6509,1.508,1.4299,1.4299,1.5067,0.0,1.3971,1.3865,1.3654,1.3466,1.5961,1.705,1.7011,1.9517,2.0672,2.064,1.9178,1.8037,1.7095,1.5528,1.4371,1.3605,1.3741,1.372,1.3682,1.3926,1.3919,1.3804,1.3788,1.3707,1.3612,1.3754,1.3795,1.3849,1.4143,1.4251,1.4299,1.4299,1.4299,1.4299,1.4299,1.4299,1.4299,1.4299,1.4183,1.4061,1.4021,1.3876,1.3815,1.3919,1.3835,1.3815,1.3919,1.3763,1.3471,1.3064,0.0,0.0,0.0,0.0,0.0,0.0,1.1205,1.1504,0.0,0.0,0.0,0.0,0.0,0.0,1.2813,1.3355,1.3851,1.4156,1.4251,1.4299,1.4299,1.4299,1.4299,1.4299,1.4299,1.4299,1.4299,1.4299,1.4299,1.4299,1.4299,1.4299,1.4299,1.4299,1.4299,1.4299,1.4299,1.4299,1.4299,2.4436,2.4574,2.462,0.0,2.4213,2.3136,2.0671,1.9975,1.8806,1.6258,1.5908,1.5811,1.5607,1.552,1.6313,1.8494,0.0,0.0,0.0,1.777,1.6613,1.4401,1.4483,1.4557,1.4557,1.6852,1.6896,1.4557,1.4419,1.4256,1.4176,1.6447,1.7603,1.7886,2.0356,2.1357,2.1248,2.127,1.9719,1.7377,1.7202,1.5706,1.3605,1.3754,1.3933,1.4105,1.4238,1.4204,1.4048,1.3862,1.3727,1.3639,1.3761,1.3802,1.3842,1.4041,1.419,1.4299,1.4299,1.4299,1.4299,1.4299,1.4299,1.4299,1.4285,1.4183,1.4166,1.4258,1.4068,1.3876,1.4061,1.3973,1.3876,1.4048,1.381,1.3451,1.3037,0.0,0.0,0.0,0.0,0.0,0.0,1.2054,1.2288,0.0,0.0,0.0,0.0,0.0,1.2868,1.3043,1.3573,1.3964,1.4299,1.4299,1.4299,1.4299,1.4299,1.4299,1.4299,1.4299,1.4299,1.4299,1.4299,1.4299,1.4299,1.4299,1.4299,1.4299,1.4299,1.4299,1.4299,1.4299,1.4299,1.4299,0.0,0.0,1.8705,1.8576,1.8485,1.814,1.7423,1.7243,1.6842,1.5984,1.6003,1.5927,1.5621,1.5703,1.5884,1.6218,1.5928,1.5742,1.5824,1.5476,1.5029,1.4462,1.6058,1.6984,1.6984,1.9237,1.928,1.6984,1.6943,1.6017,1.4289,1.6621,1.7765,1.7973,2.2041,2.3832,2.3807,2.3698,2.2265,1.9913,1.7991,1.5774,1.3612,1.3919,1.3899,1.3783,1.4163,1.4204,1.4112,1.4027,1.3994,1.3953,1.3822,1.3926,1.4048,1.4204,1.4272,1.4299,1.4299,1.4299,1.4299,1.4299,1.4299,1.4272,1.415,1.419,1.4224,1.4143,1.4163,1.4204,1.4238,1.4217,1.4163,1.4125,1.3722,1.3261,1.2691,1.2522,0.0,0.0,1.202,1.225,1.2142,1.2325,1.2488,0.0,0.0,0.0,1.3064,1.3348,1.3504,1.3471,1.3939,1.4224,1.4299,1.4299,1.4299,1.4299,1.4299,1.4299,1.4299,1.4299,1.4299,1.4299,1.4299,1.4299,1.4299,1.4299,1.4299,1.4299,1.4299,1.4299,1.4299,1.4299,1.4299,1.4299,1.8586,1.7774,1.6829,1.6748,1.6673,1.6547,1.6473,1.6449,1.6327,1.609,1.6137,1.6096,1.5866,1.5852,1.5813,1.5533,1.5242,1.5543,1.6566,1.6408,1.6789,1.7937,1.899,1.9584,1.9584,2.1704,2.1653,1.9358,1.8322,1.6597,1.4343,1.6677,1.7807,1.7973,2.1523,2.3083,2.3115,2.3026,2.1576,1.9267,1.793,1.5922,1.3707,1.398,1.3973,1.3871,1.419,1.4245,1.4163,1.4139,1.4119,1.4098,1.3973,1.4007,1.4146,1.4251,1.4299,1.4299,1.4299,1.4299,1.4299,1.4299,1.4299,1.4278,1.4197,1.4238,1.4278,1.419,1.4245,1.4299,1.4299,1.4299,1.4204,1.3919,1.3546,1.3085,1.2488,1.2345,0.0,1.2047,1.2433,1.2732,1.2793,1.3051,1.3166,1.3044,1.337,0.0,1.3485,1.3844,1.391,1.3693,1.4102,1.4299,1.4299,1.4299,1.4299,1.4299,1.4299,1.4299,1.4299,1.4299,1.4299,1.4299,1.4299,1.4299,1.4299,1.4299,1.4299,1.4299,1.4299,1.4299,1.4299,1.4299,1.4299,1.4431,1.6978,1.6978,1.6978,1.6978,1.687,1.6723,1.6702,1.6588,1.6503,1.6361,1.6327,1.6259,1.613,1.603,1.6021,1.6209,1.5976,1.6597,1.8434,1.8105,1.9123,2.1967,2.1768,2.1821,2.2212,2.4207,2.3909,2.1221,1.9271,1.694,1.4343,1.6334,1.7282,1.737,1.9662,2.0702,2.0702,2.1048,1.9784,1.7535,1.7535,1.6058,1.3849,1.4048,1.4132,1.4132,1.4245,1.4299,1.4278,1.415,1.4153,1.4153,1.4153,1.4153,1.4129,1.4265,1.4299,1.4299,1.4299,1.4299,1.4299,1.4299,1.4299,1.4299,1.4299,1.4299,1.4299,1.4299,1.4299,1.4299,1.4299,1.4278,1.4122,1.3653,1.3336,1.2908,1.2338,0.0,1.2281,1.2474,1.2874,1.3275,1.3512,1.3838,1.3905,1.3593,1.398,1.4136,1.3876,1.4156,1.4177,1.3876,1.4163,1.4299,1.4299,1.4299,1.4299,1.4299,1.4299,1.4299,1.4299,1.4299,1.4299,1.4299,1.4299,1.4299,1.4299,1.4299,1.4299,1.4299,1.4299,1.4299,1.4299,1.4299,1.4299,1.4646,1.6978,1.6978,1.6978,1.6978,1.6958,1.6904,1.6716,1.6675,1.6608,1.651,1.6381,1.63,1.6279,1.6137,1.6912,1.8964,1.8856,1.8623,1.8442,1.6438,1.7246,2.1755,2.1494,2.2318,2.4534,2.6599,2.5543,2.1221,2.0832,1.8497,1.4299,1.469,1.4822,1.4955,1.729,1.8322,1.8453,2.0399,1.986,1.7765,1.7765,1.6281,1.4055,1.4204,1.4183,1.4132,1.4245,1.4299,1.4299,1.4272,1.4265,1.4265,1.4265,1.4265,1.4272,1.4292,1.4299,1.4299,1.4299,1.4299,1.4299,1.4299,1.4299,1.4299,1.4299,1.4299,1.4299,1.4299,1.4299,1.4299,1.4299,1.4197,1.4,1.3682,1.3119,1.2637,1.22,0.0,1.2596,1.2515,1.337,1.401,1.4143,1.3987,1.3964,1.4312,1.4031,1.3964,1.4217,1.4272,1.4278,1.4231,1.4278,1.4299,1.4299,1.4299,1.4299,1.4299,1.4299,1.4299,1.4299,1.4299,1.4299,1.4299,1.4299,1.4299,1.4299,1.4299,1.4299,1.4299,1.4299,1.4299,1.4299,1.4299,1.4299,1.4646,1.6978,1.6978,1.6978,1.6978,1.6978,1.6958,1.6883,1.6876,1.6822,1.6615,1.6533,1.6432,1.6327,1.6246,1.6601,1.7614,1.7572,1.7786,1.8509,1.876,1.9843,2.2025,2.2984,2.4488,2.6735,2.6481,2.4636,2.1221,1.9966,1.7632,1.4299,1.4299,1.4299,1.4343,1.5425,1.5902,1.599,1.7028,1.6904,1.5902,1.5902,1.5206,1.4204,1.4272,1.4258,1.4204,1.4278,1.4299,1.4299,1.4299,1.4299,1.4299,1.4299,1.4299,1.4299,1.4299,1.4299,1.4299,1.4299,1.4299,1.4299,1.4299,1.4299,1.4319,1.4394,1.4353,1.4319,1.4401,1.4353,1.4299,1.4299,1.4245,1.4068,1.3688,1.3261,0.0,0.0,1.2651,1.2787,1.3078,1.3607,1.4068,1.438,1.4285,1.4275,1.4566,1.4322,1.4221,1.4407,1.434,1.4299,1.4299,1.4299,1.4299,1.4299,1.4299,1.4299,1.4299,1.4299,1.4299,1.4299,1.4299,1.4299,1.4299,1.4299,1.4299,1.4299,1.4299,1.4299,1.4299,1.4299,1.4299,1.4299,1.4299,1.4299,1.4646,1.6978,1.6978,1.6978,1.6978,1.6978,1.6978,1.6978,1.6978,1.6937,1.677,1.6689,1.656,1.6381,1.63,1.6407,1.6798,1.6754,1.7325,1.8806,2.0631,2.184,2.2196,2.3709,2.5181,2.6546,2.4807,2.274,2.0399,1.8671,1.6597,1.4299,1.4299,1.4299,1.4299,1.4299,1.4299,1.4299,1.4299,1.4299,1.4299,1.4299,1.4299,1.4299,1.4299,1.4299,1.4299,1.4299,1.4299,1.4299,1.4299,1.4299,1.4299,1.4299,1.4299,1.4299,1.4299,1.4299,1.4299,1.4299,1.4299,1.4299,1.4299,1.4326,1.4367,1.4441,1.4428,1.4414,1.4455,1.4401,1.434,1.4306,1.4272,1.4122,1.37,0.0,0.0,0.0,1.2996,1.3119,1.3578,1.3856,1.4153,1.4584,1.4584,1.4624,1.478,1.4652,1.455,1.4516,1.4407,1.4346,1.4346,1.4319,1.4299,1.4299,1.4299,1.4299,1.4299,1.4299,1.4299,1.4299,1.4299,1.4299,1.4299,1.4299,1.4299,1.4299,1.4299,1.4299,1.4299,1.4299,1.4299,1.4299,1.4299,1.4299,1.4646,1.6978,1.6978,1.6978,1.6978,1.6978,1.6978,1.6978,1.6978,1.6978,1.6965,1.6714,1.653,1.651,1.6259,1.707,1.947,1.931,1.915,1.9434,1.9291,1.9988,2.184,2.1961,2.19,2.1696,2.1566,2.0356,1.806,1.7894,1.6597,1.4299,1.4299,1.4299,1.4299,1.4299,1.4299,1.4299,1.4299,1.4299,1.4299,1.4299,1.4299,1.4299,1.4299,1.4299,1.4299,1.4299,1.4299,1.4299,1.4299,1.4299,1.4299,1.4299,1.4299,1.4299,1.4299,1.4299,1.4299,1.4299,1.4299,1.4299,1.4299,1.4401,1.4462,1.434,1.4516,1.4586,1.4373,1.4414,1.4455,1.4326,1.4183,1.4027,1.3808,0.0,0.0,1.322,1.3505,1.3734,1.3774,1.4282,1.4701,1.4923,1.4808,1.4787,1.4943,1.4814,1.4613,1.4516,1.4502,1.4496,1.4496,1.4367,1.4299,1.4299,1.4299,1.4299,1.4299,1.4299,1.4299,1.4299,1.4299,1.4299,1.4299,1.4299,1.4299,1.4299,1.4299,1.4299,1.4299,1.4299,1.4299,1.4299,1.4299,1.4299,1.4646,1.6978,1.6978,1.6978,1.6978,1.6978,1.6978,1.6978,1.6978,1.6978,1.6978,1.6795,1.6574,1.653,1.6341,1.6536,1.741,1.7284,1.7121,1.6968,1.6787,1.7592,1.9509,1.9545,2.0053,2.1188,1.9881,1.8751,1.7807,1.6334,1.5168,1.4299,1.4299,1.4299,1.4299,1.4299,1.4299,1.4299,1.4299,1.4299,1.4299,1.4299,1.4299,1.4299,1.4299,1.4299,1.4299,1.4299,1.4299,1.4299,1.4299,1.4299,1.4299,1.4299,1.4299,1.4299,1.4299,1.4299,1.4299,1.4299,1.4299,1.4319,1.4407,1.4468,1.455,1.4685,1.4726,1.4687,1.4719,1.4685,1.4566,1.4462,1.438,1.4299,1.415,0.0,1.3831,1.3865,1.4021,1.4156,1.42,1.4498,1.4801,1.5003,1.4916,1.4943,1.5092,1.497,1.4855,1.4801,1.4618,1.4468,1.438,1.4326,1.434,1.4428,1.4346,1.4299,1.4299,1.4299,1.4299,1.4299,1.4299,1.4299,1.4299,1.4299,1.4299,1.4299,1.4299,1.4299,1.4299,1.4299,1.4299,1.4299,1.4299,1.4299,1.4431,1.6978,1.6978,1.6978,1.6978,1.6978,1.6978,1.6978,1.6978,1.6978,1.6978,1.6802,1.6588,1.653,1.6354,1.6151,1.599,1.5888,1.5703,1.5493,1.5391,1.5877,1.713,1.715,1.7763,1.9121,1.7712,1.6894,1.6756,1.5152,1.4346,1.4299,1.4299,1.4299,1.4299,1.4299,1.4299,1.4299,1.4299,1.4299,1.4299,1.4299,1.4299,1.4299,1.4299,1.4299,1.4299,1.4299,1.4299,1.4299,1.4299,1.4299,1.4299,1.4299,1.4299,1.4299,1.4299,1.4299,1.4312,1.4353,1.4367,1.4387,1.4489,1.455,1.4638,1.4848,1.4889,1.4882,1.4896,1.4855,1.4767,1.4611,1.4539,1.455,1.4455,1.4346,1.4319,1.4421,1.4516,1.4597,1.4652,1.4828,1.497,1.5031,1.5038,1.5079,1.5174,1.5092,1.4997,1.4903,1.4652,1.4489,1.4441,1.4394,1.4434,1.4584,1.4394,1.4299,1.4299,1.4299,1.4299,1.4299,1.4299,1.4299,1.4299,1.4299,1.4299,1.4299,1.4299,1.4299,1.4299,1.4299,1.4299,1.4299,1.4299,1.4299,1.4299,1.6978,1.6978,1.6978,1.6978,1.6978,1.6978,1.6978,1.6978,1.6978,1.6978,1.6714,1.6524,1.6524,1.6259,1.6083,1.6083,1.5811,1.5593,1.5587,1.535,1.512,1.5023,1.4821,1.4694,1.4694,1.4694,1.462,1.4509,1.4509,1.4441,1.4299,1.4299,1.4299,1.4299,1.4299,1.4299,1.4299,1.4299,1.4299,1.4299,1.4299,1.4299,1.4299,1.4299,1.4299,1.4299,1.4299,1.4299,1.4299,1.4299,1.4299,1.4299,1.4299,1.4299,1.4299,1.4299,1.4299,1.4333,1.4475,1.4509,1.4509,1.4516,1.4586,1.4694,1.4694,1.497,1.5099,1.4755,1.4869,1.4923,1.4721,1.4694,1.4694,1.4694,1.4694,1.4694,1.4694,1.4997,1.5133,1.5037,1.5235,1.535,1.5201,1.5181,1.5181,1.5181,1.5181,1.5052,1.4708,1.4552,1.4584,1.4687,1.459,1.4539,1.4687,1.4448,1.4299,1.4299,1.4299,1.4299,1.4299,1.4299,1.4299,1.4299,1.4299,1.4299,1.4299,1.4299,1.4299,1.4299,1.4299,1.4299,1.4299,1.4299,1.4299,1.4299,1.6978,1.6978,1.6978,1.6978,1.6978,1.6978,1.6978,1.6978,1.6978,1.6978,1.6714,1.6524,1.6524,1.6259,1.6035,1.5983,1.5888,1.5703,1.5493,1.5391,1.5228,1.503,1.493,1.4801,1.4539,1.464,1.462,1.4509,1.4509,1.4441,1.4299,1.4299,1.4299,1.4299,1.4299,1.4299,1.4299,1.4299,1.4299,1.4299,1.4299,1.4299,1.4299,1.4299,1.4299,1.4299,1.4299,1.4299,1.4299,1.4299,1.4299,1.4299,1.4299,1.4299,1.4319,1.4421,1.438,1.4333,1.4475,1.4509,1.4563,1.478,1.4869,1.493,1.5031,1.512,1.516,1.5072,1.5086,1.5072,1.493,1.4903,1.4869,1.4714,1.4828,1.4903,1.4903,1.5065,1.5208,1.5269,1.5357,1.5391,1.535,1.5343,1.5296,1.5194,1.5181,1.5052,1.4708,1.4654,1.4552,1.4434,1.4387,1.4387,1.4428,1.4441,1.4401,1.4299,1.4299,1.4299,1.4299,1.4299,1.4299,1.4299,1.4299,1.4299,1.4299,1.4299,1.4299,1.4299,1.4299,1.4299,1.4299,1.4299,1.4299,1.4299,1.6978,1.6978,1.6978,1.6978,1.6978,1.6978,1.6978,1.6978,1.6978,1.6978,1.6714,1.6524,1.6524,1.6259,1.6092,1.6003,1.5839,1.5669,1.5425,1.5357,1.5187,1.4896,1.4882,1.4794,1.4559,1.4647,1.462,1.4509,1.4509,1.4441,1.4299,1.4299,1.4299,1.4299,1.4299,1.4299,1.4299,1.4299,1.4299,1.4299,1.4299,1.4299,1.4299,1.4299,1.4299,1.4299,1.4299,1.4299,1.4306,1.4367,1.438,1.4394,1.4455,1.4434,1.4414,1.4557,1.4543,1.4509,1.4652,1.4692,1.4753,1.5037,1.5057,1.5057,1.5153,1.5181,1.5181,1.5181,1.5181,1.52,1.5072,1.5098,1.5025,1.493,1.4991,1.5098,1.5098,1.5181,1.5282,1.5316,1.5371,1.5384,1.5323,1.5323,1.5282,1.5187,1.5133,1.5018,1.4841,1.4667,1.4552,1.4475,1.4414,1.438,1.438,1.4529,1.4502,1.4299,1.4299,1.4299,1.4299,1.4299,1.4299,1.4299,1.4299,1.4299,1.4299,1.4299,1.4299,1.4299,1.4299,1.4299,1.4299,1.4299,1.4299,1.4299,1.6978,1.6978,1.6978,1.6978,1.6978,1.6978,1.6978,1.6978,1.6978,1.6978,1.6714,1.6524,1.6524,1.6259,1.6083,1.6083,1.5832,1.556,1.5445,1.5303,1.5079,1.4708,1.4694,1.4681,1.4654,1.4667,1.4606,1.4509,1.4509,1.4441,1.4299,1.4299,1.4299,1.4299,1.4299,1.4299,1.4299,1.4299,1.4299,1.4299,1.4299,1.4299,1.4299,1.4299,1.4299,1.4299,1.4299,1.4306,1.434,1.4468,1.4509,1.4536,1.4626,1.4586,1.4563,1.4667,1.4708,1.4728,1.493,1.5017,1.5051,1.5133,1.5079,1.5071,1.5153,1.5181,1.5181,1.5181,1.5181,1.5181,1.5181,1.5181,1.5181,1.5181,1.5181,1.5181,1.5181,1.5303,1.5343,1.5215,1.5323,1.5357,1.5215,1.5194,1.5181,1.5181,1.5112,1.503,1.5017,1.4692,1.459,1.4667,1.457,1.4489,1.4489,1.4599,1.4539,1.4319,1.4319,1.4319,1.4319,1.4306,1.4299,1.4299,1.4299,1.4299,1.4299,1.4299,1.4299,1.4299,1.4299,1.4299,1.4299,1.4299,1.4299,1.4299,1.6978,1.6978,1.6978,1.6978,1.6978,1.6978,1.6978,1.6978,1.6978,1.6978,1.6714,1.6524,1.6524,1.6259,1.6083,1.6083,1.6022,1.5872,1.556,1.5512,1.5255,1.4714,1.4694,1.4586,1.4401,1.4502,1.4543,1.4509,1.4509,1.4441,1.4299,1.4299,1.4299,1.4299,1.4299,1.4299,1.4299,1.4299,1.4299,1.4299,1.4299,1.4299,1.4299,1.4299,1.4299,1.4299,1.4299,1.4373,1.4468,1.4502,1.4509,1.4516,1.455,1.4618,1.4674,1.4875,1.4835,1.4728,1.493,1.5017,1.5023,1.5057,1.5079,1.5147,1.5174,1.5181,1.5181,1.5181,1.5181,1.5181,1.5181,1.5181,1.5181,1.5181,1.5181,1.5181,1.5181,1.5208,1.5262,1.535,1.5391,1.5398,1.5364,1.5255,1.5181,1.5181,1.5153,1.5086,1.5023,1.4794,1.4606,1.4563,1.4421,1.4346,1.4346,1.4489,1.4529,1.4468,1.4468,1.4468,1.4462,1.4353,1.4299,1.4299,1.4299,1.4299,1.4299,1.4299,1.4299,1.4299,1.4299,1.4299,1.4299,1.4299,1.4299,1.4319,1.6978,1.6978,1.6978,1.6978,1.6978,1.6978,1.6978,1.6978,1.6978,1.6978,1.6714,1.6524,1.6524,1.6259,1.6083,1.6083,1.5954,1.5805,1.56,1.5499,1.5215,1.4714,1.4694,1.4559,1.4306,1.4373,1.4414,1.4414,1.4414,1.4373,1.4299,1.4299,1.4299,1.4299,1.4299,1.4299,1.4299,1.4299,1.4299,1.4299,1.4299,1.4299,1.4299,1.4299,1.434,1.4401,1.4401,1.4496,1.4618,1.4618,1.4618,1.4599,1.4787,1.4889,1.4964,1.5045,1.5065,1.5059,1.5072,1.5119,1.5119,1.5119,1.5126,1.5181,1.5181,1.5181,1.5181,1.5181,1.5181,1.5181,1.5181,1.5181,1.5181,1.5181,1.5181,1.5181,1.5181,1.5181,1.5215,1.5296,1.5303,1.5303,1.5303,1.5228,1.5181,1.5181,1.512,1.5079,1.5119,1.4794,1.4579,1.4618,1.4414,1.4299,1.4299,1.4441,1.4509,1.4509,1.4509,1.4509,1.4509,1.4367,1.4299,1.4299,1.4299,1.4299,1.4299,1.4299,1.4299,1.4299,1.4299,1.4299,1.4299,1.4299,1.4299,1.4319,1.6978,1.6978,1.6978,1.6978,1.6978,1.6978,1.6978,1.6978,1.6978,1.6978,1.6734,1.6551,1.6524,1.6259,1.6069,1.6092,1.5818,1.5655,1.5553,1.5364,1.5079,1.4708,1.4694,1.4559,1.4306,1.4299,1.4299,1.4299,1.4299,1.4299,1.4299,1.4299,1.4299,1.4299,1.4299,1.4299,1.4299,1.4299,1.4299,1.4299,1.4299,1.4299,1.4306,1.4326,1.4407,1.4516,1.4543,1.4586,1.4701,1.4721,1.4735,1.4821,1.5072,1.5181,1.5221,1.5221,1.5309,1.5384,1.5255,1.5201,1.5181,1.5181,1.5181,1.5181,1.5181,1.5181,1.5181,1.5181,1.5181,1.5181,1.5181,1.5181,1.5181,1.5181,1.5181,1.5181,1.5181,1.516,1.5153,1.5181,1.5181,1.5174,1.5147,1.5194,1.5208,1.5181,1.5099,1.5132,1.5174,1.478,1.4611,1.4687,1.4455,1.4299,1.4299,1.4441,1.4509,1.4509,1.4509,1.4509,1.4509,1.4367,1.4299,1.4299,1.4299,1.4299,1.4299,1.4299,1.4299,1.4299,1.4299,1.4299,1.4299,1.4299,1.406,1.3713,1.6978,1.6978,1.6978,1.6978,1.6978,1.6978,1.6978,1.6978,1.6978,1.6978,1.6829,1.6615,1.6537,1.6259,1.6029,1.5942,1.5894,1.5765,1.5459,1.5404,1.5187,1.4714,1.4694,1.4559,1.4306,1.4299,1.4299,1.4299,1.4299,1.4299,1.4299,1.4299,1.4299,1.4299,1.4299,1.4299,1.4299,1.4299,1.4299,1.4299,1.4299,1.4299,1.4312,1.4434,1.4496,1.4529,1.4613,1.4674,1.4714,1.4896,1.4936,1.4989,1.503,1.5174,1.5377,1.5377,1.5398,1.5404,1.5384,1.5282,1.5181,1.5181,1.5181,1.5181,1.5181,1.5181,1.5181,1.5181,1.5181,1.5181,1.5181,1.5181,1.5181,1.5181,1.5181,1.5181,1.5181,1.5079,1.5091,1.5167,1.5181,1.5133,1.5057,1.5228,1.5323,1.5194,1.5289,1.5303,1.5187,1.4882,1.4674,1.4694,1.4455,1.4299,1.4299,1.4441,1.4509,1.4509,1.4509,1.4509,1.4509,1.4367,1.4299,1.4299,1.4299,1.4299,1.4299,1.4299,1.4299,1.4299,1.4299,1.4299,1.4299,1.4299,1.3054,1.1357,1.6978,1.6978,1.6978,1.6978,1.6978,1.6978,1.6978,1.6978,1.6978,1.6978,1.6842,1.6642,1.6486,1.6259,1.5988,1.575,1.5737,1.5608,1.5303,1.5208,1.4997,1.4631,1.4611,1.4516,1.4306,1.4299,1.4299,1.4299,1.4299,1.4299,1.4299,1.4299,1.4299,1.4299,1.4299,1.4299,1.4299,1.4299,1.4299,1.4299,1.4299,1.4299,1.4319,1.4455,1.4563,1.4613,1.4814,1.4869,1.4875,1.495,1.5017,1.503,1.5112,1.5235,1.5391,1.5309,1.5343,1.5391,1.5309,1.5235,1.5181,1.5181,1.5181,1.5181,1.5181,1.5181,1.5181,1.5181,1.512,1.5086,1.5167,1.512,1.5092,1.5167,1.5181,1.5181,1.5181,1.5126,1.5113,1.5174,1.5113,1.5072,1.5086,1.5133,1.5167,1.5181,1.5248,1.5255,1.5187,1.4903,1.4694,1.4694,1.4455,1.4299,1.4299,1.436,1.4394,1.4394,1.4394,1.4434,1.4509,1.4367,1.4299,1.4299,1.4299,1.4299,1.4299,1.4299,1.4299,1.4299,1.4299,1.4299,1.4129,1.277,1.1641,1.0594]},{"header":{"parameterUnit":"m.s-1","parameterCategory":1,"la1":30.6,"la2":28.766,"lo1":-90.7593,"lo2":-88.6598,"dy":0.0162,"dx":0.0183,"nx":116,"ny":114,"refTime":"2023-09-30T06:00:00:Z","depth":0,"parameterNumber":3,"parameterNumberName":"V-component_of_WINDS"},"data":[0.0,0.0,0.0,0.0,0.0,0.0,0.0,0.0,0.0,0.0,0.0,0.0,0.0,0.0,0.0,0.0,0.0,0.0,0.0,0.0,0.0,0.0,0.0,0.0,0.0,0.0,0.0,0.0,0.0,0.0,0.0,0.0,0.0,0.0,0.0,0.0,0.0,0.0,0.0,0.0,0.0,0.0,0.0,0.0,0.0,0.0,0.0,0.0,0.0,0.0,0.0,0.0,0.0,0.0,0.0,0.0,0.0,0.0,0.0,0.0,0.0,0.0,0.0,0.0,0.0,0.0,0.0,0.0,0.0,0.0,0.0,0.0,0.0,0.0,0.0,0.0,0.0,0.0,0.0,0.0,0.0,0.0,0.0,0.0,0.0,0.0,0.0,0.0,0.0,0.0,0.0,0.0,0.0,0.0,0.0,0.0,0.0,0.0,0.0,0.0,0.0,0.0,0.0,0.0,0.0,0.0,0.0,0.0,0.0,0.0,0.0,0.0,0.0,0.0,0.0,0.0,0.0,0.0,0.0,0.0,0.0,0.0,0.0,0.0,0.0,0.0,0.0,0.0,0.0,0.0,0.0,0.0,0.0,0.0,0.0,0.0,0.0,0.0,0.0,0.0,0.0,0.0,0.0,0.0,0.0,0.0,0.0,0.0,0.0,0.0,0.0,0.0,0.0,0.0,0.0,0.0,0.0,0.0,0.0,0.0,0.0,0.0,0.0,0.0,0.0,0.0,0.0,0.0,0.0,0.0,0.0,0.0,0.0,0.0,0.0,0.0,0.0,0.0,0.0,0.0,0.0,0.0,0.0,0.0,0.0,0.0,0.0,0.0,0.0,0.0,0.0,0.0,0.0,0.0,0.0,0.0,0.0,0.0,0.0,0.0,0.0,0.0,0.0,0.0,0.0,0.0,0.0,0.0,0.0,0.0,0.0,0.0,0.0,0.0,0.0,0.0,0.0,0.0,0.0,0.0,0.0,0.0,0.0,0.0,0.0,0.0,0.0,0.0,0.0,0.0,0.0,0.0,0.0,0.0,0.0,0.0,0.0,0.0,0.0,0.0,0.0,0.0,0.0,0.0,0.0,0.0,0.0,0.0,0.0,0.0,0.0,0.0,0.0,0.0,0.0,0.0,0.0,0.0,0.0,0.0,0.0,0.0,0.0,0.0,0.0,0.0,0.0,0.0,0.0,0.0,0.0,0.0,0.0,0.0,0.0,0.0,0.0,0.0,0.0,0.0,0.0,0.0,0.0,0.0,0.0,0.0,0.0,0.0,0.0,0.0,0.0,0.0,0.0,0.0,0.0,0.0,0.0,0.0,0.0,0.0,0.0,0.0,0.0,0.0,0.0,0.0,0.0,0.0,0.0,0.0,0.0,0.0,0.0,0.0,0.0,0.0,0.0,0.0,0.0,0.0,0.0,0.0,0.0,0.0,0.0,0.0,0.0,0.0,0.0,0.0,0.0,0.0,0.0,0.0,0.0,0.0,0.0,0.0,0.0,0.0,0.0,0.0,0.0,0.0,0.0,0.0,0.0,0.0,0.0,0.0,0.0,0.0,0.0,0.0,0.0,0.0,0.0,0.0,0.0,0.0,0.0,0.0,0.0,0.0,0.0,0.0,0.0,0.0,0.0,0.0,0.0,0.0,0.0,0.0,0.0,0.0,0.0,0.0,0.0,0.0,0.0,0.0,0.0,0.0,0.0,0.0,0.0,0.0,0.0,0.0,0.0,0.0,0.0,0.0,0.0,0.0,0.0,0.0,0.0,0.0,0.0,0.0,0.0,0.0,0.0,0.0,0.0,0.0,0.0,0.0,0.0,0.0,0.0,0.0,0.0,0.0,0.0,0.0,0.0,0.0,0.0,0.0,0.0,0.0,0.0,0.0,0.0,0.0,0.0,0.0,0.0,0.0,0.0,0.0,0.0,0.0,0.0,0.0,0.0,0.0,0.0,0.0,0.0,0.0,0.0,0.0,0.0,0.0,0.0,0.0,0.0,0.0,0.0,0.0,0.0,0.0,0.0,0.0,0.0,0.0,0.0,0.0,0.0,0.0,0.0,0.0,0.0,0.0,0.0,0.0,0.0,0.0,0.0,0.0,0.0,0.0,0.0,0.0,0.0,0.0,0.0,0.0,0.0,0.0,0.0,0.0,0.0,0.0,0.0,0.0,0.0,0.0,0.0,0.0,0.0,0.0,0.0,0.0,0.0,0.0,0.0,0.0,0.0,0.0,0.0,0.0,0.0,0.0,0.0,0.0,0.0,0.0,0.0,0.0,0.0,0.0,0.0,0.0,0.0,0.0,0.0,0.0,0.0,0.0,0.0,0.0,0.0,0.0,0.0,0.0,0.0,0.0,0.0,0.0,0.0,0.0,0.0,0.0,0.0,0.0,0.0,0.0,0.0,0.0,0.0,0.0,0.0,0.0,0.0,0.0,0.0,0.0,0.0,0.0,0.0,0.0,0.0,0.0,0.0,0.0,0.0,0.0,0.0,0.0,0.0,0.0,0.0,0.0,0.0,0.0,0.0,0.0,0.0,0.0,0.0,0.0,0.0,0.0,0.0,0.0,0.0,0.0,0.0,0.0,0.0,0.0,0.0,0.0,0.0,0.0,0.0,0.0,0.0,0.0,0.0,0.0,0.0,0.0,0.0,0.0,0.0,0.0,0.0,0.0,0.0,0.0,0.0,0.0,0.0,0.0,0.0,0.0,0.0,0.0,0.0,0.0,0.0,0.0,0.0,0.0,0.0,0.0,0.0,0.0,0.0,0.0,0.0,0.0,0.0,0.0,0.0,0.0,0.0,0.0,0.0,0.0,0.0,0.0,0.0,0.0,0.0,0.0,0.0,0.0,0.0,0.0,0.0,0.0,0.0,0.0,0.0,0.0,0.0,0.0,0.0,0.0,0.0,0.0,0.0,0.0,0.0,0.0,0.0,0.0,0.0,0.0,0.0,0.0,0.0,0.0,0.0,0.0,0.0,0.0,0.0,0.0,0.0,0.0,0.0,0.0,0.0,0.0,0.0,0.0,0.0,0.0,0.0,0.0,0.0,0.0,0.0,0.0,0.0,0.0,0.0,0.0,0.0,0.0,0.0,0.0,0.0,0.0,0.0,0.0,0.0,0.0,0.0,0.0,0.0,0.0,0.0,0.0,0.0,0.0,0.0,0.0,0.0,0.0,0.0,0.0,0.0,0.0,0.0,0.0,0.0,0.0,0.0,0.0,0.0,0.0,0.0,0.0,0.0,0.0,0.0,0.0,0.0,0.0,0.0,0.0,0.0,0.0,0.0,0.0,0.0,0.0,0.0,0.0,0.0,0.0,0.0,0.0,0.0,0.0,0.0,0.0,0.0,0.0,0.0,0.0,0.0,0.0,0.0,0.0,0.0,0.0,0.0,0.0,0.0,0.0,0.0,0.0,0.0,0.0,0.0,0.0,0.0,0.0,0.0,0.0,0.0,0.0,0.0,0.0,0.0,0.0,0.0,0.0,0.0,0.0,0.0,0.0,0.0,0.0,0.0,0.0,0.0,0.0,0.0,0.0,0.0,0.0,0.0,0.0,0.0,0.0,0.0,0.0,0.0,0.0,0.0,0.0,0.0,0.0,0.0,0.0,0.0,0.0,0.0,0.0,0.0,0.0,0.0,0.0,0.0,0.0,0.0,0.0,0.0,0.0,0.0,0.0,0.0,0.0,0.0,0.0,0.0,0.0,0.0,0.0,0.0,0.0,0.0,0.0,0.0,0.0,0.0,0.0,0.0,0.0,0.0,0.0,0.0,0.0,0.0,0.0,0.0,0.0,0.0,0.0,0.0,0.0,0.0,0.0,0.0,0.0,0.0,0.0,0.0,0.0,0.0,0.0,0.0,0.0,0.0,0.0,0.0,0.0,0.0,0.0,0.0,0.0,0.0,0.0,0.0,0.0,0.0,0.0,0.0,0.0,0.0,0.0,0.0,0.0,0.0,0.0,0.0,0.0,0.0,0.0,0.0,0.0,0.0,0.0,0.0,0.0,0.0,0.0,0.0,0.0,0.0,0.0,0.0,0.0,0.0,0.0,0.0,0.0,0.0,0.0,0.0,0.0,0.0,0.0,0.0,0.0,0.0,0.0,0.0,0.0,0.0,0.0,0.0,0.0,0.0,0.0,0.0,0.0,0.0,0.0,0.0,0.0,0.0,0.0,0.0,0.0,0.0,0.0,0.0,0.0,0.0,0.0,0.0,0.0,0.0,0.0,0.0,0.0,0.0,0.0,0.0,0.0,0.0,0.0,0.0,0.0,0.0,0.0,0.0,0.0,0.0,0.0,0.0,0.0,0.0,0.0,0.0,0.0,0.0,0.0,0.0,0.0,0.0,0.0,0.0,0.0,0.0,0.0,0.0,0.0,0.0,0.0,0.0,0.0,0.0,0.0,0.0,0.0,0.0,0.0,0.0,0.0,0.0,0.0,0.0,0.0,0.0,0.0,0.0,0.0,0.0,0.0,0.0,0.0,0.0,0.0,0.0,0.0,0.0,0.0,0.0,0.0,0.0,0.0,0.0,0.0,0.0,0.0,0.0,0.0,0.0,0.0,0.0,0.0,0.0,0.0,0.0,0.0,0.0,0.0,0.0,0.0,0.0,0.0,0.0,0.0,0.0,0.0,0.0,0.0,0.0,0.0,0.0,0.0,0.0,0.0,0.0,0.0,0.0,0.0,0.0,0.0,0.0,0.0,0.0,0.0,0.0,0.0,0.0,0.0,0.0,0.0,0.0,0.0,0.0,0.0,0.0,0.0,0.0,0.0,0.0,0.0,0.0,0.0,0.0,0.0,0.0,0.0,0.0,0.0,0.0,0.0,0.0,0.0,0.0,0.0,0.0,0.0,0.0,0.0,0.0,0.0,0.0,0.0,0.0,0.0,0.0,0.0,0.0,0.0,0.0,0.0,0.0,0.0,0.0,0.0,0.0,0.0,0.0,0.0,0.0,0.0,0.0,0.0,0.0,0.0,0.0,0.0,0.0,0.0,0.0,0.0,0.0,0.0,0.0,0.0,0.0,0.0,0.0,0.0,0.0,0.0,0.0,0.0,0.0,0.0,0.0,0.0,0.0,0.0,0.0,0.0,0.0,0.0,0.0,0.0,0.0,0.0,0.0,0.0,0.0,0.0,0.0,0.0,0.0,0.0,0.0,0.0,0.0,0.0,0.0,0.0,0.0,0.0,0.0,0.0,0.0,0.0,0.0,0.0,0.0,0.0,0.0,0.0,0.0,0.0,0.0,0.0,0.0,0.0,0.0,0.0,0.0,0.0,0.0,0.0,0.0,0.0,0.0,0.0,0.0,0.0,0.0,0.0,0.0,0.0,0.0,0.0,0.0,0.0,0.0,0.0,0.0,0.0,0.0,0.0,0.0,0.0,0.0,0.0,0.0,0.0,0.0,0.0,0.0,0.0,0.0,0.0,0.0,0.0,0.0,0.0,0.0,0.0,0.0,0.0,0.0,0.0,0.0,0.0,0.0,0.0,0.0,0.0,0.0,0.0,0.0,0.0,0.0,0.0,0.0,0.0,0.0,0.0,0.0,0.0,0.0,0.0,0.0,0.0,0.0,0.0,0.0,0.0,0.0,0.0,0.0,0.0,0.0,0.0,0.0,0.0,0.0,0.0,0.0,0.0,0.0,0.0,0.0,0.0,0.0,0.0,0.0,0.0,0.0,0.0,0.0,0.0,0.0,0.0,0.0,0.0,0.0,0.0,0.0,0.0,0.0,0.0,0.0,0.0,0.0,0.0,0.0,0.0,0.0,0.0,0.0,0.0,0.0,0.0,0.0,0.0,0.0,0.0,0.0,0.0,0.0,0.0,0.0,0.0,0.0,0.0,0.0,0.0,0.0,0.0,0.0,0.0,0.0,0.0,0.0,0.0,0.0,0.0,0.0,0.0,0.0,0.0,0.0,0.0,0.0,0.0,0.0,0.0,0.0,0.0,0.0,0.0,0.0,0.0,0.0,0.0,0.0,0.0,0.0,0.0,0.0,0.0,0.0,0.0,0.0,0.0,0.0,0.0,0.0,0.0,0.0,0.0,0.0,0.0,0.0,0.0,0.0,0.0,0.0,0.0,0.0,0.0,0.0,0.0,4.8793,0.0,0.0,0.0,0.0,0.0,0.0,0.0,0.0,0.0,0.0,0.0,0.0,0.0,0.0,0.0,0.0,0.0,0.0,0.0,0.0,0.0,0.0,0.0,0.0,0.0,0.0,0.0,0.0,0.0,0.0,0.0,0.0,0.0,0.0,0.0,0.0,0.0,0.0,4.4085,4.4121,4.3901,4.3506,4.3506,4.3726,4.4085,0.0,0.0,0.0,0.0,0.0,0.0,0.0,0.0,0.0,0.0,0.0,0.0,0.0,0.0,0.0,0.0,0.0,0.0,0.0,0.0,0.0,0.0,0.0,0.0,0.0,0.0,0.0,0.0,0.0,0.0,0.0,0.0,0.0,0.0,0.0,0.0,0.0,0.0,0.0,0.0,0.0,0.0,0.0,0.0,0.0,0.0,0.0,0.0,0.0,0.0,0.0,0.0,0.0,0.0,0.0,0.0,0.0,0.0,0.0,0.0,0.0,0.0,0.0,0.0,0.0,0.0,0.0,0.0,0.0,0.0,0.0,4.9968,0.0,0.0,0.0,0.0,0.0,0.0,0.0,0.0,0.0,0.0,0.0,0.0,0.0,0.0,0.0,0.0,0.0,0.0,0.0,0.0,0.0,0.0,0.0,4.3506,4.3506,4.3506,4.3506,4.3506,0.0,0.0,0.0,0.0,0.0,0.0,4.3726,4.3726,4.4011,4.47,4.391,4.3579,4.3726,4.3726,4.4048,4.4737,4.5259,0.0,0.0,0.0,0.0,0.0,0.0,0.0,0.0,0.0,0.0,0.0,0.0,0.0,0.0,0.0,0.0,0.0,0.0,0.0,0.0,0.0,0.0,0.0,0.0,0.0,0.0,0.0,0.0,0.0,0.0,0.0,0.0,0.0,0.0,0.0,0.0,0.0,0.0,0.0,0.0,0.0,0.0,0.0,0.0,0.0,0.0,0.0,0.0,0.0,0.0,0.0,0.0,0.0,0.0,0.0,0.0,0.0,0.0,0.0,0.0,0.0,0.0,0.0,5.3838,5.4095,5.462,5.462,5.4326,5.3765,5.227,5.1096,5.0372,5.2234,0.0,0.0,0.0,0.0,0.0,0.0,0.0,0.0,0.0,0.0,0.0,0.0,0.0,0.0,0.0,0.0,0.0,0.0,0.0,4.3506,4.3506,4.3506,4.3506,4.3506,4.3506,4.3506,4.3506,0.0,0.0,0.0,0.0,0.0,4.4516,4.4553,4.459,4.47,4.391,4.3873,4.4553,4.4553,4.459,4.4663,4.4093,4.4195,4.4847,0.0,0.0,0.0,0.0,0.0,0.0,0.0,0.0,0.0,0.0,0.0,0.0,0.0,0.0,0.0,0.0,0.0,0.0,0.0,0.0,0.0,0.0,0.0,0.0,0.0,0.0,0.0,0.0,0.0,0.0,0.0,0.0,0.0,0.0,0.0,0.0,0.0,0.0,0.0,0.0,0.0,4.8329,4.8374,0.0,0.0,0.0,0.0,0.0,0.0,0.0,0.0,0.0,0.0,0.0,0.0,0.0,5.4216,5.4814,5.5721,5.6223,5.6334,5.6334,5.6014,5.5438,5.5438,5.5757,5.626,5.5354,0.0,5.27,5.2307,0.0,0.0,0.0,0.0,0.0,0.0,0.0,0.0,0.0,0.0,0.0,0.0,0.0,0.0,0.0,0.0,0.0,0.0,0.0,0.0,0.0,4.3506,4.3506,4.3506,4.3901,4.4158,4.4158,4.4158,0.0,0.0,4.4415,4.4562,4.5369,4.492,4.47,4.47,4.525,4.5471,4.5369,4.5369,4.514,4.4663,4.4333,4.4635,4.5369,4.5369,0.0,0.0,0.0,0.0,0.0,0.0,0.0,0.0,0.0,0.0,0.0,0.0,0.0,0.0,0.0,0.0,0.0,0.0,0.0,0.0,0.0,0.0,0.0,0.0,0.0,0.0,0.0,0.0,0.0,0.0,0.0,0.0,0.0,0.0,0.0,0.0,0.0,0.0,0.0,4.9297,5.0215,4.9774,5.1159,5.183,0.0,0.0,0.0,0.0,0.0,0.0,0.0,0.0,0.0,5.6051,5.7189,5.774,5.7618,5.8877,5.9501,5.9501,5.9967,6.0003,5.9648,5.9648,5.982,6.0114,5.9318,5.8327,5.7068,5.4913,5.3959,5.3922,0.0,0.0,0.0,0.0,5.4546,5.4509,0.0,0.0,0.0,0.0,0.0,0.0,0.0,0.0,0.0,0.0,0.0,0.0,4.3506,4.369,4.38,4.38,4.4333,4.4773,4.4993,4.481,4.5067,4.5847,4.5333,4.536,4.6177,4.5801,4.5617,4.5617,4.6828,4.7012,4.6214,4.6214,4.5764,4.4993,4.4993,4.5214,4.559,4.559,4.6058,4.6792,0.0,0.0,0.0,0.0,0.0,0.0,0.0,0.0,0.0,0.0,0.0,0.0,0.0,0.0,0.0,0.0,0.0,0.0,0.0,0.0,0.0,0.0,0.0,0.0,0.0,0.0,0.0,0.0,0.0,0.0,0.0,0.0,0.0,0.0,0.0,0.0,0.0,5.0875,5.2013,5.1206,5.3078,5.3959,0.0,0.0,0.0,0.0,0.0,0.0,5.8205,5.9318,6.0236,6.1031,6.2059,6.2169,6.1361,6.2768,6.3356,6.3185,6.3759,6.4053,6.4053,6.4053,6.393,6.371,6.2915,6.2108,6.108,5.7629,5.5879,5.539,5.5989,5.6209,5.6209,5.6209,5.6209,5.6172,0.0,0.0,0.0,0.0,0.0,0.0,0.0,0.0,0.0,0.0,0.0,4.3506,4.3506,4.4195,4.4626,4.4626,4.4663,4.503,4.5773,4.5104,4.5067,4.5847,4.5847,4.6205,4.7003,4.7746,4.8113,4.8113,4.8186,4.7819,4.7039,4.7039,4.6608,4.5847,4.5847,4.5443,4.4773,4.4773,4.5214,4.5957,4.5957,0.0,0.0,0.0,0.0,0.0,0.0,0.0,0.0,0.0,0.0,0.0,0.0,0.0,0.0,0.0,0.0,0.0,0.0,0.0,0.0,0.0,0.0,0.0,0.0,0.0,0.0,0.0,0.0,0.0,0.0,0.0,0.0,0.0,0.0,0.0,0.0,0.0,0.0,5.206,5.539,0.0,0.0,0.0,0.0,5.7703,5.9171,6.0774,6.2426,6.404,6.5288,6.6109,6.765,6.8091,6.7297,6.8128,6.8164,6.7407,6.7444,6.7444,6.7444,6.7444,6.7026,6.6256,6.5472,6.4677,6.3589,5.9538,5.785,5.7813,5.785,5.7886,5.7886,5.7886,5.7886,5.7776,0.0,0.0,0.0,0.0,0.0,0.0,0.0,0.0,4.3506,4.3506,4.3506,4.369,4.4232,4.4516,4.492,4.5443,4.548,4.559,4.5883,4.5626,4.5838,4.6645,4.6682,4.7049,4.7856,4.8673,4.9077,4.9123,4.9664,4.9764,4.9471,4.9471,4.904,4.8242,4.7682,4.7012,4.6195,4.5691,4.5626,4.5883,4.5883,4.6691,0.0,0.0,0.0,0.0,0.0,0.0,0.0,0.0,0.0,0.0,0.0,0.0,0.0,0.0,0.0,0.0,0.0,0.0,0.0,0.0,0.0,0.0,0.0,0.0,0.0,0.0,0.0,0.0,0.0,0.0,0.0,0.0,0.0,0.0,0.0,0.0,0.0,5.8045,6.086,0.0,6.152,6.2169,6.2915,6.3429,6.4457,6.5815,6.7393,6.8554,6.9509,7.033,7.0917,7.1101,7.077,7.1064,7.0807,7.0036,7.0036,7.0036,7.0,6.9486,6.9376,6.9509,6.8187,6.7467,6.7026,6.5044,6.2989,6.1068,6.1068,6.1068,6.1068,6.1068,6.1068,6.1031,0.0,0.0,0.0,0.0,0.0,0.0,0.0,4.3506,4.3506,4.3506,4.3726,4.4195,4.503,4.536,4.5838,4.6654,4.6214,4.614,4.6654,4.6214,4.6397,4.7443,4.7783,4.8333,4.914,5.0215,5.0765,5.0812,5.161,5.1756,5.1206,5.1206,5.0765,4.9968,4.9407,4.8847,4.8296,4.7792,4.6911,4.5883,4.5883,4.6874,4.8086,0.0,0.0,0.0,0.0,0.0,0.0,0.0,0.0,0.0,0.0,0.0,0.0,0.0,0.0,0.0,0.0,0.0,0.0,0.0,0.0,0.0,0.0,0.0,0.0,0.0,0.0,0.0,0.0,0.0,0.0,0.0,0.0,0.0,0.0,0.0,6.1153,6.3025,6.5411,6.6793,6.6536,6.7233,6.7944,6.8495,6.9522,7.0697,7.2055,7.2642,7.3289,7.4096,7.4133,7.4001,7.3707,7.3707,7.3303,7.2518,7.2518,7.2518,7.2481,7.1982,7.1872,7.2041,7.0991,7.0367,7.0073,6.9522,6.8054,6.5949,6.4897,6.4457,6.4457,6.4457,6.4457,6.4457,0.0,0.0,0.0,0.0,0.0,0.0,4.3506,4.3506,4.3506,4.3506,4.4232,4.503,4.5847,4.6682,4.7489,4.8296,4.6874,4.6617,4.8186,4.6801,4.6654,4.8296,4.9197,5.0041,5.0875,5.2443,5.3251,5.3287,5.4032,5.3628,5.2097,5.2097,5.1693,5.0949,5.0912,5.0912,5.0912,5.0875,4.904,4.6104,4.603,4.6948,4.8333,0.0,0.0,0.0,0.0,0.0,0.0,0.0,0.0,0.0,0.0,0.0,0.0,0.0,0.0,0.0,0.0,0.0,0.0,0.0,0.0,0.0,0.0,0.0,0.0,0.0,0.0,0.0,0.0,0.0,0.0,0.0,0.0,0.0,6.0639,6.3417,6.5802,6.6696,6.8898,7.0073,6.9288,7.1394,7.2789,7.2789,7.4206,7.5417,7.6203,7.624,7.657,7.7362,7.7399,7.6995,7.6203,7.6203,7.5763,7.4977,7.494,7.494,7.494,7.4903,7.4478,7.378,7.3758,7.3303,7.2569,7.2569,7.2569,7.2275,6.9059,6.7847,6.7847,6.7811,6.7811,6.7811,0.0,0.0,0.0,0.0,0.0,0.0,4.3506,4.3506,4.3506,4.3506,4.4709,4.5883,4.6682,4.8049,4.9224,5.0031,4.8076,4.7195,4.8223,4.6801,4.7168,4.9994,5.0325,5.1389,5.3371,5.3849,5.4363,5.495,5.4583,5.4473,5.4594,5.4006,5.3922,5.4263,5.3665,5.3408,5.3371,5.2774,5.2003,5.1049,4.9307,4.883,4.916,0.0,0.0,0.0,0.0,0.0,0.0,0.0,0.0,0.0,0.0,0.0,0.0,0.0,0.0,0.0,0.0,0.0,0.0,0.0,0.0,0.0,0.0,0.0,0.0,0.0,0.0,0.0,0.0,0.0,0.0,0.0,0.0,6.6366,6.5791,6.7981,7.061,7.3156,7.5102,7.6423,7.6754,7.7928,7.8662,7.8662,7.9066,7.9433,7.9653,7.9103,7.8898,7.9103,7.9103,7.8993,7.8788,7.8185,7.7488,7.6628,7.6041,7.5763,7.5763,7.516,7.5087,7.5395,7.4808,7.4426,7.4243,7.4243,7.4243,7.3986,7.1344,7.066,7.1101,7.055,7.0316,7.022,0.0,0.0,0.0,0.0,0.0,0.0,4.3506,4.3506,4.3616,4.3975,4.5406,4.6828,4.7966,4.9013,4.9784,5.0261,4.8333,4.7296,4.7783,4.7893,4.8967,5.1206,5.194,5.3115,5.4851,5.5244,5.5647,5.6088,5.5647,5.5464,5.5585,5.5108,5.5144,5.5585,5.5108,5.4913,5.4876,5.4399,5.4216,5.4069,5.2685,5.1914,5.151,5.0682,5.0875,5.1657,5.1987,5.2281,5.2564,5.2894,0.0,0.0,0.0,0.0,0.0,0.0,0.0,0.0,0.0,0.0,0.0,0.0,0.0,0.0,0.0,0.0,0.0,0.0,0.0,0.0,0.0,0.0,0.0,0.0,6.9119,7.1982,7.3538,7.4111,7.5432,7.8295,7.9507,8.0424,8.1232,8.1746,8.1986,8.1986,8.1986,8.184,8.1525,8.1048,8.0807,8.0807,8.0461,8.0277,8.0277,7.9507,7.8846,7.8332,7.7524,7.7157,7.7121,7.6298,7.6151,7.6592,7.6114,7.5894,7.5894,7.5894,7.5894,0.0,0.0,0.0,0.0,0.0,7.2812,7.2738,0.0,0.0,0.0,0.0,0.0,0.0,4.3506,4.3506,4.38,4.459,4.6168,4.7783,4.9224,4.9601,4.9747,4.9867,4.8269,4.7333,4.748,4.9654,5.1389,5.2354,5.3775,5.495,5.5842,5.6565,5.6921,5.6921,5.6847,5.6528,5.5989,5.5915,5.5989,5.6136,5.6136,5.6136,5.6136,5.6136,5.6136,5.6136,5.6136,5.5438,5.4326,5.3618,5.3728,5.4363,5.5071,5.4509,5.3581,5.4179,0.0,0.0,0.0,0.0,0.0,0.0,0.0,0.0,0.0,0.0,0.0,0.0,0.0,0.0,0.0,0.0,0.0,0.0,0.0,0.0,0.0,0.0,0.0,0.0,7.4683,7.7546,8.2113,8.0975,8.0388,8.226,8.2553,8.2847,8.3454,8.3711,8.3748,8.3675,8.3675,8.3361,8.2627,0.0,0.0,0.0,0.0,8.1269,8.1269,8.0388,7.9926,7.9926,7.9103,7.8736,7.8699,7.7839,7.7436,7.7436,7.7362,7.7289,7.7289,7.7289,7.7289,7.7179,7.5747,7.5124,7.505,7.505,7.505,7.5014,0.0,0.0,0.0,0.0,0.0,0.0,4.3506,4.3506,4.38,4.459,4.6682,4.8186,4.848,4.9738,5.0839,5.1473,4.9407,4.8627,4.9985,5.1132,5.2721,5.4814,5.5218,5.6062,5.7494,5.7703,5.7776,5.7776,5.7104,5.7398,5.8499,5.785,5.8217,5.9465,5.9465,5.9465,5.9465,5.9465,5.9465,5.9465,5.9465,5.7446,5.4363,5.4216,5.3849,5.3434,5.3618,5.4289,5.5071,5.4583,5.506,5.5757,5.5108,5.4447,0.0,0.0,0.0,0.0,0.0,0.0,0.0,0.0,0.0,0.0,0.0,0.0,0.0,0.0,0.0,0.0,0.0,0.0,0.0,7.5821,7.9931,8.3508,8.5783,8.6224,8.5783,8.4315,8.4719,8.4903,8.4425,8.5563,8.6023,8.538,8.5343,8.527,8.5103,8.4499,8.4132,8.4132,8.3344,8.2941,8.2941,8.1489,8.0755,8.0755,0.0,0.0,7.9559,7.8699,7.8369,7.8295,7.7619,7.7289,7.7289,7.7289,7.7289,7.7289,7.6959,7.6445,7.5873,7.5873,7.5873,7.5799,0.0,0.0,0.0,0.0,0.0,0.0,4.3506,4.3506,4.3947,4.5149,4.6718,4.8003,4.8857,4.9297,4.9701,5.0105,4.904,4.9361,5.182,5.3115,5.4887,5.7299,5.7776,5.8364,5.9171,5.9208,5.9208,5.9208,5.8792,5.9013,5.9783,5.9795,6.0236,6.1006,6.1398,6.1582,6.1582,6.1582,6.1582,6.1582,6.1582,6.0407,5.8499,5.7703,5.6884,5.626,5.6664,5.6785,5.6785,5.6822,5.6811,5.6737,5.6345,5.5647,5.5071,0.0,0.0,0.0,0.0,0.0,0.0,0.0,0.0,0.0,0.0,0.0,0.0,0.0,0.0,6.8201,0.0,0.0,7.7928,8.1583,8.4188,8.6354,8.7968,8.8556,8.8335,8.7124,8.7362,8.7435,8.7014,8.7711,8.8042,8.7619,8.7619,8.7619,8.7619,8.6848,8.6407,8.6407,8.5233,8.4609,8.4609,8.3398,8.281,8.281,8.2003,8.1599,8.1562,8.0351,7.98,7.9727,7.8479,7.7949,7.7913,7.7472,7.7289,7.7289,7.7289,7.7069,7.6702,7.6702,7.6702,7.6628,0.0,0.0,0.0,0.0,0.0,0.0,0.0,4.3506,4.402,4.548,4.6498,4.7599,4.8976,4.8636,4.8296,4.8296,4.8884,5.0498,5.3471,5.5317,5.7226,5.9343,6.0334,6.0701,6.0419,6.0566,6.0639,6.0639,6.0639,6.0786,6.1117,6.1777,6.2181,6.2365,6.316,6.3527,6.3527,6.3673,6.3747,6.3747,6.3747,6.3747,6.36,6.2328,6.1031,5.9967,6.0456,5.9685,5.8584,5.9196,5.8572,5.7508,5.7703,5.7299,5.6723,5.6576,5.7237,0.0,0.0,0.0,0.0,0.0,0.0,0.0,0.0,6.2866,6.4567,6.9316,7.1541,7.4147,7.8883,8.0697,8.2737,8.6794,8.7711,8.8372,8.9693,8.9877,8.9877,8.9877,8.973,8.9583,8.9436,8.9546,8.9583,8.94,8.9253,8.9253,8.94,8.85,8.8059,8.8206,8.6628,8.58,8.58,8.5013,8.4609,8.4609,8.3931,8.3638,8.3564,8.2133,8.1379,8.1158,7.9543,7.8736,7.8552,7.7986,7.7693,7.7546,7.7546,7.7546,7.7546,7.7362,7.7289,7.7289,0.0,0.0,0.0,0.0,0.0,0.0,0.0,0.0,4.3836,4.4737,4.6168,4.7186,4.7379,4.7929,4.8296,4.8296,5.0975,5.3398,5.5218,5.7508,5.9233,6.0224,6.1728,6.1875,6.0419,6.108,6.1484,6.1484,6.1484,6.223,6.3699,6.3772,6.42,6.4921,6.5742,6.6072,6.6145,6.6856,6.715,6.715,6.715,6.715,6.715,6.6966,6.5007,6.2316,6.1704,6.0896,6.0162,6.0236,6.0162,6.0126,6.0823,6.1019,6.0786,6.0089,5.8988,5.7813,5.6932,5.7373,5.8951,6.2401,6.3442,6.5411,0.0,7.3729,7.4463,7.8662,8.0791,8.2317,8.3691,8.5747,8.7655,8.8923,9.0335,9.1326,9.151,9.1546,9.1546,9.1546,9.0922,9.017,8.9473,9.006,9.017,8.9436,8.8757,8.8647,8.9363,8.7968,8.7472,8.8169,8.6628,8.58,8.58,8.5013,8.4609,8.4609,8.4499,8.4462,8.4425,8.3528,8.2737,8.1966,8.0367,7.9265,7.8662,7.9265,7.9103,7.8442,7.8442,7.8442,7.8369,7.7582,7.7289,7.7289,0.0,0.0,0.0,0.0,0.0,0.0,0.0,0.0,4.38,4.459,4.5287,4.6049,4.7003,4.7819,4.8113,4.7636,5.0608,5.3592,5.6124,5.8547,6.0884,6.316,6.3894,6.393,6.327,6.3576,6.3759,6.3759,6.3759,6.4347,6.5521,6.5975,6.6623,6.7417,6.8238,6.8862,6.9339,6.9669,7.0073,7.0477,7.0477,7.022,6.9743,6.9265,6.7357,6.4787,6.3503,6.2218,0.0,6.0566,6.0419,6.0529,6.1337,6.1263,6.086,6.0493,6.0272,6.0346,6.1435,6.2328,6.3576,6.6219,6.8641,7.1505,7.5821,7.7304,7.9029,8.3564,8.5783,8.7435,8.9234,9.0739,9.184,0.0,9.2831,9.3088,9.2611,9.2574,9.2024,9.0592,9.0922,9.1179,9.0849,9.1106,9.1179,9.0812,9.0482,9.0445,9.0776,8.9693,8.9033,8.8886,8.8225,8.7655,8.7215,8.7325,8.7381,8.7381,8.6921,8.6701,8.6664,8.538,8.4095,8.2847,8.1672,8.0718,7.9984,7.9853,7.9596,7.9302,7.9302,7.9302,7.9155,7.7803,7.7289,7.7289,0.0,0.0,0.0,0.0,0.0,0.0,0.0,0.0,0.0,0.0,4.4553,4.5324,4.6929,4.7819,4.8076,4.748,5.0215,5.3188,5.5978,5.9024,6.1887,6.4481,6.5692,6.6096,6.5632,6.6059,6.6279,6.6279,6.6279,6.6843,6.7834,6.8421,6.9119,6.9926,7.0734,7.1431,7.1967,7.2188,7.2628,7.3156,7.2936,7.2349,7.149,7.0257,6.8274,6.5962,6.4347,6.2511,6.0823,6.0015,5.9758,5.9869,6.0676,6.086,6.075,6.075,6.1153,6.2034,6.404,6.5852,6.7724,6.9986,7.3582,7.7105,7.9161,8.1122,8.3581,8.7509,8.9601,9.1308,9.3088,9.3896,9.4299,9.4299,9.4299,9.4006,9.3198,9.2905,9.1913,8.9657,9.0225,9.0886,9.1106,9.1546,9.1803,9.1803,9.1583,9.1583,9.1803,9.0849,9.0097,8.973,8.951,8.9106,8.8536,8.9106,8.94,8.94,8.883,8.8536,8.85,8.6848,8.538,8.4022,8.3214,8.226,8.1305,8.0938,8.0534,8.011,7.989,7.9816,7.9596,7.7913,7.7436,7.7619,0.0,0.0,0.0,0.0,0.0,0.0,0.0,0.0,0.0,0.0,0.0,4.5324,4.6929,4.7819,4.8296,4.826,5.0545,5.2721,5.4363,5.8914,6.1961,6.2829,6.6683,6.8054,6.6512,6.7981,6.8775,6.8775,6.8775,6.9582,7.116,7.1197,7.16,7.2422,7.323,7.3597,7.367,7.4478,7.4793,7.4757,7.3964,7.3193,7.2202,6.9853,6.7417,6.5105,6.3453,6.1288,5.9159,5.8327,5.807,5.8217,5.9013,6.0334,6.1557,6.1557,6.1569,6.1777,6.2646,6.5802,6.9765,7.3729,7.7766,8.1636,8.4829,8.7399,8.9583,9.1289,9.2978,9.4153,9.4226,9.4263,9.4299,9.4299,9.4299,9.4006,9.3198,9.2354,9.1216,8.9583,8.8739,8.861,0.0,9.0886,9.1803,9.1803,9.1069,9.0996,9.1767,9.028,8.9767,9.0555,8.9803,8.94,8.9363,8.94,8.94,8.94,8.9363,8.9363,8.9326,8.7711,8.6518,8.5673,8.4866,8.3618,8.2223,8.2977,8.2353,8.0901,8.0094,7.9816,7.9596,7.7913,7.7839,7.8442,0.0,0.0,0.0,0.0,0.0,0.0,0.0,0.0,0.0,0.0,0.0,0.0,0.0,0.0,0.0,0.0,5.0068,5.2123,5.4252,5.8437,6.141,6.2756,6.6719,6.8641,6.8091,6.9155,7.022,7.1284,7.0756,7.1321,7.2899,7.2899,7.334,7.4096,7.4368,7.4808,7.5322,7.5579,7.6004,7.6335,7.4441,7.3523,7.2899,6.9412,6.6256,6.3343,0.0,5.9196,5.7471,5.6675,5.6393,5.6539,5.7361,5.8364,5.9538,6.1129,6.2768,6.4811,6.8298,7.2239,7.6313,8.0351,8.3968,8.7124,8.9271,9.1253,9.2794,9.3345,9.2611,9.184,9.184,9.184,9.2024,9.2537,9.4006,9.4813,9.4006,9.3639,9.206,8.8262,8.8977,0.0,0.0,0.0,0.0,9.173,9.1546,9.151,9.1803,9.1289,9.0886,9.0629,9.0849,9.0739,9.0207,9.0739,9.0996,9.0996,9.0427,8.962,8.861,8.8059,8.7362,8.6554,8.5747,8.4792,8.3765,8.3491,8.2774,8.1782,8.1489,8.1379,8.1195,7.9543,7.914,7.9192,0.0,0.0,0.0,0.0,0.0,0.0,0.0,0.0,0.0,0.0,0.0,0.0,0.0,0.0,0.0,0.0,0.0,5.1132,5.3004,5.6345,5.8988,6.0591,6.4004,6.5999,6.6292,6.7063,6.8164,6.9486,6.9545,7.0403,7.1982,7.2863,7.3707,7.4478,7.4757,7.5197,7.5652,7.5359,7.5212,7.494,7.2532,7.1041,6.9867,6.6072,6.2989,0.0,5.8242,5.6811,5.5831,5.5023,5.473,5.4876,5.5684,5.7483,5.9685,6.1814,6.5044,6.8811,7.3068,7.7414,8.1636,8.538,8.8519,9.1051,9.2391,9.3529,9.4116,9.3529,9.1913,9.0335,8.9491,8.929,8.9491,9.0005,9.1895,9.3216,9.3015,9.2978,9.1693,8.8262,8.8959,8.905,0.0,0.0,0.0,9.1253,9.1657,9.1803,9.1803,9.1803,9.1546,9.1069,9.1546,9.1546,9.1033,9.1546,9.1803,9.1803,9.0996,8.9931,8.861,8.8316,8.7766,8.6978,8.6444,8.5783,8.4976,8.4462,8.3618,8.259,8.2296,8.2003,8.1599,8.0293,7.9633,7.9192,0.0,0.0,0.0,0.0,0.0,0.0,0.0,0.0,0.0,0.0,0.0,0.0,0.0,0.0,0.0,0.0,0.0,0.0,5.0692,5.3004,5.5023,5.6554,5.9013,6.0713,6.1459,6.2291,6.3135,6.4029,6.5558,6.71,6.8701,7.1027,7.2532,7.3303,7.4074,7.439,7.4353,7.3597,7.2386,7.072,6.8348,6.6012,6.3625,6.037,5.8205,5.6675,5.5097,5.4509,5.4326,5.3581,5.3471,5.3765,5.462,5.8107,6.2267,6.4053,6.8531,7.3656,7.6922,8.1326,8.5783,8.8886,9.1455,9.3418,9.4153,9.4263,9.3749,9.1987,9.0812,8.9381,8.6941,0.0,8.6721,8.6867,8.8409,8.9877,9.0739,9.0849,9.0501,0.0,0.0,0.0,0.0,0.0,0.0,9.0647,0.0,9.1803,9.1803,9.1803,9.1803,9.1803,9.1803,9.1803,9.1803,9.1803,9.1803,9.1803,9.1033,9.0244,8.9436,8.8647,8.7839,8.7051,8.7014,8.6554,8.58,8.5747,8.4792,8.3308,8.2517,8.1709,8.0901,8.011,7.9302,7.8479,0.0,0.0,0.0,0.0,0.0,0.0,0.0,0.0,0.0,0.0,0.0,0.0,0.0,0.0,0.0,0.0,0.0,0.0,4.9858,5.216,5.3691,5.4095,5.7581,5.96,5.982,6.0591,6.1692,6.3123,6.3527,6.431,6.5338,6.6586,6.7233,6.7467,6.7637,6.7747,6.7747,6.7527,6.688,6.5778,6.3919,6.2781,6.1961,5.9318,5.8033,5.7556,5.6554,5.5794,5.5254,5.5071,5.6969,5.9722,6.1165,6.3699,6.693,7.0954,7.5322,7.969,8.3491,8.7655,9.1289,9.2684,9.3969,9.4777,9.4373,9.3822,9.2574,8.9711,8.6077,8.2684,8.0225,8.1289,8.3141,8.4939,8.9124,0.0,9.406,9.4244,0.0,9.1436,0.0,9.1436,9.0408,9.0849,0.0,0.0,9.206,9.1803,9.1803,9.1803,9.1803,9.1803,9.1803,9.1803,9.1803,9.1803,9.1803,9.1803,9.1583,9.1069,9.028,8.9436,8.8666,8.7876,8.7234,8.6554,8.5764,8.5159,8.4315,8.3308,8.2517,8.1709,8.0901,8.011,7.9302,7.8479,0.0,0.0,0.0,0.0,0.0,0.0,0.0,0.0,0.0,0.0,0.0,0.0,0.0,0.0,0.0,0.0,0.0,0.0,0.0,4.9764,5.0865,5.1573,5.3775,5.5159,5.5526,5.6308,5.7152,5.807,5.9134,5.9905,6.0394,6.1924,6.2609,6.2646,6.2976,6.316,6.3123,6.2756,6.1949,0.0,0.0,5.8547,5.7776,5.6418,5.6124,5.6345,5.5904,5.7042,5.9024,6.0823,6.2707,6.458,6.6219,6.9389,7.323,7.7011,8.1232,8.5399,8.8776,9.2391,9.5217,9.5327,9.5694,9.5364,9.2758,9.1546,8.9638,8.4939,8.1525,7.85,7.5711,7.7818,8.0498,8.2223,8.7252,0.0,9.3602,9.4226,9.4079,0.0,9.3345,0.0,9.2317,9.2611,9.3088,0.0,9.2831,9.2501,9.2868,9.2574,9.2354,9.2354,9.1987,9.1803,9.1803,9.1803,9.1803,9.1803,9.1436,9.1033,9.0592,8.9767,8.8959,8.8169,0.0,8.7068,8.6261,8.5453,8.4646,8.3858,8.303,8.226,8.1415,8.0608,7.98,7.8993,0.0,0.0,0.0,0.0,0.0,0.0,0.0,0.0,0.0,0.0,0.0,0.0,0.0,0.0,0.0,0.0,0.0,0.0,0.0,0.0,4.7893,4.9344,4.9417,4.9747,5.0435,5.1132,5.1473,5.1363,5.3566,5.463,5.4667,5.6895,5.7985,5.8132,5.8792,5.9123,5.9098,5.8389,5.7288,5.593,5.5365,5.4289,5.3067,0.0,5.3849,5.4583,5.4913,5.8327,6.3343,6.7857,6.9265,6.9499,7.1431,7.5726,8.0534,8.3067,8.6848,9.0721,9.3088,9.5768,9.7733,9.7016,9.6612,9.5144,9.0317,8.828,8.5637,7.9396,7.7179,7.5454,7.2569,7.5285,7.8442,7.989,8.4646,8.9234,9.217,9.3272,9.4006,9.4666,9.4777,9.474,9.463,9.452,9.4483,9.4593,9.3859,9.3675,9.4263,9.3639,9.3198,9.3088,9.2354,9.1913,9.1803,9.1803,9.1803,9.1803,9.1106,9.0776,9.0739,8.9913,8.9106,8.8353,8.8243,8.7729,8.6958,8.6114,8.5306,8.4535,8.3711,8.2847,8.1966,8.1269,8.0424,7.9559,0.0,0.0,0.0,0.0,0.0,0.0,0.0,0.0,0.0,0.0,4.5149,4.5104,0.0,0.0,0.0,0.0,0.0,0.0,0.0,0.0,0.0,4.8526,4.8526,4.86,4.8746,4.8857,4.8627,4.7966,4.903,4.9591,4.9591,5.0739,5.162,5.226,5.2407,5.2491,5.2454,5.2333,5.2113,5.1903,5.2417,5.2464,5.2344,5.3702,0.0,0.0,5.7655,5.9869,6.2842,6.9596,7.4037,7.7341,8.0938,8.4609,8.8152,9.1289,9.3272,9.4832,9.6575,9.7456,9.7879,9.7733,9.6171,9.3602,8.9381,8.5747,8.1782,7.6592,7.3303,7.0991,6.9743,7.2275,7.613,8.0975,8.538,9.0225,9.6044,9.6979,9.7126,0.0,9.7292,9.7016,9.6355,9.5694,0.0,0.0,9.5547,9.485,9.4336,9.4153,9.3786,9.3125,9.2941,9.2537,9.1803,9.1803,9.1803,9.1803,9.1657,9.1583,9.1546,9.0776,8.995,8.9143,8.85,0.0,8.6958,8.6114,8.5306,8.4535,8.3711,8.25,8.1195,8.1048,8.0057,7.8772,0.0,0.0,0.0,0.0,0.0,0.0,0.0,4.4754,4.5342,4.6948,4.7205,4.6911,4.5993,4.5516,4.5112,0.0,0.0,0.0,0.0,0.0,0.0,4.7636,4.7672,4.7856,4.8296,4.8746,4.8563,4.7709,0.0,4.8746,4.8296,4.871,4.9114,4.9517,4.9517,4.9517,4.9517,4.9994,5.0188,5.0298,5.151,5.2244,5.2747,5.3959,0.0,0.0,5.8628,6.128,6.4643,6.8609,7.4196,8.037,8.549,8.9148,9.2038,9.4276,9.6098,9.753,9.83,9.9145,9.9495,9.821,9.5768,9.206,8.5857,8.1636,7.7524,7.2239,6.994,6.8618,6.7797,7.0954,7.4882,7.8442,8.2443,8.7472,9.441,9.4997,9.5658,9.8227,9.8521,9.819,9.7383,9.6979,9.6722,9.6685,9.6355,9.5951,9.5584,9.5144,9.4373,9.3125,9.3088,9.2684,9.1803,9.1803,9.1803,9.1803,9.1803,9.1803,9.1803,9.14,9.0812,8.9987,8.9179,8.839,8.7509,8.5857,8.4939,8.4499,8.3251,8.2296,8.1562,8.1158,8.0498,7.98,0.0,0.0,0.0,0.0,0.0,0.0,0.0,4.6177,4.6874,4.882,4.938,4.8793,4.6654,4.5691,4.481,0.0,0.0,0.0,0.0,0.0,0.0,0.0,0.0,0.0,4.8039,0.0,0.0,4.7783,4.8636,0.0,0.0,0.0,0.0,0.0,4.8296,4.8296,4.837,4.9197,4.9674,0.0,0.0,5.2747,5.3544,0.0,0.0,0.0,0.0,6.1978,6.5605,6.7705,7.2762,7.9312,8.5644,9.0234,9.3629,9.4874,9.7089,9.9145,9.9328,10.0209,10.0503,9.843,9.507,9.0335,8.2737,7.8185,7.4074,6.8802,6.7554,6.7297,6.6843,7.0,7.3413,7.5726,7.9103,8.4095,9.1767,9.2537,9.4006,9.8557,9.9255,0.0,9.797,9.7916,0.0,9.6759,9.6685,9.6685,9.6685,9.5932,9.4831,9.3418,9.3198,9.2684,9.1803,9.1803,9.1803,9.1803,9.1803,9.1803,9.1803,9.1803,9.1253,9.0317,8.9657,8.8849,8.7802,8.5894,8.5013,8.4719,8.3287,8.259,8.237,8.1562,8.1158,8.0901,0.0,0.0,0.0,0.0,0.0,0.0,0.0,4.7003,4.8113,5.1242,5.0445,4.9197,4.8196,4.7379,4.6278,0.0,0.0,0.0,0.0,0.0,0.0,0.0,0.0,0.0,0.0,0.0,0.0,4.6104,4.6938,0.0,0.0,0.0,0.0,0.0,0.0,4.8296,4.8333,4.915,0.0,0.0,0.0,0.0,0.0,0.0,0.0,0.0,0.0,6.1056,6.2949,6.8939,7.121,7.2708,7.9592,8.6812,9.2915,9.4071,9.6649,9.9255,9.9989,9.9769,9.9108,9.8117,9.3786,8.8189,8.2333,7.7341,7.273,6.8545,6.71,6.6806,6.748,6.8531,7.0807,7.5359,7.7671,8.1966,9.0702,9.3161,9.5327,9.8704,0.0,0.0,9.8043,9.7916,9.7566,9.6759,9.6685,9.6685,9.6685,9.5932,9.5107,9.4226,9.3492,9.2684,9.1803,9.1803,9.1803,9.1803,9.1803,9.1803,9.1803,9.1803,9.0959,8.951,8.9436,8.8519,0.0,8.6867,8.6371,8.56,8.4719,8.3948,8.3197,8.237,8.1636,8.0901,0.0,0.0,0.0,0.0,0.0,0.0,4.6746,4.6682,4.7719,5.151,5.1436,5.0922,5.0545,4.9334,4.7315,4.4232,0.0,0.0,0.0,0.0,0.0,0.0,0.0,0.0,0.0,0.0,4.7416,4.6608,4.7416,0.0,0.0,0.0,0.0,0.0,0.0,4.86,4.9123,4.9921,0.0,0.0,0.0,0.0,0.0,0.0,0.0,0.0,0.0,0.0,6.3161,6.488,6.7107,6.9594,7.2183,7.7666,8.4131,8.9148,9.3602,9.7199,9.8484,9.9989,10.0613,9.786,9.3272,8.7785,8.1672,7.613,7.1394,6.8325,6.7063,6.6586,6.6916,6.765,6.9265,7.2665,7.3377,7.6423,8.4829,8.6187,8.8757,9.5437,9.6906,9.7897,0.0,0.0,9.808,9.6795,9.6685,9.6685,9.6685,9.5932,9.5345,9.5034,9.3786,9.2941,9.2574,9.206,9.1803,9.1803,9.1803,9.1803,9.1803,9.1803,9.1179,9.0097,8.962,8.8739,0.0,8.6664,8.6077,8.5673,8.4389,8.3675,8.3308,8.248,8.2003,8.1672,0.0,0.0,0.0,0.0,0.0,4.4305,4.6746,4.6828,4.7829,5.1206,5.1657,5.1546,5.1326,4.9564,4.7278,4.4461,4.3763,0.0,0.0,0.0,0.0,0.0,0.0,0.0,0.0,0.0,4.7562,4.7443,4.826,4.882,0.0,0.0,4.893,4.8673,0.0,0.0,0.0,0.0,0.0,0.0,0.0,0.0,0.0,0.0,0.0,0.0,0.0,0.0,0.0,0.0,0.0,6.7023,6.727,7.0661,7.6007,8.3507,8.9674,9.4428,9.6025,9.8814,10.0503,9.7163,9.2501,8.7198,8.1452,7.5763,7.0977,6.8531,6.7393,6.6843,6.6843,6.7517,6.8605,7.0316,7.0697,7.323,8.0167,8.1269,8.4132,9.162,9.3198,9.485,9.786,9.83,9.8007,9.7126,9.6832,9.6685,9.6685,9.5731,9.5144,9.5144,9.3822,9.2978,9.2721,9.2097,9.1803,9.1803,9.1803,9.1803,9.1803,9.1803,9.1216,9.0207,8.9657,8.8923,0.0,8.6701,8.6297,8.6334,8.4756,8.4115,8.3985,8.2957,8.2553,8.248,0.0,0.0,0.0,0.0,0.0,0.0,4.6746,4.7783,4.8884,5.0582,5.0802,5.0508,4.9711,4.7434,4.592,4.5883,4.4424,0.0,0.0,0.0,0.0,0.0,0.0,0.0,0.0,0.0,4.6691,4.8296,4.916,5.0004,5.0765,5.0765,5.0372,4.961,0.0,0.0,0.0,0.0,0.0,0.0,0.0,0.0,5.7997,0.0,0.0,0.0,0.0,0.0,0.0,0.0,0.0,0.0,0.0,6.7637,7.0426,7.776,8.4976,9.1033,9.2684,9.5511,9.7549,9.5934,9.1216,8.595,8.1929,7.657,7.1798,6.9412,6.8238,6.77,6.77,6.8348,6.8885,6.8921,7.0917,7.3927,7.8038,8.0681,8.3691,8.7766,8.8959,9.0427,9.2941,9.5327,9.7052,9.7823,9.7163,0.0,9.6685,9.518,9.4299,9.4299,9.3529,9.2684,9.1803,9.1803,9.1803,9.1803,9.1803,9.1803,9.1803,9.1803,9.0922,8.94,8.94,8.8923,0.0,8.7308,8.7472,8.8023,8.6407,8.58,8.5563,8.3985,8.3381,8.3161,0.0,0.0,0.0,0.0,0.0,0.0,0.0,4.5223,4.581,4.8003,4.7783,4.7755,4.86,4.7021,4.6104,4.6682,4.525,0.0,0.0,0.0,0.0,0.0,0.0,0.0,0.0,0.0,4.7783,4.8296,5.0261,5.1096,5.0802,5.1353,5.1169,5.0398,5.0398,5.0739,0.0,0.0,0.0,0.0,0.0,5.7299,5.7997,0.0,0.0,0.0,0.0,0.0,0.0,0.0,0.0,0.0,0.0,0.0,0.0,7.1211,7.8295,8.5086,8.6187,8.9216,9.1179,8.7362,8.4646,8.1709,7.7047,7.378,7.0977,6.8568,6.7884,6.77,6.77,6.7921,6.8788,7.0991,7.1527,7.2885,7.6387,7.947,8.3067,8.7655,9.3308,9.6722,9.6392,9.7052,9.7383,9.7089,9.6832,9.6465,9.5895,9.5914,9.5694,9.5144,9.3235,9.2354,9.2684,9.2097,9.1803,9.1803,9.1803,9.1803,9.1803,9.1803,9.0922,8.94,8.94,8.8629,8.7362,8.7088,8.7124,8.7288,8.6187,8.5453,8.4896,8.4299,8.3456,8.2561,0.0,0.0,0.0,0.0,0.0,0.0,0.0,4.4085,4.4488,4.6021,4.5764,4.6058,4.7672,4.6425,4.5874,4.7003,4.6195,0.0,0.0,0.0,0.0,0.0,0.0,0.0,4.6608,4.7131,4.8159,4.9701,5.1536,5.2527,5.2637,5.3445,5.3041,5.1709,5.1709,5.183,0.0,0.0,0.0,0.0,5.6932,5.7556,5.7997,0.0,0.0,0.0,0.0,0.0,0.0,0.0,0.0,0.0,0.0,0.0,0.0,0.0,7.2129,7.7378,8.0298,8.4042,8.6354,8.303,8.1379,7.9507,7.5506,7.2899,7.0683,6.8605,6.7921,6.77,6.77,6.7958,6.8788,7.0807,7.149,7.2775,7.5689,7.9176,8.3251,8.8096,9.3932,9.7309,9.6612,9.7346,9.7676,9.7199,9.6869,9.6502,9.5988,9.5841,9.5547,9.507,9.3529,9.2868,9.3088,9.2244,9.1803,9.1803,9.1803,9.1803,9.1803,9.1803,9.1106,8.984,8.984,8.9106,0.0,8.7582,8.7472,8.7362,8.6554,8.6113,8.583,8.5105,8.4436,8.3797,0.0,0.0,0.0,0.0,0.0,0.0,0.0,4.4121,4.4626,4.4626,4.4626,4.5177,4.6672,4.5581,4.5324,4.6892,0.0,0.0,0.0,0.0,0.0,0.0,0.0,0.0,4.5957,4.6104,4.8095,5.1987,5.2931,5.4142,5.5622,5.6418,5.5526,5.3287,5.3287,5.2847,0.0,0.0,0.0,0.0,5.7666,5.7997,0.0,0.0,0.0,0.0,0.0,0.0,0.0,0.0,0.0,0.0,0.0,0.0,0.0,0.0,0.0,0.0,0.0,7.9381,8.2207,8.1305,8.011,7.8494,7.6056,7.3215,0.0,6.9119,6.8201,6.7737,6.7847,6.8385,6.8898,6.9105,7.1027,7.334,7.5689,7.9837,8.4425,8.9253,9.1987,9.3675,9.4299,9.6465,9.7806,9.7733,9.7052,9.6575,9.6465,9.507,9.4263,9.4226,9.4189,9.3822,9.3015,9.2207,9.1803,9.1803,9.1803,9.1803,9.1803,9.1803,9.1399,0.0,9.0537,9.0096,8.9322,8.8514,8.8148,8.804,8.7389,8.7501,8.7809,8.631,8.6053,8.6203,0.0,0.0,0.0,0.0,0.0,0.0,0.0,0.0,0.0,0.0,4.38,4.3947,4.4314,4.4562,4.5104,0.0,0.0,0.0,0.0,0.0,0.0,0.0,0.0,0.0,4.6782,4.8059,4.9784,5.1987,5.4043,5.5218,5.5622,5.6418,5.5831,5.4106,5.4106,5.3995,0.0,0.0,0.0,0.0,5.7666,5.7997,0.0,0.0,0.0,0.0,5.8976,5.982,0.0,0.0,0.0,0.0,0.0,0.0,0.0,0.0,6.48,6.5411,6.7527,0.0,7.2753,7.0697,7.1284,7.1908,0.0,6.9559,6.9192,6.8201,6.7847,6.8068,6.9316,6.8678,6.8788,7.1248,7.2129,7.312,7.494,8.1893,8.861,9.3473,9.5658,9.6355,9.5327,9.6282,9.6722,9.6098,9.5914,9.5254,9.4006,9.4153,9.4006,9.3418,9.3382,9.2978,9.2097,9.1913,9.1803,9.1803,9.1803,9.1803,9.1803,9.1803,9.1682,9.1383,9.0194,8.9561,8.9257,8.8445,8.7784,8.7389,8.8257,8.8029,8.719,8.7147,8.6511,8.5537,0.0,0.0,0.0,0.0,0.0,0.0,0.0,0.0,0.0,0.0,0.0,0.0,0.0,0.0,0.0,0.0,0.0,0.0,0.0,0.0,0.0,0.0,0.0,4.5654,4.6535,4.8159,5.0178,5.2564,5.4594,5.5989,5.6723,5.7508,5.6847,5.4913,5.4546,5.462,0.0,0.0,0.0,5.7409,5.7813,0.0,0.0,0.0,0.0,0.0,5.8499,5.938,0.0,6.0896,6.1851,6.2793,0.0,0.0,0.0,0.0,6.3503,6.3613,6.404,6.6806,6.9229,6.7944,6.8862,6.9779,6.8531,6.8017,6.7577,6.6769,6.688,6.743,6.8274,6.8348,6.9045,7.1527,7.2885,7.5197,7.9821,8.4939,9.0152,9.5437,9.6832,9.7163,9.6649,9.7016,9.6906,9.6098,9.5712,9.5125,9.4263,9.3896,9.3565,9.3125,9.2721,9.2464,9.2391,9.1987,9.1803,9.1803,9.1803,9.1803,9.1803,9.1803,9.1988,9.2232,9.1035,9.025,8.9814,8.9373,8.8535,8.7618,8.8677,8.8794,8.8304,8.7767,8.7301,8.6676,0.0,0.0,0.0,0.0,0.0,0.0,0.0,0.0,0.0,0.0,0.0,0.0,0.0,0.0,0.0,0.0,0.0,0.0,0.0,0.0,0.0,0.0,4.5727,4.614,4.625,4.7865,5.0168,5.3214,5.4913,5.6539,5.8033,5.8939,5.8095,5.5768,5.5207,5.5181,0.0,0.0,0.0,5.7997,5.7997,0.0,0.0,0.0,0.0,0.0,0.0,0.0,0.0,6.0224,6.1288,6.2609,6.2462,0.0,0.0,0.0,0.0,0.0,6.305,6.5875,6.8641,6.8274,6.8972,6.9486,6.8568,6.732,6.6145,6.5582,6.6035,6.6696,6.7283,6.8348,6.9743,7.1711,7.4059,7.8427,8.6427,8.8133,9.0555,9.5878,9.6649,9.6906,9.7456,9.753,9.7199,9.6392,9.5584,9.5088,9.4941,9.3639,9.2905,9.2905,9.217,9.2134,9.2905,9.2279,9.1983,9.1983,9.1983,9.1983,9.1983,9.1983,9.2434,9.3108,0.0,0.0,9.0827,9.0543,8.9556,8.8338,8.9122,8.9704,8.9888,8.8332,8.8165,8.8342,0.0,0.0,0.0,0.0,0.0,0.0,0.0,0.0,0.0,0.0,0.0,0.0,0.0,0.0,0.0,0.0,0.0,0.0,0.0,0.0,0.0,4.6782,4.6856,4.7232,4.7929,4.9554,5.1342,5.3214,5.5489,5.7079,5.8033,5.9538,5.8939,5.6638,5.7189,5.676,5.5695,0.0,0.0,5.7997,5.7997,0.0,0.0,0.0,0.0,0.0,0.0,0.0,0.0,5.938,6.0456,6.1667,6.097,0.0,0.0,0.0,0.0,0.0,6.415,6.6366,6.7407,6.5351,6.6489,6.77,6.6182,6.5655,6.5632,6.6219,6.6402,6.754,7.0954,7.066,7.1101,7.4771,7.7451,8.1599,8.9014,9.0134,9.1583,9.5235,9.6282,9.6502,9.5914,9.5878,9.5547,9.474,9.3932,9.3161,9.2391,9.2134,9.1987,9.1987,9.1877,9.184,9.1987,9.2522,9.283,9.283,9.283,9.283,9.283,9.283,9.3218,9.386,0.0,9.1894,9.2266,9.0786,8.9703,8.9082,9.0374,9.0566,8.998,8.8911,8.8619,8.8342,0.0,0.0,0.0,0.0,0.0,0.0,0.0,0.0,0.0,0.0,0.0,0.0,0.0,0.0,0.0,0.0,0.0,0.0,0.0,0.0,4.9637,4.9728,4.9738,4.9287,4.8333,5.0792,5.3104,5.5159,5.7141,5.8939,6.0591,6.0003,5.8939,5.7446,5.7373,5.6932,5.6345,5.7483,5.7997,5.7997,0.0,0.0,0.0,0.0,0.0,0.0,0.0,0.0,0.0,0.0,6.026,6.1459,6.0639,0.0,0.0,0.0,0.0,0.0,6.2768,6.4824,6.6256,6.5558,6.754,6.9229,6.76,6.6916,6.6843,6.7614,6.8128,6.9265,7.2018,7.3325,7.5601,8.0534,8.2663,8.5306,8.9968,9.0592,9.1657,9.452,9.5584,9.6098,9.6135,9.5749,9.5345,9.4997,9.3786,9.2941,9.2537,9.206,9.1803,9.1803,9.1803,9.1803,9.1803,9.2599,9.2798,9.2348,9.2348,9.2348,9.2365,9.2814,9.3417,9.4027,0.0,9.2431,9.2591,9.1337,9.0319,8.9751,9.0772,9.0998,9.0589,8.9669,8.9056,8.8495,0.0,0.0,0.0,0.0,0.0,0.0,0.0,0.0,0.0,0.0,0.0,0.0,0.0,0.0,0.0,0.0,0.0,0.0,0.0,4.9794,5.0518,5.195,5.2354,5.1756,5.0068,5.2491,5.4939,5.7361,5.8976,6.0994,6.3343,6.1104,5.949,5.8547,5.7728,5.7141,5.6847,5.7666,5.7997,5.8033,0.0,0.0,0.0,0.0,0.0,0.0,0.0,0.0,0.0,0.0,0.0,0.0,0.0,0.0,0.0,6.037,6.0114,6.0444,6.2034,6.387,6.5545,6.6512,6.8495,7.0096,6.9816,6.8972,6.8692,7.0257,7.1064,7.1945,7.3377,7.6408,8.0262,8.5013,8.7105,8.9014,9.1418,9.1767,9.2537,9.4593,9.5401,9.5951,9.6392,9.5694,9.5125,9.4941,9.3602,9.2794,9.2794,9.217,9.1803,9.1803,9.1803,9.1803,9.1803,9.2599,9.2699,9.2071,9.2071,9.196,9.1811,9.2593,9.3169,9.3488,9.296,9.2708,9.2595,9.1722,9.0947,9.0388,9.0989,9.1095,9.0778,8.994,8.9094,8.8282,0.0,0.0,0.0,0.0,0.0,0.0,0.0,0.0,0.0,0.0,0.0,0.0,0.0,0.0,0.0,0.0,0.0,0.0,0.0,5.0298,5.1096,5.195,5.3445,5.4473,5.5071,5.5328,5.6602,5.9038,6.0639,6.2695,6.5068,6.3343,6.1692,6.0199,5.938,5.8205,5.6847,5.7666,5.7997,5.807,5.8792,0.0,0.0,0.0,0.0,0.0,0.0,0.0,0.0,0.0,0.0,0.0,0.0,0.0,6.0334,5.9526,5.9306,6.015,6.4004,6.5141,6.5668,6.7223,6.721,6.7797,7.1431,7.1027,7.0991,7.4808,7.5616,7.5946,7.6812,8.0262,8.3564,8.549,8.9031,9.2391,9.4794,9.5161,9.5492,9.6428,9.6575,9.6355,9.5639,9.485,9.4079,9.3345,9.2427,9.1877,9.1877,9.184,9.1803,9.1803,9.1803,9.1803,9.1803,9.2599,9.2955,9.2907,9.2907,9.2497,9.1732,9.2484,9.2449,9.1805,9.2293,9.2514,9.2464,9.158,9.1195,9.1118,9.1192,9.071,8.9893,8.9094,8.8256,8.7363,0.0,0.0,0.0,0.0,0.0,0.0,0.0,0.0,0.0,0.0,0.0,0.0,0.0,0.0,0.0,0.0,0.0,0.0,0.0,5.0618,5.161,5.3408,5.4546,5.5511,5.6345,5.7336,5.9281,6.2254,6.436,6.5375,6.5251,6.3062,6.119,5.9636,5.8792,5.8389,5.8279,5.807,5.829,5.8756,5.9086,5.8719,0.0,0.0,0.0,0.0,0.0,0.0,0.0,0.0,5.8792,5.9123,5.8621,5.9343,6.0224,5.9453,5.9196,5.9636,6.1692,6.3747,6.5692,6.7297,6.8605,7.0146,7.2679,7.4368,7.624,7.925,8.0681,8.1489,8.1782,8.4335,8.6921,8.8536,9.1803,9.463,9.6061,9.6245,9.6171,9.5988,9.5951,9.5658,9.4813,9.4042,9.3418,9.3125,9.2281,9.1803,9.1803,9.1803,9.1803,9.1803,9.1803,9.1803,9.1803,9.2599,9.2987,9.3003,9.2938,9.2458,9.1736,9.2398,9.2489,9.2245,9.2411,9.2479,9.2441,9.1556,9.121,9.121,9.121,9.1018,9.0624,8.9748,8.9248,8.8748,0.0,0.0,0.0,0.0,0.0,0.0,0.0,0.0,0.0,0.0,0.0,0.0,0.0,0.0,0.0,0.0,0.0,0.0,5.0655,5.0802,5.1867,5.4289,5.4913,5.5831,5.7141,5.8756,6.108,6.4103,6.6783,6.699,6.4897,6.3172,6.1667,6.0297,5.9245,5.9061,5.9526,5.8731,5.8535,5.8866,5.938,5.9086,0.0,0.0,0.0,0.0,0.0,0.0,0.0,0.0,5.8572,5.8756,5.8462,5.9318,6.0224,5.9453,5.9747,6.0444,6.0994,6.3196,6.5692,6.7297,6.9889,7.2753,7.5395,7.7928,8.0791,8.4462,8.5086,8.5049,8.5306,8.6518,8.8133,9.0262,9.3363,9.5675,9.6245,9.6318,9.6025,9.5217,9.5144,9.4813,9.4006,9.3418,9.2978,9.2721,9.2134,9.1803,9.1803,9.1803,9.1803,9.1803,9.1803,9.1803,9.1803,9.2826,9.3218,9.3003,9.2847,9.2388,9.1672,9.2051,9.2088,9.1817,9.1989,9.2095,9.2056,9.1441,9.121,9.121,9.121,9.121,9.1056,8.994,8.9509,8.9286,0.0,0.0,0.0,0.0,0.0,0.0,0.0,0.0,0.0,0.0,0.0,0.0,0.0,0.0,0.0,0.0,0.0,0.0,5.0655,5.0802,5.1867,5.4252,5.4399,5.5537,5.7923,5.9575,6.163,6.4103,6.7283,6.721,6.4066,6.4066,6.3613,6.2683,6.1104,6.0419,6.0346,5.9526,5.8756,5.8143,5.9758,5.993,5.9306,0.0,0.0,0.0,0.0,0.0,0.0,0.0,5.8646,5.8143,5.8939,5.9783,6.026,5.9453,6.0921,6.2793,6.2793,6.4004,6.5692,6.7333,7.0748,7.5028,7.9947,8.1672,8.4058,9.0482,8.861,8.6077,8.6867,8.6371,8.6885,9.0078,9.3326,9.5455,9.5492,9.5492,9.518,9.4373,9.4299,9.3969,9.318,9.3088,9.2739,9.1895,9.1822,9.1822,9.1803,9.1822,9.184,9.1822,9.1803,9.1803,9.1803,9.3312,9.3697,9.2998,9.281,9.2307,9.1614,9.1459,9.0933,9.0149,9.0886,9.121,9.121,9.121,9.121,9.121,9.121,9.121,9.0979,8.9295,8.8679,8.8449,0.0,0.0,0.0,0.0,0.0,0.0,0.0,0.0,0.0,0.0,0.0,0.0,0.0,0.0,0.0,0.0,0.0,0.0,5.0729,5.0802,5.1353,5.2648,5.4337,5.5328,5.5464,5.8731,6.1887,6.4934,6.5912,6.5007,6.234,6.234,6.1594,6.0297,6.097,6.0933,6.0346,5.9526,5.9049,5.8939,5.9967,5.993,5.9343,0.0,0.0,0.0,0.0,0.0,0.0,0.0,0.0,0.0,5.8939,6.097,6.2622,6.0639,6.1777,6.3319,6.1594,6.316,6.5949,6.8678,7.3303,7.8552,8.3985,8.4976,8.6261,9.162,9.0849,8.9087,8.8739,8.8959,8.9307,8.9693,9.2042,9.4006,9.4593,9.4666,9.4373,9.3565,9.3455,9.3344,9.3064,9.3041,9.2929,9.2649,9.3124,9.295,9.1839,9.2821,9.3187,9.2666,9.2527,9.2481,9.2481,9.2858,9.2932,9.2709,9.2616,9.2477,9.2243,9.1057,9.0635,9.0886,9.1109,9.121,9.121,9.121,9.121,9.1133,9.0509,9.0278,9.0086,8.8402,8.7786,8.7632,0.0,0.0,0.0,0.0,0.0,0.0,0.0,0.0,0.0,0.0,4.8296,4.882,0.0,0.0,0.0,0.0,0.0,0.0,0.0,5.0802,5.1316,5.2417,5.419,5.5354,5.5831,5.9134,6.152,6.2866,6.4187,6.3539,6.1153,6.2475,6.2548,6.1692,6.3319,6.3221,6.1814,6.0994,6.0077,5.9306,6.0407,6.0603,6.0272,0.0,0.0,0.0,0.0,0.0,0.0,0.0,0.0,0.0,5.8572,6.0309,6.1998,6.1117,6.2144,6.3613,6.3747,6.5215,6.782,7.2349,7.6533,8.1122,8.7051,8.9307,9.1069,9.4336,9.3198,9.1657,9.1785,9.0904,9.0391,9.1198,9.2354,9.3272,9.3749,9.3822,9.3492,9.2684,9.2574,9.259,9.2522,9.283,9.2987,9.2987,9.3677,9.3706,9.2777,9.3604,9.3742,9.296,9.2858,9.2628,9.2275,9.2487,9.2622,9.2584,9.2261,9.2237,9.2508,9.1169,9.0772,9.121,9.121,9.1018,9.071,9.1056,9.1018,9.0624,9.0124,8.9701,8.9248,8.7902,8.7401,8.7286,0.0,0.0,0.0,0.0,0.0,0.0,0.0,0.0,0.0,0.0,4.8296,4.8636,0.0,0.0,0.0,0.0,0.0,0.0,0.0,5.0912,5.161,5.3141,5.4179,5.5831,5.818,6.0309,6.0639,5.9086,6.2218,6.2548,6.037,6.3637,6.5178,6.5251,6.6806,6.6195,6.3919,6.2903,6.1178,5.9233,6.075,6.1374,6.1374,6.1459,0.0,0.0,0.0,0.0,0.0,0.0,0.0,0.0,5.829,5.8866,5.982,6.1263,6.2401,6.3967,6.7857,6.9068,7.0807,7.7304,8.0534,8.3691,8.9784,9.4042,9.6869,9.7456,9.5364,9.3822,9.5144,9.2336,9.0758,9.3602,9.3455,9.2978,9.2978,9.2978,9.2684,9.1877,9.1839,9.1929,9.1982,9.2711,9.3187,9.3112,9.3766,9.4087,9.3876,9.3998,9.366,9.2811,9.2802,9.24,9.1593,9.21,9.2357,9.2357,9.1528,9.1495,9.2133,9.1435,9.1127,9.121,9.121,9.071,8.997,9.074,9.0547,8.9778,8.9701,8.9248,8.8487,8.7594,8.7286,8.7171,0.0,0.0,0.0,0.0,0.0,0.0,0.0,0.0,0.0,0.0,0.0,0.0,0.0,0.0,0.0,0.0,0.0,0.0,0.0,5.173,5.2197,5.3177,5.5794,5.807,5.9832,5.9783,5.9233,5.8253,6.0236,6.0591,5.9526,6.2805,6.4347,6.4383,6.5375,6.4787,6.2939,6.0848,5.9306,5.8327,5.9306,5.971,5.9783,6.0407,6.015,0.0,0.0,0.0,0.0,0.0,0.0,0.0,6.0419,6.1374,6.2095,6.2426,6.404,6.6182,6.8298,7.0293,7.3303,7.98,8.6004,9.1363,9.463,9.6061,9.6392,9.529,9.5511,9.5658,9.474,9.3822,9.3051,9.2427,9.217,9.206,9.206,9.206,9.2024,9.1803,9.2348,9.2987,9.3559,9.4292,9.4427,9.3769,9.4403,9.3982,9.2154,9.3145,9.3451,9.2656,9.2606,9.2448,9.2295,9.1097,9.0462,9.0462,8.9674,8.9344,8.9547,9.007,9.0646,9.121,9.121,9.071,8.9893,9.0086,8.971,8.8902,8.8209,8.7825,8.7555,8.6709,8.6363,8.6363,0.0,0.0,0.0,0.0,0.0,0.0,0.0,0.0,0.0,0.0,0.0,0.0,0.0,0.0,0.0,0.0,0.0,0.0,0.0,0.0,5.2721,5.4289,5.7079,5.8804,5.9245,5.9233,5.8792,5.7997,5.8841,5.9233,5.9269,6.2548,6.431,6.4714,6.5925,6.5081,6.2683,6.1031,5.9648,5.8646,5.9453,5.9783,5.982,6.0224,5.9893,5.9159,5.8756,0.0,0.0,0.0,0.0,0.0,0.0,0.0,6.1949,6.3527,6.4921,6.6769,7.072,7.3252,7.6445,8.3361,8.9124,9.3418,9.4703,9.5254,9.529,9.4446,9.5254,9.5878,9.5034,9.4226,9.3455,9.2574,9.206,9.1803,9.1803,9.2124,9.2365,9.2365,9.3045,9.3677,9.4075,9.478,9.4845,9.3957,9.4578,9.4292,9.2638,9.3264,9.336,9.258,9.2112,9.1672,9.1248,8.9979,8.9325,8.9325,8.891,8.8718,8.8709,8.9218,8.939,8.9402,8.9825,8.9517,8.8748,8.9133,8.8825,8.8017,8.7594,8.7132,8.6709,8.6286,8.5863,8.5593,0.0,0.0,0.0,0.0,0.0,0.0,0.0,0.0,0.0,0.0,0.0,0.0,0.0,0.0,0.0,0.0,0.0,0.0,0.0,0.0,0.0,5.5695,5.7985,5.8939,5.8437,5.8792,5.8682,5.7997,5.785,5.8437,5.9673,6.2548,6.431,6.5141,6.6329,6.5264,6.2536,6.1447,6.0199,5.9049,5.971,5.9979,5.9979,5.9979,5.9563,5.8902,5.8253,5.8107,5.8327,5.9123,0.0,0.0,0.0,0.0,6.1031,6.415,6.5178,6.6573,7.2481,7.6188,8.0005,8.6921,9.0886,9.3125,9.3272,9.3822,9.4299,9.4299,9.4832,9.5273,9.5107,9.4006,9.3051,9.2905,9.2281,9.1803,9.1803,9.2353,9.2801,9.2801,9.3411,9.3825,9.3825,9.452,9.4572,9.3721,9.4205,9.4181,9.3326,9.3249,9.2903,9.2095,9.1364,9.0547,8.9701,8.8863,8.841,8.8256,8.8102,8.8141,8.8256,8.8256,8.8017,8.7671,8.841,8.8218,8.744,8.8179,8.794,8.7171,8.7017,8.6594,8.6094,8.594,8.5555,8.5201,0.0,0.0,0.0,0.0,0.0,0.0,0.0,0.0,0.0,0.0,4.8296,0.0,0.0,0.0,0.0,0.0,0.0,0.0,5.184,0.0,0.0,5.659,5.8279,5.949,6.0089,5.8804,5.8107,5.7997,5.7299,5.8437,6.13,6.2426,6.3429,6.4249,6.3723,6.2842,6.163,5.9391,5.8364,5.818,5.829,5.8327,5.8327,5.8327,5.8253,5.8143,5.8033,5.8437,5.9159,5.9967,6.0224,0.0,0.0,0.0,6.0896,6.3503,6.4751,6.6096,6.9743,7.6533,8.3821,8.8996,9.1693,9.3272,9.3969,9.4226,9.4299,9.4299,9.4373,9.4263,9.3565,9.3235,9.2868,9.2097,9.1877,9.1803,9.1803,9.1838,9.1859,9.1859,9.2409,9.2802,9.2802,9.345,9.3571,9.2764,9.279,9.2441,9.1595,9.1518,9.1133,9.0278,9.0124,8.9671,8.8872,8.7979,8.7171,8.644,8.5747,8.5786,8.644,8.644,8.7209,8.8526,8.8641,8.8218,8.7401,8.7517,8.7055,8.6209,8.5517,8.5593,8.6017,8.5316,8.5431,8.5978,0.0,0.0,0.0,0.0,0.0,0.0,0.0,0.0,0.0,0.0,0.0,4.882,0.0,0.0,0.0,4.8893,4.9968,5.1032,5.195,5.3849,5.528,5.6088,5.7262,5.8242,5.9024,5.7923,5.7556,5.7997,5.7189,5.8951,6.3001,6.3356,6.4457,6.6048,6.431,6.3062,6.2071,5.9208,5.7997,5.7997,5.7997,5.7997,5.7997,5.7997,5.7997,5.7997,5.7997,0.0,5.8731,5.9967,6.0419,6.0664,6.2279,0.0,0.0,0.0,6.4971,6.7357,7.378,7.9066,8.3985,8.9271,9.1143,9.1913,9.2721,9.2905,9.2905,9.2905,9.2905,9.2941,9.3088,9.2721,9.2097,9.1253,9.1143,9.0959,9.0519,9.1131,9.1638,9.1638,9.2582,9.3225,9.3225,9.3505,9.3172,9.1864,9.221,9.171,8.9902,9.0248,9.0094,8.9248,8.8748,8.8325,8.7979,8.6671,8.5555,8.467,8.4324,8.4362,8.4709,8.4709,8.5632,8.7248,8.7248,8.7017,8.6671,8.6671,8.617,8.5431,8.5508,8.5209,8.4786,8.5363,8.5209,8.4824,0.0,0.0,0.0,0.0,0.0,0.0,0.0,0.0,0.0,0.0,0.0,0.0,0.0,0.0,0.0,0.0,4.9233,5.0261,5.1877,5.3518,5.4656,5.5254,5.6271,5.7005,5.7373,5.7005,5.7068,5.7703,5.7068,5.9501,6.4727,6.4727,6.6439,6.9376,6.6379,6.42,6.2646,6.0015,5.9024,5.9134,5.8327,5.7997,5.7997,5.7997,5.7997,5.7997,5.7997,0.0,0.0,0.0,0.0,6.0334,6.1765,6.2316,0.0,0.0,0.0,6.7283,7.519,7.8678,8.1379,8.7068,8.9234,9.0262,9.1253,9.1657,9.1803,9.1803,9.1803,9.1987,9.2648,9.206,9.1362,9.0968,9.0708,9.0409,8.9965,9.0867,9.1534,9.1534,9.2463,9.2979,9.2749,9.2556,9.1902,9.0671,9.0941,9.0479,8.8795,8.9286,8.921,8.841,8.7517,8.6978,8.6786,8.5093,8.4016,8.3601,8.337,8.3409,8.3601,8.3601,8.4286,8.5478,8.5478,8.5478,8.5478,8.5478,8.5093,8.4593,8.4978,8.4632,8.4016,8.4824,8.4632,8.4101,0.0,0.0,0.0,0.0,0.0,0.0,0.0,0.0,0.0,0.0,0.0,0.0,4.9537,4.9574,4.9574,4.9537,4.9574,5.0261,5.1877,5.3518,5.4436,5.4473,5.5967,0.0,5.5732,5.6418,5.6811,5.6847,5.6811,6.0089,6.6366,6.6366,6.9302,7.4316,6.9596,6.5742,6.2756,6.1814,6.1851,6.2279,5.9245,5.7997,5.7997,5.7997,0.0,0.0,0.0,0.0,0.0,0.0,0.0,0.0,0.0,0.0,6.1667,0.0,0.0,0.0,6.9229,7.2349,7.5521,8.1195,8.549,8.8757,9.0298,9.1253,9.1803,9.1803,9.1803,9.1803,9.184,9.1216,9.0876,9.1555,9.1014,9.072,9.1301,9.1406,9.1411,9.1411,9.1375,9.1018,9.0163,8.9402,8.891,8.8833,8.8102,8.7979,8.8679,8.8756,8.8372,8.7478,8.6632,8.5786,8.5047,8.3285,8.2832,8.3601,8.2747,8.2785,8.3601,8.3601,8.364,8.3717,8.3717,8.3717,8.3717,8.3717,8.3717,8.3601,8.2785,8.3439,8.4624,8.3054,8.3478,8.4747,0.0,0.0,0.0,0.0,0.0,0.0,0.0,0.0,0.0,0.0,0.0,0.0,0.0,4.961,4.961,4.961,5.0518,5.14,5.195,5.3004,5.3849,5.4363,5.5464,5.6124,5.6381,5.6627,5.7042,5.7556,5.7042,5.9306,6.415,6.5228,6.71,6.9449,6.7687,6.6549,6.5632,6.119,5.9758,0.0,0.0,0.0,0.0,0.0,0.0,0.0,0.0,0.0,0.0,0.0,0.0,0.0,0.0,0.0,0.0,6.097,6.1777,6.3637,6.7517,7.033,7.3523,7.9229,8.292,8.5563,8.7142,8.894,9.0097,8.9601,9.0298,9.0886,9.0354,9.0846,9.1206,9.0956,9.0161,8.9638,8.9923,8.9859,8.998,9.0487,9.0436,9.0239,8.9932,8.8671,8.7632,8.7055,8.6748,8.6478,8.6286,8.6247,8.6132,8.5824,8.4939,8.4093,8.3247,8.2593,8.2208,8.1977,8.167,8.1708,8.2016,8.2016,8.2016,8.2016,8.2016,8.2601,8.3601,8.3601,8.3255,8.2785,8.3024,8.2862,8.2516,8.2978,8.3524,8.4093,0.0,0.0,0.0,0.0,0.0,0.0,0.0,0.0,0.0,0.0,0.0,0.0,0.0,0.0,5.0298,5.0041,5.1216,5.1987,5.1987,5.2747,5.3434,5.3959,5.5034,5.5732,5.6003,5.6517,5.7068,5.7593,5.7068,5.8866,6.2829,6.393,6.5325,6.6843,6.5742,6.6329,6.7797,6.3221,0.0,6.1471,0.0,0.0,5.9245,0.0,0.0,0.0,0.0,0.0,0.0,0.0,0.0,0.0,0.0,0.0,0.0,0.0,0.0,6.2952,6.5375,6.7834,7.1064,7.6754,7.936,8.1473,8.4976,8.6628,8.7601,8.8426,8.9234,8.9821,8.9803,9.037,9.0603,9.0094,8.9402,8.897,8.898,8.889,8.9014,8.9549,8.9552,8.9286,8.8662,8.7363,8.6209,8.5324,8.4978,8.4709,8.4478,8.4747,8.4786,8.4478,8.3632,8.2747,8.19,8.19,8.1631,8.1093,8.1093,8.1093,8.1093,8.1093,8.1093,8.1093,8.1093,8.1747,8.2747,8.2747,8.2401,8.1939,8.2516,8.2247,8.1593,8.2439,8.3139,8.364,0.0,0.0,0.0,0.0,0.0,0.0,0.0,0.0,0.0,4.9684,0.0,0.0,0.0,0.0,0.0,5.0949,5.161,5.206,5.206,5.2784,5.3214,5.3214,5.473,5.5218,5.4436,5.6014,5.6847,5.6847,5.6847,5.8829,6.2646,6.2719,6.4457,6.737,6.4261,6.5068,6.8715,0.0,6.704,6.5962,0.0,6.0224,6.179,0.0,0.0,0.0,6.4139,6.3613,0.0,0.0,0.0,0.0,0.0,0.0,0.0,0.0,0.0,0.0,0.0,0.0,0.0,7.3252,7.472,7.6628,8.3765,8.4242,8.4278,8.8334,8.8572,8.8535,9.0151,8.9674,8.9007,8.8905,8.886,8.8828,8.8726,8.8679,8.8641,8.8679,8.8641,8.794,8.6247,8.5363,8.4516,8.364,8.2747,8.2631,8.3524,8.4362,8.4439,8.3563,8.2716,8.19,8.1093,8.1093,8.1093,8.1093,8.1093,8.1093,8.1093,8.1093,8.1093,8.1093,8.1093,8.1093,8.1093,8.1093,8.1093,8.1093,8.1093,8.1593,8.217,8.14,8.2131,8.3447,0.0,0.0,0.0,0.0,0.0,0.0,5.161,5.0986,5.0702,0.0,0.0,0.0,5.1987,5.2527,5.2774,5.2553,5.3261,5.3482,5.2931,5.3067,5.3214,5.3214,5.473,5.5511,5.5254,5.6822,5.7666,5.7666,5.7666,5.8253,5.9355,6.0529,6.1851,6.3332,6.42,6.4897,6.5228,6.2034,0.0,6.3563,6.0444,6.1251,0.0,0.0,0.0,0.0,0.0,6.5558,6.6145,0.0,6.5118,6.5375,0.0,0.0,0.0,0.0,0.0,0.0,6.1006,0.0,0.0,0.0,0.0,0.0,7.5432,7.6754,7.8391,8.2341,8.3923,8.5073,8.6697,8.8507,8.9064,8.6782,8.7176,8.8023,8.8624,8.7594,8.7286,8.8564,8.7594,8.6632,8.617,8.4786,8.3593,0.0,8.19,8.1785,8.2631,8.2901,8.2631,8.1823,8.1554,8.1323,8.1093,8.1093,8.1093,8.1093,8.1093,8.1093,8.1093,8.1093,8.1093,8.1093,8.1093,8.1093,8.1093,8.1093,8.1093,8.1093,8.1093,8.1246,8.14,8.117,8.1747,8.2716,0.0,0.0,0.0,0.0,0.0,5.3382,5.3052,5.2894,5.2858,0.0,0.0,0.0,5.3492,5.4216,5.4572,5.4216,5.4326,5.4216,5.3728,5.3398,5.3214,5.3214,5.4436,5.5254,5.5585,5.6503,5.7336,5.7997,5.7666,5.7666,5.8033,5.8951,5.9648,6.0162,6.1594,6.1998,6.141,5.8988,0.0,0.0,6.1655,0.0,0.0,6.5815,6.6953,0.0,0.0,0.0,6.9867,6.7724,6.7173,0.0,0.0,0.0,0.0,0.0,0.0,0.0,0.0,0.0,0.0,0.0,0.0,0.0,7.3083,7.3692,7.4831,7.9853,8.1363,8.2363,8.4318,8.5787,8.6216,8.4713,8.5057,8.5887,8.6966,8.6247,8.5824,8.6487,8.567,8.4901,8.4555,8.3632,8.2716,8.1862,8.1362,8.1439,8.2247,8.1977,8.1747,8.1593,8.1285,8.1093,8.1093,8.1093,8.1093,8.1093,8.1093,8.1093,8.1093,8.1093,8.1093,8.1093,8.1093,8.1093,8.1093,8.1093,8.1093,8.1093,8.1093,8.1093,8.1093,8.1093,8.1823,8.2862,0.0,0.0,5.5658,5.5842,5.5879,5.5622,5.4913,5.5401,5.5622,0.0,5.5438,5.5915,5.6099,5.6602,5.6638,5.5915,5.5133,5.4583,5.4399,5.3728,5.3287,5.3214,5.4069,5.4876,5.5585,5.5768,5.6576,5.7997,5.7299,5.7299,5.7997,5.7997,5.7997,5.7997,5.7997,5.7997,5.7997,0.0,0.0,6.2756,6.3613,6.5608,0.0,0.0,7.2275,7.3817,7.3817,7.3905,7.3428,6.9816,6.7342,0.0,0.0,0.0,0.0,0.0,6.0566,0.0,0.0,0.0,0.0,0.0,0.0,0.0,7.3523,7.2826,7.262,7.8676,7.9406,7.97,8.2132,8.2164,8.1936,8.2212,8.2558,8.3251,8.4591,8.4703,8.4382,8.367,8.3524,8.3139,8.2362,8.2285,8.1977,8.117,8.1093,8.14,8.2131,8.1477,8.1439,8.2131,8.1477,8.1093,8.1093,8.1093,8.1093,8.1093,8.1093,8.1093,8.1093,8.1093,8.1093,8.1093,8.1093,8.1093,8.1093,8.1093,8.1093,8.1093,8.1093,8.1093,8.1093,8.1093,8.2054,8.3216,0.0,5.5941,5.6025,5.731,5.7531,5.7483,5.7299,5.7409,5.7483,5.7299,5.7409,5.8033,5.9318,5.8437,5.7703,5.7556,5.6785,5.5783,5.4473,5.4252,5.3875,5.3214,5.4583,5.5438,5.5585,5.687,5.7666,5.7997,5.785,5.785,5.7997,5.7997,5.7997,5.7997,5.7997,5.7997,5.807,5.9391,0.0,6.1924,6.2719,0.0,7.0573,7.0403,7.2129,7.4661,7.4661,7.5102,7.5485,0.0,7.1863,6.8639,0.0,0.0,0.0,0.0,0.0,0.0,0.0,0.0,0.0,0.0,0.0,0.0,6.7687,6.7907,6.9285,7.2406,7.344,7.4506,7.6895,7.9303,7.9865,7.6852,7.9491,8.2434,8.3894,8.3477,8.3208,8.3561,8.2986,8.2477,8.2324,8.2285,8.1977,8.117,8.1093,8.117,8.1323,8.1208,8.117,8.1323,8.117,8.1093,8.1093,8.1093,8.1093,8.1093,8.1093,8.1093,8.1093,8.1093,8.1093,8.1093,8.1093,8.1093,8.1093,8.1093,8.1093,8.1093,8.1093,8.1093,8.1093,8.1093,8.1323,8.167,5.6701,5.6785,5.7189,5.84,5.8951,5.9208,5.9208,5.9538,5.9795,5.9795,6.0126,6.0419,6.0419,5.9685,5.9024,5.8609,5.7508,5.6444,0.0,5.484,5.4216,5.3801,5.4583,5.539,5.6161,5.7005,5.7813,5.8609,5.8217,5.7997,5.7997,5.7997,5.7556,5.6833,5.7629,5.7556,5.6907,5.851,5.9905,6.1263,6.409,0.0,7.138,7.2188,7.3986,7.6114,7.6114,7.631,7.631,7.44,7.3365,0.0,0.0,6.7383,6.7687,0.0,6.4884,6.5655,0.0,0.0,0.0,6.7577,0.0,0.0,0.0,6.7063,6.7403,7.0539,7.0568,7.073,7.3158,7.4231,7.4634,7.4249,7.6496,7.8949,8.0837,8.1615,8.2225,8.2891,8.2208,8.1708,8.1708,8.1708,8.1516,8.1131,8.1093,8.1093,8.1093,8.1093,8.1093,8.1093,8.1093,8.1093,8.1093,8.1093,8.1093,8.1093,8.1093,8.1093,8.1093,8.1093,8.1093,8.1093,8.1093,8.1093,8.1093,8.1093,8.1093,8.1093,8.1093,8.1093,8.1093,8.1093,8.1362,8.1708,5.7031,5.7556,5.8253,5.9049,6.0003,6.0639,6.0639,6.13,6.1777,6.163,6.2438,6.2499,6.1031,0.0,0.0,0.0,5.8315,5.7214,0.0,0.0,0.0,5.4399,5.4693,5.539,5.6528,5.6847,5.7655,5.8976,5.8327,5.7997,5.7997,5.7997,5.731,5.6099,5.7262,5.7299,5.6576,5.7556,5.9391,6.1924,0.0,6.8641,7.0646,7.3215,7.5197,7.668,7.7288,7.7571,7.7204,7.4131,0.0,7.5184,6.8774,6.9852,0.0,0.0,0.0,0.0,0.0,0.0,0.0,0.0,0.0,6.7283,0.0,0.0,0.0,6.9325,6.8495,6.7834,6.9802,6.9215,6.9119,7.1248,7.2936,7.4607,7.6417,7.8394,8.0094,8.1342,8.104,8.0796,8.088,8.0738,8.0746,8.1054,8.0785,8.0746,8.1093,8.1093,8.1093,8.1093,8.1093,8.1093,8.1093,8.1093,8.1093,8.1093,8.1093,8.1093,8.1093,8.1093,8.1093,8.1093,8.1093,8.1093,8.1093,8.1093,8.1093,8.1093,8.1093,8.1093,8.1093,8.1093,8.1516,8.1977,5.785,5.7923,5.8253,5.9049,6.0456,6.1459,6.1459,6.2144,6.2389,6.1704,6.2952,6.3576,0.0,0.0,0.0,0.0,0.0,0.0,6.0896,0.0,0.0,5.4473,5.5757,5.6271,5.5768,5.7116,5.796,5.8143,5.8033,5.7997,5.7997,5.7997,5.7886,5.7703,5.7189,5.8022,5.9758,5.8547,6.1006,0.0,6.6402,6.6806,0.0,7.0499,7.2701,7.447,7.7209,7.8864,7.9576,0.0,7.7931,7.7345,0.0,7.3541,7.2496,0.0,0.0,0.0,0.0,0.0,0.0,0.0,7.0917,0.0,0.0,0.0,6.6966,6.5277,0.0,6.5655,6.5912,0.0,0.0,6.4334,6.776,7.0706,7.0832,7.2219,7.4538,7.8084,7.9047,7.961,8.0163,7.9369,7.9446,8.0977,7.9677,7.9485,8.1016,8.1093,8.1093,8.1093,8.1093,8.1093,8.1093,8.1093,8.1093,8.1093,8.1093,8.1093,8.1093,8.1093,8.1093,8.1093,8.1093,8.1093,8.1093,8.1093,8.1093,8.1093,8.1093,8.1093,8.1093,8.1093,8.117,8.1208,5.7997,5.7997,5.8253,5.9049,5.9747,6.037,6.0823,6.2805,6.3967,6.3172,6.4874,0.0,0.0,0.0,0.0,0.0,0.0,6.1374,0.0,0.0,0.0,0.0,0.0,0.0,5.7703,5.7886,5.8217,5.8682,5.8217,5.7997,5.7997,5.7997,5.774,5.7299,5.7446,5.807,5.9024,5.9281,6.0786,0.0,0.0,0.0,0.0,7.077,7.3613,7.5322,7.8283,7.9387,7.9171,0.0,7.7815,0.0,0.0,0.0,0.0,0.0,0.0,0.0,0.0,0.0,0.0,0.0,0.0,0.0,6.6109,0.0,6.4286,0.0,0.0,0.0,0.0,0.0,0.0,0.0,6.6072,6.8004,6.7949,6.9292,7.2049,7.675,7.5928,7.5594,7.7121,7.7694,7.8245,7.8846,7.8638,7.883,7.9561,8.0554,8.1093,8.1093,8.1093,8.1093,8.1093,8.1093,8.1093,8.1093,8.1093,8.1093,8.1093,8.1093,8.1093,8.1093,8.1093,8.1093,8.1093,8.1093,8.1093,8.1093,8.1093,8.1093,8.1093,8.1093,8.1093,8.1093,5.7997,0.0,0.0,5.8756,5.9049,5.9563,6.0566,6.2768,6.4237,0.0,0.0,0.0,6.7664,6.7187,0.0,0.0,6.6182,6.409,0.0,0.0,5.8584,0.0,0.0,0.0,0.0,0.0,5.851,5.8866,5.829,5.8107,5.8327,5.8107,5.7813,5.7508,5.829,5.9024,5.9758,0.0,6.2328,6.387,6.5582,6.6329,6.6906,7.1522,7.4209,7.5844,7.8477,7.9047,7.8417,7.7377,7.7883,0.0,7.6417,0.0,0.0,0.0,0.0,0.0,7.412,0.0,0.0,0.0,0.0,0.0,0.0,0.0,0.0,0.0,0.0,0.0,0.0,0.0,0.0,0.0,0.0,6.5485,6.5485,6.6292,6.8748,7.3705,7.318,7.3177,7.5203,7.6132,7.6714,7.7022,7.7109,7.7522,7.8446,7.9715,8.0592,8.1093,8.1093,8.1093,8.1093,8.1093,8.1093,8.1093,8.1093,8.1093,8.1093,8.1093,8.1093,8.1093,8.1093,8.1093,8.1093,8.1093,8.1093,8.1093,8.1093,8.1093,8.1093,8.1093,8.1093,8.1093,5.7997,5.7997,0.0,0.0,5.8682,5.9747,6.13,0.0,0.0,0.0,0.0,0.0,0.0,0.0,0.0,0.0,0.0,6.6733,6.7407,0.0,6.0089,0.0,0.0,5.8425,0.0,0.0,5.8792,5.8033,5.7997,5.84,5.9159,5.8364,5.84,5.9159,5.9967,6.1667,6.3919,6.3956,6.7136,7.1908,6.9669,7.0183,7.2237,0.0,7.3242,7.4898,7.6959,0.0,0.0,7.922,7.934,0.0,0.0,0.0,0.0,0.0,0.0,0.0,0.0,0.0,0.0,7.0353,0.0,0.0,0.0,0.0,6.4971,0.0,0.0,0.0,0.0,0.0,0.0,0.0,0.0,0.0,0.0,0.0,6.3381,6.751,7.1153,0.0,0.0,7.475,7.468,7.6301,7.4711,7.5091,7.833,7.8561,7.9369,8.1054,8.1093,8.1093,8.1093,8.1093,8.1093,8.1093,8.1093,8.1093,8.1093,8.1093,8.1093,8.1093,8.1093,8.1093,8.1093,8.1093,8.1093,8.1093,8.1093,8.1093,8.1093,8.1093,8.1093,8.1093,0.0,0.0,0.0,0.0,0.0,0.0,0.0,6.2561,0.0,0.0,0.0,0.0,0.0,7.3597,7.3817,0.0,0.0,7.0477,6.8605,6.6182,0.0,0.0,0.0,6.1582,0.0,0.0,0.0,0.0,5.8253,5.84,5.9196,5.84,5.8694,6.0003,6.026,6.1471,0.0,0.0,0.0,0.0,0.0,7.2312,7.4472,0.0,7.4391,7.4726,7.7287,7.7881,0.0,7.9277,7.9268,7.8828,7.98,7.9578,7.8911,7.8315,7.8221,0.0,0.0,0.0,7.6445,7.2936,0.0,0.0,0.0,0.0,0.0,0.0,0.0,0.0,0.0,0.0,0.0,0.0,0.0,0.0,0.0,0.0,6.1104,6.409,0.0,0.0,0.0,7.1786,7.2766,7.3576,7.302,7.3444,7.534,7.702,7.8206,7.8815,7.9898,8.0643,8.1093,8.1093,8.1093,8.1093,8.1093,8.1093,8.1093,8.1093,8.1093,8.1093,8.1093,8.1093,8.1093,8.1093,8.1093,8.1093,8.1093,8.1093,8.1093,8.1093,8.1093,8.1093,5.9673,0.0,0.0,0.0,0.0,0.0,0.0,0.0,0.0,0.0,7.1321,0.0,7.6922,0.0,7.635,0.0,7.5506,7.3083,6.9559,6.8641,0.0,6.6145,6.5081,0.0,0.0,0.0,0.0,0.0,5.9685,5.9832,6.004,5.8951,5.9123,6.0456,6.1337,6.2291,6.3516,6.7404,6.9227,0.0,0.0,7.3932,0.0,0.0,7.509,7.4983,0.0,7.7124,7.6831,7.87,7.8977,7.8677,7.9742,7.9734,7.9185,7.8389,7.8234,7.8126,7.7384,7.7229,0.0,7.3964,7.1725,0.0,6.6402,0.0,0.0,0.0,0.0,0.0,0.0,0.0,0.0,0.0,0.0,0.0,0.0,5.9269,0.0,0.0,0.0,0.0,0.0,6.9541,7.0535,7.0938,7.0899,7.1562,7.3196,7.5681,7.7334,7.7943,7.9601,8.0652,8.1093,8.1093,8.1093,8.1093,8.1093,8.1093,8.1093,8.1093,8.1093,8.1093,8.1093,8.1093,8.1093,8.1093,8.1093,8.1093,8.1093,8.1093,8.1093,8.1093,8.1093,8.1093,0.0,0.0,0.0,0.0,5.993,0.0,0.0,0.0,6.8325,0.0,7.2422,7.4845,7.7215,7.6738,7.69,7.8442,7.7084,0.0,7.066,7.1101,0.0,0.0,6.7173,6.6856,6.4506,0.0,0.0,0.0,0.0,6.2389,6.1679,6.004,5.9673,6.0529,6.2989,6.4066,6.441,6.9793,7.2584,7.3554,7.5043,7.5162,7.4519,7.4999,7.5379,7.5645,7.589,7.5616,7.5474,7.77,7.8431,7.8646,7.9694,8.0057,7.9786,7.833,7.8091,7.8096,7.7247,7.7139,7.6555,7.3509,0.0,0.0,0.0,0.0,7.005,0.0,0.0,0.0,0.0,0.0,0.0,0.0,0.0,0.0,0.0,0.0,0.0,0.0,0.0,0.0,0.0,6.8007,6.8082,6.8672,6.8445,6.9385,0.0,7.4486,7.6593,7.8193,8.003,8.0999,8.1061,8.1061,8.1069,8.1093,8.1093,8.1093,8.1093,8.1093,8.1093,8.1093,8.1093,8.1093,8.1093,8.1093,8.1093,8.1093,8.1093,8.1093,8.1093,8.1093,8.1093,8.1093,6.0566,6.1557,6.2401,0.0,6.1068,6.1374,0.0,0.0,0.0,0.0,7.5799,7.8038,7.9858,7.9323,7.8772,7.8589,7.7619,0.0,0.0,0.0,0.0,7.2481,7.1688,7.0697,6.9472,6.8091,0.0,6.4934,0.0,6.2438,6.3405,6.1153,6.0187,6.0529,6.2989,6.3723,6.343,6.8321,7.1704,7.4019,7.6682,7.7237,7.6517,0.0,7.676,7.6772,7.6209,7.591,7.5956,7.7177,7.7727,7.7993,7.8904,7.9312,7.9275,7.8429,7.8256,7.815,7.7407,7.7242,7.7105,7.6261,7.4735,7.2973,0.0,0.0,0.0,0.0,0.0,0.0,0.0,0.0,0.0,0.0,0.0,0.0,0.0,0.0,0.0,6.1331,0.0,6.2887,6.5593,6.5793,6.6255,6.7446,6.6916,6.747,6.955,7.2652,7.4395,7.4426,7.7831,7.9888,8.0343,8.0352,8.0608,8.1093,8.1093,8.1093,8.1093,8.1093,8.1093,8.1093,8.1093,8.1093,8.1093,8.1093,8.1093,8.1093,8.1093,8.1093,8.1093,8.1093,8.1093,8.1093,6.2108,0.0,0.0,6.4554,0.0,0.0,6.7637,6.8678,0.0,7.439,7.7047,0.0,7.9344,7.9617,7.9633,7.914,7.7986,0.0,7.5652,0.0,0.0,7.494,7.4368,7.3523,7.2386,7.033,0.0,6.704,0.0,6.3503,6.4066,6.1924,6.075,6.0529,6.2989,6.3833,6.3676,6.8593,7.2151,7.459,7.6209,7.6784,0.0,7.6746,7.6746,7.6669,7.6169,7.6015,7.6101,7.6699,7.6994,7.7218,7.789,7.7963,7.7767,7.7849,7.7601,7.7316,7.7301,7.751,7.7651,7.7381,7.6682,7.574,7.4302,7.4529,7.4646,0.0,0.0,0.0,0.0,0.0,0.0,0.0,0.0,0.0,0.0,0.0,0.0,0.0,6.1702,6.2583,6.4111,6.3375,6.3557,6.5295,6.5743,6.613,6.6618,7.1806,7.4188,7.2964,7.753,8.0211,8.0517,8.0909,8.1078,8.1093,8.1093,8.1093,8.1093,8.1093,8.1093,8.1093,8.1093,8.1093,8.1093,8.1093,8.1093,8.1093,8.1093,8.1093,8.1093,8.1093,8.1093,8.1093,6.4286,0.0,0.0,0.0,0.0,0.0,0.0,7.2334,0.0,7.527,0.0,7.8956,7.7766,7.8919,7.9706,7.9486,0.0,7.6702,7.5307,7.6518,7.6702,7.527,7.5873,7.5506,7.3891,7.2188,0.0,0.0,0.0,6.4677,6.4066,6.2291,6.108,6.0481,6.2879,6.4067,6.4697,6.9729,7.2955,7.4649,7.4927,7.5438,7.6015,7.613,7.6092,7.6015,7.6015,7.6015,7.604,7.6284,7.6366,7.6465,7.685,7.653,7.6174,7.6985,7.6744,7.6354,7.715,7.7803,7.8133,7.7658,7.8381,7.8693,7.6755,7.6662,7.6748,7.6085,7.4653,7.3653,0.0,0.0,0.0,0.0,0.0,0.0,0.0,0.0,0.0,0.0,0.0,0.0,6.3321,6.1659,6.1378,6.3226,6.4718,6.5101,0.0,0.0,7.4436,7.283,7.7895,8.0821,8.1129,8.1705,8.1768,8.1246,8.1131,8.1093,8.1093,8.1093,8.1093,8.1093,8.1093,8.1093,8.1093,8.1093,8.1093,8.1093,8.1093,8.1093,8.1093,8.1093,8.1093,8.1093,0.0,0.0,0.0,0.0,0.0,7.494,7.7011,7.7892,7.8458,7.8898,8.1636,8.248,7.9669,7.9633,7.925,7.7839,7.7472,0.0,0.0,0.0,0.0,7.6885,7.7032,7.6335,7.472,7.2445,7.077,0.0,0.0,0.0,6.4066,6.1704,6.0517,6.0493,6.2242,6.4021,6.5961,7.0534,0.0,7.2321,7.5557,7.6515,7.6092,7.6791,7.663,7.6015,7.6015,7.6015,7.6007,7.6048,7.6199,7.6322,7.6406,7.6479,7.6592,7.6775,7.6701,7.6776,7.7589,7.7861,7.8121,7.8739,7.9034,7.91,7.8693,7.8137,7.7824,7.8222,7.6931,7.5292,7.3873,0.0,0.0,0.0,0.0,0.0,0.0,0.0,0.0,0.0,0.0,6.3361,0.0,6.3604,6.3781,6.3725,6.3731,0.0,0.0,0.0,7.132,0.0,7.6222,7.9217,0.0,0.0,8.1032,8.2093,8.14,8.1093,8.1093,8.1093,8.1093,8.1093,8.1093,8.1093,8.1093,8.1093,8.1093,8.1093,8.1093,8.1093,8.1093,8.1093,8.1093,8.1093,0.0,0.0,0.0,0.0,0.0,0.0,0.0,8.2223,8.2627,8.0147,8.0807,8.0718,7.8736,7.9302,7.9486,7.8662,7.7803,7.7289,7.7289,7.7289,7.7289,7.7289,7.7289,0.0,7.5542,7.2738,7.1232,7.1131,0.0,0.0,6.4483,6.2399,6.0847,5.9832,6.1267,6.3821,6.7177,0.0,0.0,7.2265,7.4896,7.5976,7.6053,7.6476,7.6361,7.6015,7.6015,7.6015,7.6024,7.6153,7.5965,7.5751,7.6344,7.6036,7.5618,7.6463,7.6388,7.6335,7.7579,7.7803,7.7975,7.8976,7.936,7.9542,7.9651,7.9262,7.8837,7.8735,7.7705,7.5999,7.3325,7.0235,0.0,0.0,0.0,0.0,0.0,0.0,0.0,0.0,0.0,0.0,0.0,0.0,0.0,0.0,0.0,0.0,0.0,0.0,7.0007,0.0,0.0,0.0,8.123,0.0,8.1389,8.167,8.1285,8.1093,8.1093,8.1093,8.1093,8.1093,8.1093,8.1093,8.1093,8.1093,8.1093,8.1093,8.1093,8.1093,8.1093,8.1093,8.1093,8.1093,0.0,7.3817,0.0,0.0,7.9176,0.0,8.2517,8.5013,8.5306,8.1358,8.0277,7.936,7.7986,7.8993,7.9669,7.9286,7.806,7.7289,7.7289,7.7289,7.7289,7.7289,7.7457,7.7142,7.631,7.3444,7.1795,0.0,0.0,0.0,0.0,6.2971,6.1587,5.9841,6.1496,0.0,0.0,0.0,7.0784,7.2928,7.4382,7.5399,7.6015,7.6015,7.6015,7.6015,7.6207,7.6169,7.6086,7.6671,7.6168,7.5486,7.6478,7.5825,7.4953,7.639,7.6249,7.5956,7.7586,7.7902,7.8074,7.9305,7.9827,8.0114,8.0292,7.9919,7.9323,7.8638,7.7715,7.606,7.279,7.1552,0.0,0.0,0.0,0.0,0.0,0.0,0.0,0.0,0.0,0.0,6.3006,0.0,0.0,0.0,0.0,0.0,6.164,0.0,0.0,0.0,0.0,7.7981,8.1054,0.0,8.1823,8.1362,8.117,8.1093,8.1093,8.1093,8.1093,8.1093,8.1093,8.1093,8.1093,8.1093,8.1093,8.1093,8.1093,8.1093,8.1093,8.1093,8.1093,8.1093,0.0,0.0,0.0,0.0,0.0,0.0,8.4352,8.5233,8.549,8.4315,8.4095,8.2884,7.989,7.9706,7.9176,7.7656,7.7399,7.7289,7.7289,7.7289,7.7289,7.7289,7.7875,7.7842,7.7,7.5039,7.2563,0.0,0.0,0.0,0.0,0.0,0.0,0.0,0.0,0.0,0.0,7.0346,7.2496,7.3572,7.5231,7.5938,7.6015,7.6015,7.6015,7.6092,7.6899,7.6669,7.6238,7.7785,7.7232,7.6071,7.6955,7.6594,7.6018,7.6978,7.6632,7.6325,7.7977,7.8431,7.8838,8.0482,8.0961,8.0969,8.1007,7.9762,7.86,7.8523,7.7246,7.5322,7.2675,7.3976,7.4168,0.0,0.0,0.0,0.0,0.0,0.0,0.0,0.0,0.0,0.0,6.2551,0.0,0.0,6.2397,0.0,0.0,0.0,0.0,7.1953,7.4882,7.7938,8.1085,8.117,8.1554,8.217,8.1439,8.1093,8.1093,8.1093,8.1093,8.1093,8.1093,8.1093,8.1093,8.1093,8.1093,8.1093,8.1093,8.1093,8.1093,8.1093,8.1093,8.1093,0.0,0.0,0.0,0.0,0.0,0.0,0.0,8.6297,8.6077,8.4756,8.4168,8.303,8.0755,8.011,7.9339,7.8185,7.7582,7.7289,7.7289,7.7666,7.7889,7.7889,7.8486,7.8453,7.7676,7.5901,7.4069,0.0,0.0,0.0,0.0,0.0,0.0,0.0,0.0,6.6216,6.8498,7.0536,7.2514,7.4353,7.6092,7.6784,7.6784,7.6784,7.6476,7.6053,7.6399,7.6284,7.6169,7.7369,7.6976,7.6245,7.7599,7.7445,7.6938,7.7792,7.7753,7.7746,7.8977,7.8907,7.8907,8.0669,8.0708,8.0477,8.0977,8.0169,7.9131,7.86,7.7169,7.5707,7.4668,7.4476,7.4437,0.0,0.0,0.0,0.0,0.0,0.0,0.0,0.0,0.0,0.0,0.0,0.0,0.0,0.0,0.0,0.0,0.0,0.0,7.1574,0.0,7.6157,8.0277,8.0823,8.1246,8.1593,8.1246,8.1093,8.1093,8.1093,8.1093,8.1093,8.1093,8.1093,8.1093,8.1093,8.1093,8.1093,8.1093,8.1093,8.1093,8.1093,8.1093,8.1093,8.4188,0.0,8.4058,0.0,8.6224,8.5815,8.774,8.7643,8.682,8.5376,8.4704,8.3574,8.1517,8.0564,7.9826,7.9289,7.8241,7.7688,7.7946,7.8155,7.8365,7.8575,7.914,0.0,7.8647,7.7414,7.6037,7.4537,7.271,0.0,0.0,0.0,0.0,0.0,6.662,6.8254,7.086,7.1668,7.3206,7.52,7.6399,7.7061,7.7292,7.7292,7.7053,7.6784,7.7015,7.6784,7.6515,7.7369,7.6907,7.6322,7.8284,7.813,7.7522,7.8561,7.8715,7.8677,7.9554,7.9361,7.9246,8.0746,8.0631,8.0323,8.0977,8.0439,7.9554,7.8677,7.7169,7.6092,7.6322,7.5438,7.513,7.6669,0.0,0.0,0.0,0.0,0.0,0.0,6.4442,6.221,6.0589,6.0666,0.0,0.0,0.0,0.0,0.0,0.0,0.0,0.0,0.0,0.0,7.9777,8.0669,8.1093,8.1093,8.1093,8.1093,8.1093,8.1093,8.1093,8.1093,8.1093,8.1093,8.1093,8.1093,8.1093,8.1093,8.1093,8.1093,8.1093,8.1093,8.1093,8.1093,8.65,8.7582,8.8867,9.1289,9.0408,8.9588,9.034,8.9104,8.7725,8.6705,8.6568,8.5382,8.2305,8.1224,8.0726,8.0768,7.924,7.8631,7.9399,7.8742,7.8588,0.0,0.0,8.0067,8.0067,7.9851,7.85,7.5969,0.0,0.0,6.9033,0.0,7.0846,7.2129,7.3007,7.343,7.3507,7.4315,7.5168,7.5976,7.6015,7.6515,7.7292,7.7292,7.7792,7.86,7.9438,7.8707,7.7407,7.8215,7.7369,7.6438,7.8969,7.8631,7.763,7.9285,7.9169,7.8677,7.9554,7.9777,8.0008,8.09,8.1093,8.1093,8.1093,8.0439,7.9554,7.8677,7.7169,7.6245,7.7138,7.7253,7.6984,7.613,0.0,0.0,0.0,0.0,0.0,0.0,6.5128,6.3243,5.9858,6.0281,0.0,0.0,0.0,0.0,0.0,0.0,0.0,7.0839,7.4448,0.0,7.9777,8.0669,8.1093,8.1093,8.1093,8.1093,8.1093,8.1093,8.1093,8.1093,8.1093,8.1093,8.1093,8.1093,8.1093,8.1093,8.1093,8.1093,8.1093,8.1093,8.1093,8.1093,8.8535,8.9621,9.0557,9.0752,9.0325,8.9904,8.9583,8.9112,8.8254,8.6795,8.7134,8.6631,8.435,8.2973,8.1996,0.0,8.043,7.9903,0.0,7.9755,7.96,7.9816,8.0445,8.0767,8.0767,8.0137,7.9131,7.7715,0.0,0.0,0.0,7.3072,7.3131,7.2461,7.345,7.4246,7.4835,7.5517,7.6279,7.7088,7.694,7.7061,7.7369,7.7907,7.7561,7.6976,7.84,7.8215,7.7407,7.8215,7.7792,7.713,7.8477,7.8561,7.8446,8.0169,8.0477,8.0323,8.0592,8.0708,8.0746,8.1016,8.1093,8.1093,8.1093,8.0439,7.9554,7.8677,7.8099,7.7792,7.8061,7.8138,7.8023,7.7753,7.79,0.0,0.0,0.0,0.0,0.0,6.3243,6.1358,5.9665,6.0825,0.0,0.0,0.0,0.0,0.0,0.0,0.0,0.0,7.5203,0.0,7.9777,8.0669,8.1093,8.1093,8.1093,8.1093,8.1093,8.1093,8.1093,8.1093,8.1093,8.1093,8.1093,8.1093,8.1093,8.1093,8.1093,8.1093,8.1093,8.1093,8.1093,8.1093,9.0711,9.1649,9.2366,9.1825,9.1221,9.071,9.0448,8.9879,8.9092,8.7969,8.8307,8.8107,8.6613,8.5332,0.0,8.3077,8.169,8.0959,8.1262,8.0545,8.0201,8.0472,8.0871,8.1093,8.1093,8.0317,0.0,7.9485,7.8631,7.7438,7.5885,7.6317,7.6122,7.537,7.5809,7.615,7.6361,7.6741,7.6977,7.7112,7.6965,7.707,7.7407,7.8176,7.8061,7.7592,7.8977,7.8938,7.8284,7.8446,7.7984,7.7445,7.8253,7.8484,7.8792,8.0208,8.0823,8.1093,8.1093,8.1093,8.1093,8.1093,8.1093,8.1093,8.1093,8.0439,7.9746,7.9515,7.8946,7.86,7.8938,7.8715,7.86,7.8938,7.8054,7.6399,7.3853,0.0,0.0,0.0,0.0,0.0,0.0,6.3749,6.5243,0.0,0.0,0.0,0.0,0.0,0.0,7.2668,7.5984,7.8554,8.0285,8.0823,8.1093,8.1093,8.1093,8.1093,8.1093,8.1093,8.1093,8.1093,8.1093,8.1093,8.1093,8.1093,8.1093,8.1093,8.1093,8.1093,8.1093,8.1093,8.1093,8.1093,9.2814,9.3545,9.4138,0.0,9.2791,9.1938,9.2524,9.1277,9.0169,8.9909,8.9932,8.9671,8.8795,8.8017,8.6959,8.5403,0.0,0.0,0.0,8.1203,8.0531,8.1154,8.11,8.1007,8.1007,8.0361,8.0352,8.1007,8.0238,7.9831,7.9885,7.9289,7.94,8.0057,7.9425,7.8676,7.7937,7.785,7.729,7.6408,7.6408,7.6769,7.7407,7.8253,7.9015,7.9738,8.0746,8.0554,7.9669,7.8869,7.8099,7.7599,7.8292,7.8523,7.8754,7.9631,8.0477,8.1093,8.1093,8.1093,8.1093,8.1093,8.1093,8.1093,8.1016,8.0439,8.0085,8.0862,7.9785,7.8946,7.9746,7.9246,7.8946,7.9669,7.8323,7.6284,7.3699,0.0,0.0,0.0,0.0,0.0,0.0,6.8359,6.9468,0.0,0.0,0.0,0.0,0.0,7.2976,7.3738,7.6976,7.9446,8.1093,8.1093,8.1093,8.1093,8.1093,8.1093,8.1093,8.1093,8.1093,8.1093,8.1093,8.1093,8.1093,8.1093,8.1093,8.1093,8.1093,8.1093,8.1093,8.1093,8.1093,8.1093,0.0,0.0,9.4574,9.3923,9.3463,9.3053,9.2594,9.219,9.143,9.0077,9.047,9.0325,8.8872,8.9056,8.8666,8.6977,8.5164,8.4165,8.4349,8.2745,8.1834,8.2016,8.0962,8.0333,8.0333,7.9744,7.9733,8.0333,8.0142,8.0293,8.0777,8.013,7.9924,8.0038,7.8974,7.8411,7.8174,7.7513,7.7327,7.7522,7.7349,7.7313,7.7445,7.8938,7.8823,7.8169,8.0323,8.0554,7.9777,7.9554,7.9361,7.9131,7.8638,7.8977,7.9669,8.0554,8.0939,8.1093,8.1093,8.1093,8.1093,8.1093,8.1093,8.0939,8.0246,8.0477,8.0669,8.0208,8.0323,8.0554,8.0746,8.0631,8.0323,7.9854,7.7823,7.5207,7.1975,7.1014,0.0,0.0,6.8167,6.9475,6.8859,6.9898,7.0821,0.0,0.0,0.0,7.4091,7.5945,7.683,7.6399,7.9054,8.0669,8.1093,8.1093,8.1093,8.1093,8.1093,8.1093,8.1093,8.1093,8.1093,8.1093,8.1093,8.1093,8.1093,8.1093,8.1093,8.1093,8.1093,8.1093,8.1093,8.1093,8.1093,8.1093,9.4518,9.5032,9.5441,9.498,9.4557,9.4143,9.3719,9.3287,9.2595,9.1248,9.1518,9.1287,8.9979,8.9902,8.9393,8.8094,8.644,8.5156,8.4485,8.3202,8.2289,8.1966,8.0846,8.0222,8.0222,7.927,7.9081,7.9674,7.9959,8.0454,8.1085,8.0398,8.0115,8.0038,7.9117,7.8716,7.8666,7.8204,7.813,7.8369,7.8245,7.8041,7.7984,7.9285,7.9246,7.8669,8.0477,8.0785,8.0323,7.9931,7.9815,7.97,7.9246,7.9438,7.9969,8.0823,8.1093,8.1093,8.1093,8.1093,8.1093,8.1093,8.1093,8.0977,8.0516,8.0746,8.0977,8.0477,8.0785,8.1093,8.1093,8.1093,8.0554,7.8938,7.6823,7.4207,7.0821,7.0014,0.0,6.8321,7.0514,7.2206,7.2552,7.4014,7.4668,7.3976,7.5822,0.0,7.6476,7.8515,7.9138,7.7907,7.9977,8.1093,8.1093,8.1093,8.1093,8.1093,8.1093,8.1093,8.1093,8.1093,8.1093,8.1093,8.1093,8.1093,8.1093,8.1093,8.1093,8.1093,8.1093,8.1093,8.1093,8.1093,8.1093,8.1069,9.6288,9.6288,9.6288,9.6288,9.5672,9.5143,9.5027,9.4373,9.3595,9.2787,9.2595,9.221,9.1479,9.0624,8.9713,8.8806,8.726,8.5633,8.4017,8.3169,8.242,8.1627,8.071,8.021,8.0264,7.8869,7.851,7.9198,7.9695,8.0343,8.1085,8.0508,8.023,8.0211,7.96,7.9335,7.9335,7.9244,7.9167,7.9095,7.9095,7.893,7.8792,7.9669,7.9892,7.9892,8.0785,8.1093,8.0977,8.0246,8.0008,8.0008,8.0008,8.0008,8.0131,8.09,8.1093,8.1093,8.1093,8.1093,8.1093,8.1093,8.1093,8.1093,8.1093,8.1093,8.1093,8.1093,8.1093,8.1093,8.1093,8.0977,8.0092,7.7676,7.563,7.3206,6.9975,0.0,6.943,7.0744,7.3014,7.5046,7.663,7.8477,7.8861,7.7092,7.9285,8.0169,7.8946,8.0285,8.04,7.8946,8.0323,8.1093,8.1093,8.1093,8.1093,8.1093,8.1093,8.1093,8.1093,8.1093,8.1093,8.1093,8.1093,8.1093,8.1093,8.1093,8.1093,8.1093,8.1093,8.1093,8.1093,8.1093,8.1093,8.0991,9.6288,9.6288,9.6288,9.6288,9.6172,9.5865,9.5104,9.4874,9.4489,9.3633,9.2903,9.2441,9.2326,9.1518,9.0424,8.8978,8.8002,8.6454,8.4055,8.3594,8.2913,8.1724,8.0217,7.9464,7.9626,7.8218,7.8035,7.9198,7.9301,7.9919,8.1093,8.0983,8.0959,8.0934,8.0268,7.9959,7.9929,7.9414,7.947,7.9924,7.9924,7.9801,7.9708,8.0554,8.0439,7.9892,8.0785,8.1093,8.1093,8.0939,8.09,8.09,8.09,8.09,8.0939,8.1054,8.1093,8.1093,8.1093,8.1093,8.1093,8.1093,8.1093,8.1093,8.1093,8.1093,8.1093,8.1093,8.1093,8.1093,8.1093,8.0516,7.94,7.7592,7.4637,7.1668,6.8968,0.0,7.1437,7.0975,7.5584,7.92,8.0208,7.9323,7.9446,8.117,7.9831,7.9446,8.0631,8.0939,8.0977,8.0708,8.0977,8.1093,8.1093,8.1093,8.1093,8.1093,8.1093,8.1093,8.1093,8.1093,8.1093,8.1093,8.1093,8.1093,8.1093,8.1093,8.1093,8.1093,8.1093,8.1093,8.1093,8.1093,8.1093,8.0991,9.6288,9.6288,9.6288,9.6288,9.6288,9.6172,9.5749,9.5711,9.5403,9.4527,9.4066,9.3489,9.2595,9.2133,9.1236,8.9573,8.9104,8.7667,8.48,8.4185,8.3454,8.238,8.0819,7.9477,7.8337,7.8011,7.8285,7.9198,7.9524,8.0154,8.1093,8.1093,8.1093,8.1085,8.0767,8.0634,8.0617,8.0324,8.039,8.0634,8.0634,8.057,8.0554,8.0939,8.0862,8.0554,8.0977,8.1093,8.1093,8.1093,8.1093,8.1093,8.1093,8.1093,8.1093,8.1093,8.1093,8.1093,8.1093,8.1093,8.1093,8.1093,8.1093,8.1208,8.1631,8.14,8.1208,8.167,8.14,8.1093,8.1093,8.0785,7.9785,7.763,7.5207,0.0,0.0,7.1745,7.2752,7.4168,7.7169,7.9785,8.1554,8.1016,8.1216,8.287,8.1485,8.0908,8.1708,8.1323,8.1093,8.1093,8.1093,8.1093,8.1093,8.1093,8.1093,8.1093,8.1093,8.1093,8.1093,8.1093,8.1093,8.1093,8.1093,8.1093,8.1093,8.1093,8.1093,8.1093,8.1093,8.1093,8.1093,8.1093,8.1093,8.0991,9.6288,9.6288,9.6288,9.6288,9.6288,9.6288,9.6288,9.6288,9.6057,9.5412,9.4951,9.422,9.2903,9.2441,9.1589,9.0088,8.9579,8.8356,8.5935,8.4912,8.3883,8.2657,8.1342,7.9711,7.7782,7.8231,7.8816,7.9414,7.9878,8.0454,8.1093,8.1093,8.1093,8.1093,8.1093,8.1093,8.1093,8.1093,8.1093,8.1093,8.1093,8.1093,8.1093,8.1093,8.1093,8.1093,8.1093,8.1093,8.1093,8.1093,8.1093,8.1093,8.1093,8.1093,8.1093,8.1093,8.1093,8.1093,8.1093,8.1093,8.1093,8.1093,8.1246,8.1477,8.19,8.1823,8.1747,8.1977,8.167,8.1323,8.1131,8.0939,8.0092,7.7946,0.0,0.0,0.0,7.3707,7.4637,7.7253,7.883,8.0523,8.2708,8.2708,8.2939,8.3824,8.3093,8.2516,8.2324,8.1708,8.1362,8.1362,8.1208,8.1093,8.1093,8.1093,8.1093,8.1093,8.1093,8.1093,8.1093,8.1093,8.1093,8.1093,8.1093,8.1093,8.1093,8.1093,8.1093,8.1093,8.1093,8.1093,8.1093,8.1093,8.1093,8.0991,9.6288,9.6288,9.6288,9.6288,9.6288,9.6288,9.6288,9.6288,9.6288,9.6211,9.4788,9.3749,9.3633,9.221,9.0991,9.0148,8.8704,8.7739,8.7436,8.5907,8.4062,8.1863,8.09,7.9985,7.9069,7.9105,7.9425,8.0018,8.0096,8.0454,8.1093,8.1093,8.1093,8.1093,8.1093,8.1093,8.1093,8.1093,8.1093,8.1093,8.1093,8.1093,8.1093,8.1093,8.1093,8.1093,8.1093,8.1093,8.1093,8.1093,8.1093,8.1093,8.1093,8.1093,8.1093,8.1093,8.1093,8.1093,8.1093,8.1093,8.1093,8.1093,8.167,8.2016,8.1323,8.2324,8.2986,8.1516,8.1747,8.1977,8.1246,8.0439,7.9554,7.8561,0.0,0.0,7.4738,7.6592,7.8138,7.8369,8.1254,8.364,8.4632,8.3978,8.3862,8.4747,8.4016,8.3139,8.2324,8.2247,8.2208,8.2208,8.1477,8.1093,8.1093,8.1093,8.1093,8.1093,8.1093,8.1093,8.1093,8.1093,8.1093,8.1093,8.1093,8.1093,8.1093,8.1093,8.1093,8.1093,8.1093,8.1093,8.1093,8.1093,8.1093,8.0991,9.6288,9.6288,9.6288,9.6288,9.6288,9.6288,9.6288,9.6288,9.6288,9.6288,9.5249,9.4296,9.3749,9.2672,9.1446,9.0091,8.9439,8.8595,8.755,8.6869,8.5274,8.245,8.2,8.0992,7.9247,8.0109,8.0421,8.0115,8.0508,8.0855,8.1093,8.1093,8.1093,8.1093,8.1093,8.1093,8.1093,8.1093,8.1093,8.1093,8.1093,8.1093,8.1093,8.1093,8.1093,8.1093,8.1093,8.1093,8.1093,8.1093,8.1093,8.1093,8.1093,8.1093,8.1093,8.1093,8.1093,8.1093,8.1093,8.1093,8.1208,8.1708,8.2054,8.2516,8.3285,8.3516,8.3563,8.3478,8.3285,8.287,8.2016,8.1554,8.1093,8.0246,0.0,7.8438,7.8631,7.9515,8.0285,8.0793,8.2485,8.3939,8.4816,8.4593,8.4747,8.5593,8.4901,8.4247,8.3939,8.2901,8.2054,8.1554,8.1246,8.1323,8.1823,8.1362,8.1093,8.1093,8.1093,8.1093,8.1093,8.1093,8.1093,8.1093,8.1093,8.1093,8.1093,8.1093,8.1093,8.1093,8.1093,8.1093,8.1093,8.1093,8.1093,8.1069,9.6288,9.6288,9.6288,9.6288,9.6288,9.6288,9.6288,9.6288,9.6288,9.6288,9.5288,9.4373,9.3749,9.2749,9.1595,9.0393,8.9816,8.9056,8.7863,8.7286,8.5928,8.3495,8.3132,8.2244,8.0615,8.1576,8.1669,8.078,8.1255,8.1362,8.1093,8.1093,8.1093,8.1093,8.1093,8.1093,8.1093,8.1093,8.1093,8.1093,8.1093,8.1093,8.1093,8.1093,8.1093,8.1093,8.1093,8.1093,8.1093,8.1093,8.1093,8.1093,8.1093,8.1093,8.1093,8.1093,8.1093,8.117,8.14,8.1477,8.1593,8.217,8.2516,8.3016,8.4209,8.4439,8.4401,8.4478,8.4247,8.3747,8.2862,8.2716,8.2516,8.1977,8.1362,8.1208,8.1785,8.2324,8.2785,8.3093,8.4093,8.4901,8.5247,8.5286,8.5517,8.6055,8.5593,8.5055,8.4516,8.3093,8.217,8.19,8.1631,8.1862,8.2708,8.1631,8.1093,8.1093,8.1093,8.1093,8.1093,8.1093,8.1093,8.1093,8.1093,8.1093,8.1093,8.1093,8.1093,8.1093,8.1093,8.1093,8.1093,8.1093,8.1093,8.1093,9.6288,9.6288,9.6288,9.6288,9.6288,9.6288,9.6288,9.6288,9.6288,9.6288,9.4788,9.371,9.371,9.221,9.121,9.121,8.9671,8.8718,8.8679,8.7055,8.5747,8.4931,8.4055,8.3601,8.3601,8.3601,8.3178,8.2285,8.2285,8.19,8.1093,8.1093,8.1093,8.1093,8.1093,8.1093,8.1093,8.1093,8.1093,8.1093,8.1093,8.1093,8.1093,8.1093,8.1093,8.1093,8.1093,8.1093,8.1093,8.1093,8.1093,8.1093,8.1093,8.1093,8.1093,8.1093,8.1093,8.1285,8.2093,8.2285,8.2285,8.2324,8.2986,8.3601,8.3601,8.4901,8.5632,8.3947,8.4324,8.4632,8.3755,8.3601,8.3601,8.3601,8.3601,8.3601,8.3601,8.5055,8.5824,8.5008,8.6401,8.7055,8.6209,8.6094,8.6094,8.6094,8.6094,8.5363,8.3678,8.2793,8.2708,8.3563,8.2747,8.2716,8.3563,8.1939,8.1093,8.1093,8.1093,8.1093,8.1093,8.1093,8.1093,8.1093,8.1093,8.1093,8.1093,8.1093,8.1093,8.1093,8.1093,8.1093,8.1093,8.1093,8.1093,8.1093,9.6288,9.6288,9.6288,9.6288,9.6288,9.6288,9.6288,9.6288,9.6288,9.6288,9.4788,9.371,9.371,9.221,9.0941,9.0355,8.9816,8.9056,8.7863,8.7286,8.6363,8.497,8.467,8.3939,8.2716,8.3293,8.3178,8.2285,8.2285,8.19,8.1093,8.1093,8.1093,8.1093,8.1093,8.1093,8.1093,8.1093,8.1093,8.1093,8.1093,8.1093,8.1093,8.1093,8.1093,8.1093,8.1093,8.1093,8.1093,8.1093,8.1093,8.1093,8.1093,8.1093,8.1208,8.1785,8.1554,8.1285,8.2093,8.2285,8.2593,8.3824,8.4324,8.467,8.5247,8.5747,8.5978,8.5478,8.5555,8.5478,8.467,8.4516,8.4324,8.3717,8.4093,8.4516,8.4516,8.544,8.6247,8.6594,8.7094,8.7286,8.7055,8.7017,8.6748,8.617,8.6094,8.5363,8.3678,8.337,8.2793,8.1862,8.1593,8.1593,8.1823,8.19,8.167,8.1093,8.1093,8.1093,8.1093,8.1093,8.1093,8.1093,8.1093,8.1093,8.1093,8.1093,8.1093,8.1093,8.1093,8.1093,8.1093,8.1093,8.1093,8.1093,9.6288,9.6288,9.6288,9.6288,9.6288,9.6288,9.6288,9.6288,9.6288,9.6288,9.4788,9.371,9.371,9.221,9.097,9.047,8.9825,8.8863,8.7478,8.7094,8.6132,8.4478,8.4401,8.3901,8.2832,8.3332,8.3178,8.2285,8.2285,8.19,8.1093,8.1093,8.1093,8.1093,8.1093,8.1093,8.1093,8.1093,8.1093,8.1093,8.1093,8.1093,8.1093,8.1093,8.1093,8.1093,8.1093,8.1093,8.1131,8.1477,8.1554,8.1631,8.1977,8.1862,8.1747,8.2554,8.2477,8.2285,8.3093,8.3324,8.367,8.5008,8.5124,8.5124,8.594,8.6094,8.6094,8.6094,8.6094,8.5931,8.5478,8.5354,8.5209,8.467,8.5016,8.5354,8.5354,8.6094,8.6671,8.6863,8.7171,8.7248,8.6901,8.6901,8.6671,8.6132,8.5824,8.517,8.417,8.3447,8.2793,8.2093,8.1747,8.1554,8.1554,8.2401,8.2247,8.1093,8.1093,8.1093,8.1093,8.1093,8.1093,8.1093,8.1093,8.1093,8.1093,8.1093,8.1093,8.1093,8.1093,8.1093,8.1093,8.1093,8.1093,8.1093,9.6288,9.6288,9.6288,9.6288,9.6288,9.6288,9.6288,9.6288,9.6288,9.6288,9.4788,9.371,9.371,9.221,9.121,9.121,8.9787,8.8526,8.7594,8.6786,8.5517,8.3678,8.3601,8.3524,8.337,8.3447,8.3101,8.2285,8.2285,8.19,8.1093,8.1093,8.1093,8.1093,8.1093,8.1093,8.1093,8.1093,8.1093,8.1093,8.1093,8.1093,8.1093,8.1093,8.1093,8.1093,8.1093,8.1131,8.1323,8.2054,8.2285,8.2439,8.3216,8.2986,8.2593,8.3447,8.3678,8.3793,8.467,8.4893,8.5085,8.5824,8.5517,8.5201,8.594,8.6094,8.6094,8.6094,8.6094,8.6094,8.6094,8.6094,8.6094,8.6094,8.6094,8.6094,8.6094,8.6786,8.7017,8.6286,8.6901,8.7094,8.6286,8.617,8.6094,8.6094,8.5431,8.497,8.4893,8.3324,8.2747,8.3447,8.2631,8.217,8.217,8.3062,8.2716,8.1208,8.1208,8.1208,8.1208,8.1131,8.1093,8.1093,8.1093,8.1093,8.1093,8.1093,8.1093,8.1093,8.1093,8.1093,8.1093,8.1093,8.1093,8.1093,9.6288,9.6288,9.6288,9.6288,9.6288,9.6288,9.6288,9.6288,9.6288,9.6288,9.4788,9.371,9.371,9.221,9.121,9.121,9.0864,9.0017,8.8526,8.8256,8.6794,8.3717,8.3601,8.2986,8.167,8.2247,8.2477,8.2285,8.2285,8.19,8.1093,8.1093,8.1093,8.1093,8.1093,8.1093,8.1093,8.1093,8.1093,8.1093,8.1093,8.1093,8.1093,8.1093,8.1093,8.1093,8.1093,8.1516,8.2054,8.2247,8.2285,8.2324,8.2516,8.2901,8.3486,8.4362,8.4132,8.3793,8.467,8.4893,8.4931,8.5124,8.5517,8.5901,8.6055,8.6094,8.6094,8.6094,8.6094,8.6094,8.6094,8.6094,8.6094,8.6094,8.6094,8.6094,8.6094,8.6247,8.6555,8.7055,8.7286,8.7325,8.7132,8.6517,8.6094,8.6094,8.594,8.5555,8.4931,8.3901,8.3101,8.2593,8.1785,8.1362,8.1362,8.217,8.2401,8.2054,8.2054,8.2054,8.2016,8.14,8.1093,8.1093,8.1093,8.1093,8.1093,8.1093,8.1093,8.1093,8.1093,8.1093,8.1093,8.1093,8.1093,8.1208,9.6288,9.6288,9.6288,9.6288,9.6288,9.6288,9.6288,9.6288,9.6288,9.6288,9.4788,9.371,9.371,9.221,9.121,9.121,9.0479,8.9633,8.8756,8.7902,8.6286,8.3717,8.3601,8.2832,8.1131,8.1516,8.1747,8.1747,8.1747,8.1516,8.1093,8.1093,8.1093,8.1093,8.1093,8.1093,8.1093,8.1093,8.1093,8.1093,8.1093,8.1093,8.1093,8.1093,8.1323,8.167,8.167,8.2208,8.2901,8.2901,8.2901,8.3062,8.3862,8.4439,8.4863,8.5324,8.544,8.5401,8.5478,8.547,8.547,8.547,8.5786,8.6094,8.6094,8.6094,8.6094,8.6094,8.6094,8.6094,8.6094,8.6094,8.6094,8.6094,8.6094,8.6094,8.6094,8.6094,8.6286,8.6748,8.6786,8.6786,8.6786,8.6363,8.6094,8.6094,8.5747,8.5517,8.547,8.3901,8.2947,8.2901,8.1747,8.1093,8.1093,8.19,8.2285,8.2285,8.2285,8.2285,8.2285,8.1477,8.1093,8.1093,8.1093,8.1093,8.1093,8.1093,8.1093,8.1093,8.1093,8.1093,8.1093,8.1093,8.1093,8.1208,9.6288,9.6288,9.6288,9.6288,9.6288,9.6288,9.6288,9.6288,9.6288,9.6288,9.4903,9.3864,9.371,9.221,9.1133,9.097,8.971,8.8786,8.8487,8.7132,8.5517,8.3678,8.3601,8.2832,8.1131,8.1093,8.1093,8.1093,8.1093,8.1093,8.1093,8.1093,8.1093,8.1093,8.1093,8.1093,8.1093,8.1093,8.1093,8.1093,8.1093,8.1093,8.1131,8.1246,8.1708,8.2324,8.2477,8.2986,8.364,8.3755,8.3832,8.4055,8.5478,8.6094,8.6324,8.6324,8.6824,8.7248,8.6517,8.6209,8.6094,8.6094,8.6094,8.6094,8.6094,8.6094,8.6094,8.6094,8.6094,8.6094,8.6094,8.6094,8.6094,8.6094,8.6094,8.6094,8.6094,8.5978,8.594,8.6094,8.6094,8.6055,8.5901,8.617,8.6247,8.6094,8.5632,8.5547,8.6055,8.3824,8.2862,8.3563,8.1977,8.1093,8.1093,8.19,8.2285,8.2285,8.2285,8.2285,8.2285,8.1477,8.1093,8.1093,8.1093,8.1093,8.1093,8.1093,8.1093,8.1093,8.1093,8.1093,8.1093,8.1093,8.1293,8.1669,9.6288,9.6288,9.6288,9.6288,9.6288,9.6288,9.6288,9.6288,9.6288,9.6288,9.5441,9.4527,9.3787,9.221,9.0902,9.0124,8.9855,8.9124,8.7671,8.7363,8.6132,8.3717,8.3601,8.2832,8.1131,8.1093,8.1093,8.1093,8.1093,8.1093,8.1093,8.1093,8.1093,8.1093,8.1093,8.1093,8.1093,8.1093,8.1093,8.1093,8.1093,8.1093,8.117,8.1862,8.2208,8.2401,8.3139,8.3486,8.3717,8.4478,8.4709,8.4739,8.497,8.6055,8.7209,8.7209,8.7325,8.7363,8.7248,8.6671,8.6094,8.6094,8.6094,8.6094,8.6094,8.6094,8.6094,8.6094,8.6094,8.6094,8.6094,8.6094,8.6094,8.6094,8.6094,8.6094,8.6094,8.5517,8.5316,8.6017,8.6094,8.5824,8.5124,8.6363,8.6901,8.617,8.6709,8.6786,8.6132,8.4401,8.3486,8.3601,8.1977,8.1093,8.1093,8.19,8.2285,8.2285,8.2285,8.2285,8.2285,8.1477,8.1093,8.1093,8.1093,8.1093,8.1093,8.1093,8.1093,8.1093,8.1093,8.1093,8.1093,8.1093,8.2133,8.3449,9.6288,9.6288,9.6288,9.6288,9.6288,9.6288,9.6288,9.6288,9.6288,9.6288,9.5518,9.4681,9.3796,9.221,9.0671,8.9325,8.9248,8.8517,8.6786,8.6247,8.5055,8.2978,8.2862,8.2324,8.1131,8.1093,8.1093,8.1093,8.1093,8.1093,8.1093,8.1093,8.1093,8.1093,8.1093,8.1093,8.1093,8.1093,8.1093,8.1093,8.1093,8.1093,8.1208,8.1977,8.2593,8.3139,8.4016,8.4324,8.4362,8.4786,8.4893,8.497,8.5431,8.6401,8.7286,8.6824,8.7017,8.7286,8.6824,8.6401,8.6094,8.6094,8.6094,8.6094,8.6094,8.6094,8.6094,8.6094,8.5747,8.5555,8.6017,8.5747,8.5593,8.6017,8.6094,8.6094,8.6094,8.5786,8.5709,8.6055,8.5709,8.5478,8.5555,8.5824,8.6017,8.6094,8.6478,8.6517,8.6132,8.4516,8.3601,8.3601,8.1977,8.1093,8.1093,8.1439,8.1631,8.1631,8.1631,8.1862,8.2285,8.1477,8.1093,8.1093,8.1093,8.1093,8.1093,8.1093,8.1093,8.1093,8.1093,8.1093,8.1162,8.1782,8.2503,8.3274]}]]